<?xml version='1.0' encoding='UTF-8'?><gpx version="1.1" creator="JPX - https://github.com/jenetics/jpx" xmlns="http://www.topografix.com/GPX/1/1"><trk><trkseg><trkpt lat="45.245991394099434" lon="3.7744939275791363"><ele>1013.0</ele><time>2026-05-01T13:28:07Z</time></trkpt><trkpt lat="45.24592166989599" lon="3.774511632753396"><ele>1013.0</ele><time>2026-05-01T13:28:18Z</time></trkpt><trkpt lat="45.24589046977995" lon="3.774396756306049"><ele>1013.0</ele><time>2026-05-01T13:28:39Z</time></trkpt><trkpt lat="45.24590272982186" lon="3.774281986870606"><ele>1013.0</ele><time>2026-05-01T13:28:41Z</time></trkpt><trkpt lat="45.24595542186498" lon="3.7724211353278174"><ele>1012.8</ele><time>2026-05-01T13:28:51Z</time></trkpt><trkpt lat="45.24595089820632" lon="3.772301305048579"><ele>1012.5999999999999</ele><time>2026-05-01T13:28:52Z</time></trkpt><trkpt lat="45.24594555008838" lon="3.7721734758738723"><ele>1012.4000000000001</ele><time>2026-05-01T13:28:53Z</time></trkpt><trkpt lat="45.245956684286284" lon="3.772069011072273"><ele>1012.2</ele><time>2026-05-01T13:28:54Z</time></trkpt><trkpt lat="45.24595211766261" lon="3.7719049516405967"><ele>1012.0</ele><time>2026-05-01T13:28:55Z</time></trkpt><trkpt lat="45.245934136391405" lon="3.7716948903507115"><ele>1012.0</ele><time>2026-05-01T13:28:56Z</time></trkpt><trkpt lat="45.2458978837823" lon="3.771528682955954"><ele>1012.0</ele><time>2026-05-01T13:28:57Z</time></trkpt><trkpt lat="45.245878810933895" lon="3.7713830989213153"><ele>1012.0</ele><time>2026-05-01T13:28:58Z</time></trkpt><trkpt lat="45.2458718102796" lon="3.7712668193364087"><ele>1012.0</ele><time>2026-05-01T13:28:59Z</time></trkpt><trkpt lat="45.24590547884165" lon="3.7711504471584605"><ele>1012.0</ele><time>2026-05-01T13:29:00Z</time></trkpt><trkpt lat="45.24587495424764" lon="3.771028309862947"><ele>1011.5</ele><time>2026-05-01T13:29:01Z</time></trkpt><trkpt lat="45.245855226266315" lon="3.7708917048089723"><ele>1011.0</ele><time>2026-05-01T13:29:02Z</time></trkpt><trkpt lat="45.24624715958692" lon="3.7705938329027413"><ele>1011.0</ele><time>2026-05-01T13:29:03Z</time></trkpt><trkpt lat="45.24642018427344" lon="3.770378459413476"><ele>1011.0</ele><time>2026-05-01T13:29:04Z</time></trkpt><trkpt lat="45.24658849649078" lon="3.7701383350582907"><ele>1008.6666666666667</ele><time>2026-05-01T13:29:05Z</time></trkpt><trkpt lat="45.24672827953789" lon="3.7699169668519197"><ele>1006.3333333333334</ele><time>2026-05-01T13:29:06Z</time></trkpt><trkpt lat="45.246852654964066" lon="3.7697089048848555"><ele>1004.0</ele><time>2026-05-01T13:29:07Z</time></trkpt><trkpt lat="45.24699099014604" lon="3.7694901853085985"><ele>1002.6666666666667</ele><time>2026-05-01T13:29:08Z</time></trkpt><trkpt lat="45.24713190389641" lon="3.7692650978646896"><ele>1001.3333333333333</ele><time>2026-05-01T13:29:09Z</time></trkpt><trkpt lat="45.247245868477876" lon="3.769097199346371"><ele>1000.0</ele><time>2026-05-01T13:29:10Z</time></trkpt><trkpt lat="45.24738401888391" lon="3.768949073930951"><ele>1000.0</ele><time>2026-05-01T13:29:11Z</time></trkpt><trkpt lat="45.247517220130405" lon="3.7687906631341987"><ele>1000.0</ele><time>2026-05-01T13:29:12Z</time></trkpt><trkpt lat="45.24762420465362" lon="3.76861635407351"><ele>1000.0</ele><time>2026-05-01T13:29:13Z</time></trkpt><trkpt lat="45.247710642876164" lon="3.768416592097834"><ele>1002.3333333333333</ele><time>2026-05-01T13:29:14Z</time></trkpt><trkpt lat="45.24777384016637" lon="3.7681755379561306"><ele>1004.6666666666667</ele><time>2026-05-01T13:29:15Z</time></trkpt><trkpt lat="45.24782529705579" lon="3.7679033076894437"><ele>1007.0</ele><time>2026-05-01T13:29:16Z</time></trkpt><trkpt lat="45.24786100067668" lon="3.7676691101353974"><ele>1009.25</ele><time>2026-05-01T13:29:17Z</time></trkpt><trkpt lat="45.247904540286775" lon="3.7674638716903215"><ele>1011.5</ele><time>2026-05-01T13:29:18Z</time></trkpt><trkpt lat="45.24797165095214" lon="3.7672919064475527"><ele>1013.75</ele><time>2026-05-01T13:29:19Z</time></trkpt><trkpt lat="45.24802917654402" lon="3.7671677286620993"><ele>1016.0</ele><time>2026-05-01T13:29:20Z</time></trkpt><trkpt lat="45.248092431844334" lon="3.767062585383366"><ele>1016.0000000000001</ele><time>2026-05-01T13:29:21Z</time></trkpt><trkpt lat="45.24813962235675" lon="3.7669900874791806"><ele>1016.0</ele><time>2026-05-01T13:29:22Z</time></trkpt><trkpt lat="45.24819506163985" lon="3.766864564464874"><ele>1016.0</ele><time>2026-05-01T13:29:24Z</time></trkpt><trkpt lat="45.24818152246642" lon="3.7669605660267673"><ele>1016.0</ele><time>2026-05-01T13:30:27Z</time></trkpt><trkpt lat="45.248129792386955" lon="3.7670310631498674"><ele>1016.0000000000001</ele><time>2026-05-01T13:30:29Z</time></trkpt><trkpt lat="45.24806859511918" lon="3.767121206942946"><ele>1016.0</ele><time>2026-05-01T13:30:31Z</time></trkpt><trkpt lat="45.24800292709594" lon="3.767228626543834"><ele>1016.0</ele><time>2026-05-01T13:30:33Z</time></trkpt><trkpt lat="45.247908364353925" lon="3.767415903795024"><ele>1015.9999999999999</ele><time>2026-05-01T13:30:36Z</time></trkpt><trkpt lat="45.24786053406333" lon="3.76749806344357"><ele>1015.9999999999999</ele><time>2026-05-01T13:30:38Z</time></trkpt><trkpt lat="45.247936149414755" lon="3.7675310904691472"><ele>1016.0</ele><time>2026-05-01T13:30:41Z</time></trkpt><trkpt lat="45.24795705137243" lon="3.7674108997193905"><ele>1016.0</ele><time>2026-05-01T13:30:42Z</time></trkpt><trkpt lat="45.24801230104699" lon="3.7672708034384668"><ele>1013.6666666666667</ele><time>2026-05-01T13:30:43Z</time></trkpt><trkpt lat="45.24813467310074" lon="3.767072170688519"><ele>1011.3333333333333</ele><time>2026-05-01T13:30:44Z</time></trkpt><trkpt lat="45.24819639863217" lon="3.7669255809448927"><ele>1009.0</ele><time>2026-05-01T13:30:45Z</time></trkpt><trkpt lat="45.24828273854986" lon="3.7667374972825347"><ele>1009.0</ele><time>2026-05-01T13:30:46Z</time></trkpt><trkpt lat="45.248382752559394" lon="3.7664876077479907"><ele>1009.0</ele><time>2026-05-01T13:30:47Z</time></trkpt><trkpt lat="45.24849954441003" lon="3.766215239825879"><ele>1009.0</ele><time>2026-05-01T13:30:48Z</time></trkpt><trkpt lat="45.248593809864545" lon="3.766007692656373"><ele>1010.5</ele><time>2026-05-01T13:30:49Z</time></trkpt><trkpt lat="45.2486804880457" lon="3.7658619302041587"><ele>1012.0</ele><time>2026-05-01T13:30:50Z</time></trkpt><trkpt lat="45.24877598976442" lon="3.765741416354707"><ele>1013.5</ele><time>2026-05-01T13:30:51Z</time></trkpt><trkpt lat="45.24886682418995" lon="3.7656006207825783"><ele>1015.0</ele><time>2026-05-01T13:30:52Z</time></trkpt><trkpt lat="45.249003397828446" lon="3.76548871267378"><ele>1015.0</ele><time>2026-05-01T13:30:53Z</time></trkpt><trkpt lat="45.24912656179267" lon="3.765329404934957"><ele>1015.0</ele><time>2026-05-01T13:30:54Z</time></trkpt><trkpt lat="45.249279139074126" lon="3.7651936007259925"><ele>1015.0</ele><time>2026-05-01T13:30:55Z</time></trkpt><trkpt lat="45.2494395599198" lon="3.765131721875187"><ele>1015.25</ele><time>2026-05-01T13:30:56Z</time></trkpt><trkpt lat="45.24954074027135" lon="3.7649916215232895"><ele>1015.5</ele><time>2026-05-01T13:30:57Z</time></trkpt><trkpt lat="45.24963755469072" lon="3.7648865942207315"><ele>1015.75</ele><time>2026-05-01T13:30:58Z</time></trkpt><trkpt lat="45.2497109521424" lon="3.7647454211809124"><ele>1016.0</ele><time>2026-05-01T13:30:59Z</time></trkpt><trkpt lat="45.24979760367275" lon="3.764653501479728"><ele>1013.25</ele><time>2026-05-01T13:31:00Z</time></trkpt><trkpt lat="45.249907122789715" lon="3.7646543805173"><ele>1010.5</ele><time>2026-05-01T13:31:01Z</time></trkpt><trkpt lat="45.25000485844261" lon="3.76461076203438"><ele>1007.75</ele><time>2026-05-01T13:31:02Z</time></trkpt><trkpt lat="45.250106147815636" lon="3.7645165098605395"><ele>1005.0</ele><time>2026-05-01T13:31:03Z</time></trkpt><trkpt lat="45.250216701841836" lon="3.7643965733032787"><ele>1006.25</ele><time>2026-05-01T13:31:04Z</time></trkpt><trkpt lat="45.25033072614611" lon="3.764263324771675"><ele>1007.5</ele><time>2026-05-01T13:31:05Z</time></trkpt><trkpt lat="45.25044306246192" lon="3.7641458028529344"><ele>1008.75</ele><time>2026-05-01T13:31:06Z</time></trkpt><trkpt lat="45.25055031444713" lon="3.764086846808511"><ele>1010.0</ele><time>2026-05-01T13:31:07Z</time></trkpt><trkpt lat="45.25069421736964" lon="3.7640952229221045"><ele>1010.0</ele><time>2026-05-01T13:31:08Z</time></trkpt><trkpt lat="45.25083468567237" lon="3.764141913316815"><ele>1010.0</ele><time>2026-05-01T13:31:09Z</time></trkpt><trkpt lat="45.25096832868509" lon="3.7641550585327086"><ele>1010.0</ele><time>2026-05-01T13:31:10Z</time></trkpt><trkpt lat="45.25111849214031" lon="3.764138144803386"><ele>1010.0</ele><time>2026-05-01T13:31:11Z</time></trkpt><trkpt lat="45.25128635889465" lon="3.764132093158675"><ele>1009.3333333333334</ele><time>2026-05-01T13:31:12Z</time></trkpt><trkpt lat="45.25149528630667" lon="3.7641327663386126"><ele>1008.6666666666667</ele><time>2026-05-01T13:31:13Z</time></trkpt><trkpt lat="45.25166039348807" lon="3.7641891613948895"><ele>1008.0</ele><time>2026-05-01T13:31:14Z</time></trkpt><trkpt lat="45.25181125531601" lon="3.764247588375891"><ele>1008.0</ele><time>2026-05-01T13:31:15Z</time></trkpt><trkpt lat="45.251981029138186" lon="3.764357259159717"><ele>1008.0</ele><time>2026-05-01T13:31:16Z</time></trkpt><trkpt lat="45.252104392876994" lon="3.7644552602384573"><ele>1008.0</ele><time>2026-05-01T13:31:17Z</time></trkpt><trkpt lat="45.252206976203325" lon="3.7645478685901526"><ele>1008.0</ele><time>2026-05-01T13:31:18Z</time></trkpt><trkpt lat="45.25229992127626" lon="3.7646896311196625"><ele>1006.25</ele><time>2026-05-01T13:31:19Z</time></trkpt><trkpt lat="45.252386742521225" lon="3.7648599599884163"><ele>1004.5</ele><time>2026-05-01T13:31:20Z</time></trkpt><trkpt lat="45.25246842060312" lon="3.7650005068479855"><ele>1002.75</ele><time>2026-05-01T13:31:21Z</time></trkpt><trkpt lat="45.25257471566245" lon="3.7651008410708746"><ele>1001.0</ele><time>2026-05-01T13:31:22Z</time></trkpt><trkpt lat="45.25273237312537" lon="3.7651849168921574"><ele>1001.0</ele><time>2026-05-01T13:31:23Z</time></trkpt><trkpt lat="45.25290398937288" lon="3.7651788840941443"><ele>1001.0</ele><time>2026-05-01T13:31:24Z</time></trkpt><trkpt lat="45.25305805246911" lon="3.7651435810808507"><ele>1001.0</ele><time>2026-05-01T13:31:25Z</time></trkpt><trkpt lat="45.25323017732013" lon="3.765054921068508"><ele>998.25</ele><time>2026-05-01T13:31:26Z</time></trkpt><trkpt lat="45.25338818287883" lon="3.76499783699435"><ele>995.5</ele><time>2026-05-01T13:31:27Z</time></trkpt><trkpt lat="45.25351268163193" lon="3.7649668295147585"><ele>992.75</ele><time>2026-05-01T13:31:28Z</time></trkpt><trkpt lat="45.253574729775536" lon="3.7649220061433373"><ele>990.0</ele><time>2026-05-01T13:31:29Z</time></trkpt><trkpt lat="45.253589131931335" lon="3.764782108492089"><ele>990.0</ele><time>2026-05-01T13:31:31Z</time></trkpt><trkpt lat="45.25361678360033" lon="3.7646770180908424"><ele>990.0</ele><time>2026-05-01T13:31:32Z</time></trkpt><trkpt lat="45.25363737910845" lon="3.7645333090349484"><ele>990.0</ele><time>2026-05-01T13:31:33Z</time></trkpt><trkpt lat="45.25365347338497" lon="3.7643873755817925"><ele>990.0</ele><time>2026-05-01T13:31:34Z</time></trkpt><trkpt lat="45.253666156762584" lon="3.7642246152540744"><ele>990.0</ele><time>2026-05-01T13:31:35Z</time></trkpt><trkpt lat="45.25367697460858" lon="3.764035294124973"><ele>990.2</ele><time>2026-05-01T13:31:36.001Z</time></trkpt><trkpt lat="45.25369504621892" lon="3.763873484292809"><ele>990.4</ele><time>2026-05-01T13:31:37.001Z</time></trkpt><trkpt lat="45.2537152805329" lon="3.7637565232076136"><ele>990.5999999999999</ele><time>2026-05-01T13:31:38.001Z</time></trkpt><trkpt lat="45.25372706341161" lon="3.763617719267235"><ele>990.8</ele><time>2026-05-01T13:31:39.001Z</time></trkpt><trkpt lat="45.25370433300229" lon="3.7634890683001365"><ele>991.0</ele><time>2026-05-01T13:31:40.001Z</time></trkpt><trkpt lat="45.253661233310325" lon="3.763334571743501"><ele>991.4</ele><time>2026-05-01T13:31:41.001Z</time></trkpt><trkpt lat="45.25361937663984" lon="3.7631933360260463"><ele>991.8</ele><time>2026-05-01T13:31:42.001Z</time></trkpt><trkpt lat="45.25355822911733" lon="3.763031299587606"><ele>992.1999999999999</ele><time>2026-05-01T13:31:43.001Z</time></trkpt><trkpt lat="45.253506965432436" lon="3.762910761049636"><ele>992.5999999999999</ele><time>2026-05-01T13:31:44.001Z</time></trkpt><trkpt lat="45.25342290025996" lon="3.7628214973842637"><ele>993.0</ele><time>2026-05-01T13:31:45.001Z</time></trkpt><trkpt lat="45.2533076798411" lon="3.762715367482941"><ele>994.2</ele><time>2026-05-01T13:31:46.001Z</time></trkpt><trkpt lat="45.253250133510015" lon="3.7626123650070054"><ele>995.4</ele><time>2026-05-01T13:31:47Z</time></trkpt><trkpt lat="45.25322318663887" lon="3.762518326551724"><ele>996.6000000000001</ele><time>2026-05-01T13:31:48Z</time></trkpt><trkpt lat="45.25327417972239" lon="3.7623939802096604"><ele>997.8000000000001</ele><time>2026-05-01T13:31:50Z</time></trkpt><trkpt lat="45.253354027617576" lon="3.762362667030176"><ele>999.0</ele><time>2026-05-01T13:31:51Z</time></trkpt><trkpt lat="45.253457260633304" lon="3.7622980024297665"><ele>999.0</ele><time>2026-05-01T13:31:52Z</time></trkpt><trkpt lat="45.253580668588604" lon="3.7622061379650846"><ele>999.0</ele><time>2026-05-01T13:31:53Z</time></trkpt><trkpt lat="45.253686289298805" lon="3.762125723412758"><ele>999.0</ele><time>2026-05-01T13:31:54Z</time></trkpt><trkpt lat="45.25377006375459" lon="3.762046880035223"><ele>999.0</ele><time>2026-05-01T13:31:55Z</time></trkpt><trkpt lat="45.25385080366574" lon="3.761963821447167"><ele>999.25</ele><time>2026-05-01T13:31:56Z</time></trkpt><trkpt lat="45.253939515488675" lon="3.761832077850656"><ele>999.5</ele><time>2026-05-01T13:31:57Z</time></trkpt><trkpt lat="45.254029914685084" lon="3.7616652852717136"><ele>999.75</ele><time>2026-05-01T13:31:58Z</time></trkpt><trkpt lat="45.254114601694454" lon="3.7614752722989016"><ele>1000.0</ele><time>2026-05-01T13:31:59Z</time></trkpt><trkpt lat="45.254189283613684" lon="3.761310427611437"><ele>1001.25</ele><time>2026-05-01T13:32:00Z</time></trkpt><trkpt lat="45.25427946266204" lon="3.761147696491207"><ele>1002.5</ele><time>2026-05-01T13:32:01Z</time></trkpt><trkpt lat="45.25436388690929" lon="3.761015135213921"><ele>1003.75</ele><time>2026-05-01T13:32:02Z</time></trkpt><trkpt lat="45.25443049537618" lon="3.7608945067049637"><ele>1005.0</ele><time>2026-05-01T13:32:03Z</time></trkpt><trkpt lat="45.254503854659845" lon="3.7607724869580283"><ele>1005.0</ele><time>2026-05-01T13:32:04Z</time></trkpt><trkpt lat="45.254569581341975" lon="3.7606143357294948"><ele>1005.0</ele><time>2026-05-01T13:32:05Z</time></trkpt><trkpt lat="45.25463623054743" lon="3.7604436491914077"><ele>1005.0</ele><time>2026-05-01T13:32:06Z</time></trkpt><trkpt lat="45.254693507788595" lon="3.760298582925416"><ele>1005.0</ele><time>2026-05-01T13:32:07Z</time></trkpt><trkpt lat="45.25473716343169" lon="3.7601883916230032"><ele>1004.857142857143</ele><time>2026-05-01T13:32:08Z</time></trkpt><trkpt lat="45.25476180891537" lon="3.7600813584811505"><ele>1004.7142857142858</ele><time>2026-05-01T13:32:09Z</time></trkpt><trkpt lat="45.25478529313226" lon="3.759990784182385"><ele>1004.5714285714286</ele><time>2026-05-01T13:32:10Z</time></trkpt><trkpt lat="45.25482111298275" lon="3.7599065904001074"><ele>1004.4285714285714</ele><time>2026-05-01T13:32:11Z</time></trkpt><trkpt lat="45.254855581945726" lon="3.7598301129866427"><ele>1004.2857142857142</ele><time>2026-05-01T13:32:12Z</time></trkpt><trkpt lat="45.25489305153101" lon="3.759731100110086"><ele>1004.142857142857</ele><time>2026-05-01T13:32:13Z</time></trkpt><trkpt lat="45.25491585315733" lon="3.7596217124237725"><ele>1003.9999999999999</ele><time>2026-05-01T13:32:14Z</time></trkpt><trkpt lat="45.25491924346215" lon="3.7594846778994166"><ele>1005.8000000000001</ele><time>2026-05-01T13:32:15Z</time></trkpt><trkpt lat="45.25490314050632" lon="3.7593376639544047"><ele>1007.6000000000001</ele><time>2026-05-01T13:32:16Z</time></trkpt><trkpt lat="45.25489094510855" lon="3.75917254313012"><ele>1009.4</ele><time>2026-05-01T13:32:17Z</time></trkpt><trkpt lat="45.25490329090792" lon="3.75902688891727"><ele>1011.2</ele><time>2026-05-01T13:32:18Z</time></trkpt><trkpt lat="45.25492994038236" lon="3.758924858391527"><ele>1013.0</ele><time>2026-05-01T13:32:19Z</time></trkpt><trkpt lat="45.25497923449212" lon="3.7588235679164606"><ele>1013.0</ele><time>2026-05-01T13:32:20Z</time></trkpt><trkpt lat="45.25502415442503" lon="3.758710836452991"><ele>1013.0</ele><time>2026-05-01T13:32:21Z</time></trkpt><trkpt lat="45.25507339151716" lon="3.758580461814185"><ele>1013.0</ele><time>2026-05-01T13:32:22Z</time></trkpt><trkpt lat="45.25511603891214" lon="3.7583972789519793"><ele>1013.0</ele><time>2026-05-01T13:32:23Z</time></trkpt><trkpt lat="45.25518294845136" lon="3.758213700483243"><ele>1013.5</ele><time>2026-05-01T13:32:24Z</time></trkpt><trkpt lat="45.25524366551949" lon="3.7580276410965125"><ele>1014.0</ele><time>2026-05-01T13:32:25Z</time></trkpt><trkpt lat="45.255303666167194" lon="3.7579030540019294"><ele>1014.5</ele><time>2026-05-01T13:32:26Z</time></trkpt><trkpt lat="45.25537852717379" lon="3.7577742132901943"><ele>1015.0</ele><time>2026-05-01T13:32:27Z</time></trkpt><trkpt lat="45.25546076508281" lon="3.7576310463271607"><ele>1015.0</ele><time>2026-05-01T13:32:28Z</time></trkpt><trkpt lat="45.25553436747035" lon="3.757482409466462"><ele>1015.0</ele><time>2026-05-01T13:32:29Z</time></trkpt><trkpt lat="45.255611384344014" lon="3.7573230068505157"><ele>1015.0</ele><time>2026-05-01T13:32:30Z</time></trkpt><trkpt lat="45.25570067536201" lon="3.757144401196526"><ele>1015.0</ele><time>2026-05-01T13:32:31Z</time></trkpt><trkpt lat="45.25580326694193" lon="3.75694487080477"><ele>1015.3333333333333</ele><time>2026-05-01T13:32:32Z</time></trkpt><trkpt lat="45.255908372766264" lon="3.7567223472505518"><ele>1015.6666666666667</ele><time>2026-05-01T13:32:33Z</time></trkpt><trkpt lat="45.25601209645944" lon="3.7565073029379143"><ele>1016.0</ele><time>2026-05-01T13:32:34Z</time></trkpt><trkpt lat="45.25609450258824" lon="3.756337216235235"><ele>1016.0</ele><time>2026-05-01T13:32:35Z</time></trkpt><trkpt lat="45.25616661696379" lon="3.7561872070309783"><ele>1016.0</ele><time>2026-05-01T13:32:36Z</time></trkpt><trkpt lat="45.25624156034072" lon="3.756028078228443"><ele>1016.0</ele><time>2026-05-01T13:32:37Z</time></trkpt><trkpt lat="45.2562951392385" lon="3.755889023003447"><ele>1016.0</ele><time>2026-05-01T13:32:38Z</time></trkpt><trkpt lat="45.25632707598011" lon="3.7557755684810306"><ele>1017.5</ele><time>2026-05-01T13:32:39Z</time></trkpt><trkpt lat="45.256298040958036" lon="3.755621224481208"><ele>1019.0</ele><time>2026-05-01T13:32:41Z</time></trkpt><trkpt lat="45.25623269517568" lon="3.755543307777393"><ele>1020.5</ele><time>2026-05-01T13:32:42Z</time></trkpt><trkpt lat="45.25612605451693" lon="3.755443157337958"><ele>1022.0</ele><time>2026-05-01T13:32:43Z</time></trkpt><trkpt lat="45.25602071615823" lon="3.7552993755062243"><ele>1027.3333333333335</ele><time>2026-05-01T13:32:44Z</time></trkpt><trkpt lat="45.255905525441186" lon="3.7551419822123013"><ele>1032.6666666666667</ele><time>2026-05-01T13:32:45Z</time></trkpt><trkpt lat="45.255797301356274" lon="3.7549846228540025"><ele>1038.0</ele><time>2026-05-01T13:32:46Z</time></trkpt><trkpt lat="45.25567133149788" lon="3.7548059929744246"><ele>1037.5</ele><time>2026-05-01T13:32:47Z</time></trkpt><trkpt lat="45.25555841978453" lon="3.754631735071426"><ele>1037.0</ele><time>2026-05-01T13:32:48Z</time></trkpt><trkpt lat="45.25546923695696" lon="3.75444129903507"><ele>1036.5</ele><time>2026-05-01T13:32:49Z</time></trkpt><trkpt lat="45.25541836673506" lon="3.754298622567983"><ele>1036.0</ele><time>2026-05-01T13:32:50Z</time></trkpt><trkpt lat="45.25538523361248" lon="3.7541955993850413"><ele>1036.0</ele><time>2026-05-01T13:32:51Z</time></trkpt><trkpt lat="45.25535442130853" lon="3.7540856819710746"><ele>1036.0</ele><time>2026-05-01T13:32:52Z</time></trkpt><trkpt lat="45.25533869798322" lon="3.753973921054993"><ele>1036.0</ele><time>2026-05-01T13:32:53Z</time></trkpt><trkpt lat="45.2553273482734" lon="3.7538352940070636"><ele>1036.0</ele><time>2026-05-01T13:32:54Z</time></trkpt><trkpt lat="45.255327544713275" lon="3.7537114030166348"><ele>1036.0</ele><time>2026-05-01T13:32:55Z</time></trkpt><trkpt lat="45.2553458343397" lon="3.753578973261993"><ele>1036.0</ele><time>2026-05-01T13:32:57Z</time></trkpt><trkpt lat="45.25547996756657" lon="3.753576296066406"><ele>1036.0</ele><time>2026-05-01T13:32:59Z</time></trkpt><trkpt lat="45.25559571209593" lon="3.753575630643066"><ele>1036.0</ele><time>2026-05-01T13:33:00Z</time></trkpt><trkpt lat="45.25574538880925" lon="3.7535772770254208"><ele>1036.0</ele><time>2026-05-01T13:33:01Z</time></trkpt><trkpt lat="45.255919808304164" lon="3.753584304119649"><ele>1036.0</ele><time>2026-05-01T13:33:02Z</time></trkpt><trkpt lat="45.2561126983029" lon="3.7535856351395402"><ele>1039.3333333333333</ele><time>2026-05-01T13:33:03Z</time></trkpt><trkpt lat="45.256323764528865" lon="3.7535872320711325"><ele>1042.6666666666667</ele><time>2026-05-01T13:33:04Z</time></trkpt><trkpt lat="45.256549554019635" lon="3.753590149382875"><ele>1046.0</ele><time>2026-05-01T13:33:05Z</time></trkpt><trkpt lat="45.25679113238336" lon="3.753588749133109"><ele>1047.0</ele><time>2026-05-01T13:33:06Z</time></trkpt><trkpt lat="45.257036319479376" lon="3.7535802164324545"><ele>1048.0</ele><time>2026-05-01T13:33:07Z</time></trkpt><trkpt lat="45.257277517617986" lon="3.7535765120854387"><ele>1047.0</ele><time>2026-05-01T13:33:08Z</time></trkpt><trkpt lat="45.25748933083742" lon="3.753579994405617"><ele>1046.0</ele><time>2026-05-01T13:33:09Z</time></trkpt><trkpt lat="45.25766947305588" lon="3.753588911313663"><ele>1045.0</ele><time>2026-05-01T13:33:10Z</time></trkpt><trkpt lat="45.25782696026469" lon="3.7535948184357504"><ele>1045.0</ele><time>2026-05-01T13:33:11Z</time></trkpt><trkpt lat="45.25795059609378" lon="3.753625974857904"><ele>1045.0</ele><time>2026-05-01T13:33:12Z</time></trkpt><trkpt lat="45.2580739068463" lon="3.753684101415487"><ele>1045.0</ele><time>2026-05-01T13:33:13Z</time></trkpt><trkpt lat="45.25821947766584" lon="3.7537603864941684"><ele>1045.0</ele><time>2026-05-01T13:33:14Z</time></trkpt><trkpt lat="45.258380172686664" lon="3.753815229117383"><ele>1046.6666666666665</ele><time>2026-05-01T13:33:15Z</time></trkpt><trkpt lat="45.25853999221911" lon="3.7538817197727092"><ele>1048.3333333333333</ele><time>2026-05-01T13:33:16Z</time></trkpt><trkpt lat="45.258706746305286" lon="3.753957770113513"><ele>1050.0</ele><time>2026-05-01T13:33:17Z</time></trkpt><trkpt lat="45.25887238618922" lon="3.7540259314717703"><ele>1050.8333333333333</ele><time>2026-05-01T13:33:18Z</time></trkpt><trkpt lat="45.258965825510515" lon="3.7540807522326287"><ele>1051.6666666666667</ele><time>2026-05-01T13:33:19Z</time></trkpt><trkpt lat="45.25902671586202" lon="3.754107971565287"><ele>1052.5</ele><time>2026-05-01T13:33:20Z</time></trkpt><trkpt lat="45.25910124242866" lon="3.754139508879502"><ele>1053.3333333333335</ele><time>2026-05-01T13:33:21Z</time></trkpt><trkpt lat="45.25919249334843" lon="3.754176268059019"><ele>1054.1666666666667</ele><time>2026-05-01T13:33:22Z</time></trkpt><trkpt lat="45.259258634675966" lon="3.7542029121514178"><ele>1055.0</ele><time>2026-05-01T13:33:23Z</time></trkpt><trkpt lat="45.25935489713882" lon="3.7542350370833195"><ele>1055.0</ele><time>2026-05-01T13:33:24Z</time></trkpt><trkpt lat="45.25945401002344" lon="3.754271801714041"><ele>1055.0</ele><time>2026-05-01T13:33:25Z</time></trkpt><trkpt lat="45.25953312595226" lon="3.7543004410040304"><ele>1055.0</ele><time>2026-05-01T13:33:26Z</time></trkpt><trkpt lat="45.25964034217689" lon="3.754354498827503"><ele>1055.0</ele><time>2026-05-01T13:33:28Z</time></trkpt><trkpt lat="45.25972562065048" lon="3.7544048995650603"><ele>1055.0</ele><time>2026-05-01T13:33:29Z</time></trkpt><trkpt lat="45.25981065298792" lon="3.754461537201522"><ele>1053.75</ele><time>2026-05-01T13:33:30Z</time></trkpt><trkpt lat="45.2599111534553" lon="3.7545129891443088"><ele>1052.5</ele><time>2026-05-01T13:33:31Z</time></trkpt><trkpt lat="45.260031739738416" lon="3.754570550369705"><ele>1051.25</ele><time>2026-05-01T13:33:32Z</time></trkpt><trkpt lat="45.26015641348678" lon="3.7546038752597863"><ele>1050.0</ele><time>2026-05-01T13:33:33Z</time></trkpt><trkpt lat="45.26029012851924" lon="3.754613501859972"><ele>1050.0</ele><time>2026-05-01T13:33:34Z</time></trkpt><trkpt lat="45.26042204446509" lon="3.754620984015677"><ele>1050.0</ele><time>2026-05-01T13:33:35Z</time></trkpt><trkpt lat="45.26053661412397" lon="3.7546274828810047"><ele>1050.0</ele><time>2026-05-01T13:33:36Z</time></trkpt><trkpt lat="45.26066407422283" lon="3.7546278979445096"><ele>1050.0</ele><time>2026-05-01T13:33:37Z</time></trkpt><trkpt lat="45.26081825051948" lon="3.754625692135184"><ele>1047.0</ele><time>2026-05-01T13:33:38Z</time></trkpt><trkpt lat="45.26095534096251" lon="3.7546237307741075"><ele>1044.0</ele><time>2026-05-01T13:33:39Z</time></trkpt><trkpt lat="45.261080423512325" lon="3.754614723460868"><ele>1041.0</ele><time>2026-05-01T13:33:40Z</time></trkpt><trkpt lat="45.26118597035916" lon="3.7546265282807108"><ele>1038.0</ele><time>2026-05-01T13:33:41Z</time></trkpt><trkpt lat="45.261293927244175" lon="3.7546386026523924"><ele>1038.0</ele><time>2026-05-01T13:33:42.001Z</time></trkpt><trkpt lat="45.26142216450218" lon="3.7546367995912657"><ele>1038.0</ele><time>2026-05-01T13:33:43.001Z</time></trkpt><trkpt lat="45.26156111886233" lon="3.754642149966928"><ele>1038.0</ele><time>2026-05-01T13:33:44.001Z</time></trkpt><trkpt lat="45.26168087017146" lon="3.754646760937582"><ele>1038.0</ele><time>2026-05-01T13:33:45.001Z</time></trkpt><trkpt lat="45.261802073938185" lon="3.7546514278380188"><ele>1036.6</ele><time>2026-05-01T13:33:46.001Z</time></trkpt><trkpt lat="45.261921649367174" lon="3.7546560320369724"><ele>1035.1999999999998</ele><time>2026-05-01T13:33:47.001Z</time></trkpt><trkpt lat="45.2620444859624" lon="3.7546592125388343"><ele>1033.8</ele><time>2026-05-01T13:33:48.001Z</time></trkpt><trkpt lat="45.262148417124244" lon="3.75466010355901"><ele>1032.3999999999999</ele><time>2026-05-01T13:33:49.001Z</time></trkpt><trkpt lat="45.262237735642685" lon="3.7546642759468534"><ele>1031.0</ele><time>2026-05-01T13:33:50.001Z</time></trkpt><trkpt lat="45.26233078786022" lon="3.7546863267101833"><ele>1031.0</ele><time>2026-05-01T13:33:51.001Z</time></trkpt><trkpt lat="45.262406259531986" lon="3.754729274894504"><ele>1031.0</ele><time>2026-05-01T13:33:52.001Z</time></trkpt><trkpt lat="45.26247232073674" lon="3.7547886640210217"><ele>1031.0</ele><time>2026-05-01T13:33:53.001Z</time></trkpt><trkpt lat="45.262530862289246" lon="3.754877691604066"><ele>1031.0</ele><time>2026-05-01T13:33:54.001Z</time></trkpt><trkpt lat="45.26256067303655" lon="3.755007385969074"><ele>1031.0</ele><time>2026-05-01T13:33:55.001Z</time></trkpt><trkpt lat="45.26259221628737" lon="3.7551588714583004"><ele>1030.8</ele><time>2026-05-01T13:33:56.001Z</time></trkpt><trkpt lat="45.262641002183436" lon="3.7552974770554215"><ele>1030.6</ele><time>2026-05-01T13:33:57Z</time></trkpt><trkpt lat="45.2627028316278" lon="3.7554533706697963"><ele>1030.4</ele><time>2026-05-01T13:33:58Z</time></trkpt><trkpt lat="45.26275556463064" lon="3.755583407393483"><ele>1030.2</ele><time>2026-05-01T13:33:59Z</time></trkpt><trkpt lat="45.26280312884076" lon="3.7556799728543595"><ele>1030.0</ele><time>2026-05-01T13:34:00Z</time></trkpt><trkpt lat="45.262883995353285" lon="3.755728301283066"><ele>1030.0</ele><time>2026-05-01T13:34:02Z</time></trkpt><trkpt lat="45.26295215656094" lon="3.755731260796237"><ele>1030.0</ele><time>2026-05-01T13:34:03Z</time></trkpt><trkpt lat="45.263054516190294" lon="3.7557351539122625"><ele>1030.0</ele><time>2026-05-01T13:34:04Z</time></trkpt><trkpt lat="45.26318709992603" lon="3.7557398717211403"><ele>1030.0</ele><time>2026-05-01T13:34:05Z</time></trkpt><trkpt lat="45.26331685904124" lon="3.7557283999929916"><ele>1030.0</ele><time>2026-05-01T13:34:06Z</time></trkpt><trkpt lat="45.263445315337314" lon="3.7556808056793343"><ele>1031.5</ele><time>2026-05-01T13:34:07Z</time></trkpt><trkpt lat="45.263573629427256" lon="3.7556162140097604"><ele>1033.0</ele><time>2026-05-01T13:34:08Z</time></trkpt><trkpt lat="45.263702004623255" lon="3.7555560696860333"><ele>1034.5</ele><time>2026-05-01T13:34:09Z</time></trkpt><trkpt lat="45.26382425513312" lon="3.755511564452863"><ele>1036.0</ele><time>2026-05-01T13:34:10Z</time></trkpt><trkpt lat="45.263940470374386" lon="3.755466126523186"><ele>1036.6666666666665</ele><time>2026-05-01T13:34:11Z</time></trkpt><trkpt lat="45.26404561374109" lon="3.7554182168556647"><ele>1037.3333333333333</ele><time>2026-05-01T13:34:12Z</time></trkpt><trkpt lat="45.26413738003985" lon="3.7553790712165935"><ele>1038.0</ele><time>2026-05-01T13:34:13Z</time></trkpt><trkpt lat="45.26420151465746" lon="3.7553667347414934"><ele>1038.6666666666667</ele><time>2026-05-01T13:34:14Z</time></trkpt><trkpt lat="45.26427512523168" lon="3.7553902542308397"><ele>1039.3333333333335</ele><time>2026-05-01T13:34:15Z</time></trkpt><trkpt lat="45.26436504074105" lon="3.755422425777656"><ele>1040.0</ele><time>2026-05-01T13:34:16Z</time></trkpt><trkpt lat="45.26445103234863" lon="3.7554357025081484"><ele>1040.0</ele><time>2026-05-01T13:34:17Z</time></trkpt><trkpt lat="45.26455850891677" lon="3.7554193557669797"><ele>1040.0</ele><time>2026-05-01T13:34:19Z</time></trkpt><trkpt lat="45.2645929584164" lon="3.7553364492729466"><ele>1040.0</ele><time>2026-05-01T13:34:20Z</time></trkpt><trkpt lat="45.26461512127851" lon="3.7552391500450937"><ele>1040.0</ele><time>2026-05-01T13:34:21Z</time></trkpt><trkpt lat="45.26469342234329" lon="3.755188675776753"><ele>1040.0</ele><time>2026-05-01T13:34:23Z</time></trkpt><trkpt lat="45.26473044628798" lon="3.7552887920401985"><ele>1040.0</ele><time>2026-05-01T13:34:26Z</time></trkpt><trkpt lat="45.26479343081484" lon="3.755253706653366"><ele>1040.1428571428573</ele><time>2026-05-01T13:34:28Z</time></trkpt><trkpt lat="45.264864573917315" lon="3.755240180750842"><ele>1040.2857142857142</ele><time>2026-05-01T13:34:33Z</time></trkpt><trkpt lat="45.26479680483546" lon="3.7552158032897385"><ele>1040.4285714285716</ele><time>2026-05-01T13:34:53Z</time></trkpt><trkpt lat="45.264731919945675" lon="3.7552025765232826"><ele>1040.5714285714287</ele><time>2026-05-01T13:34:59Z</time></trkpt><trkpt lat="45.264807812596054" lon="3.7552271198262726"><ele>1040.7142857142858</ele><time>2026-05-01T13:35:06Z</time></trkpt><trkpt lat="45.264878152468945" lon="3.7552444698881517"><ele>1040.857142857143</ele><time>2026-05-01T13:40:28Z</time></trkpt><trkpt lat="45.26493540767655" lon="3.7551951636339"><ele>1041.0</ele><time>2026-05-01T13:40:33Z</time></trkpt><trkpt lat="45.264869933552106" lon="3.7552110798959397"><ele>1041.0</ele><time>2026-05-01T13:41:30Z</time></trkpt><trkpt lat="45.264796385412275" lon="3.7552271806265876"><ele>1041.0</ele><time>2026-05-01T13:42:25Z</time></trkpt><trkpt lat="45.26471597240698" lon="3.7552216107935528"><ele>1041.0</ele><time>2026-05-01T13:42:30Z</time></trkpt><trkpt lat="45.26464570407033" lon="3.755227768354282"><ele>1041.0</ele><time>2026-05-01T13:42:32Z</time></trkpt><trkpt lat="45.26460026180203" lon="3.7553094758617984"><ele>1041.0</ele><time>2026-05-01T13:42:34Z</time></trkpt><trkpt lat="45.264563729772384" lon="3.7555037337077426"><ele>1041.0</ele><time>2026-05-01T13:42:36Z</time></trkpt><trkpt lat="45.26455286079362" lon="3.7556579826653587"><ele>1040.75</ele><time>2026-05-01T13:42:37Z</time></trkpt><trkpt lat="45.26454953750989" lon="3.755800690816567"><ele>1040.5</ele><time>2026-05-01T13:42:38Z</time></trkpt><trkpt lat="45.26452882069689" lon="3.7559299524926586"><ele>1040.25</ele><time>2026-05-01T13:42:39Z</time></trkpt><trkpt lat="45.26452287024912" lon="3.756028576256663"><ele>1040.0</ele><time>2026-05-01T13:42:40Z</time></trkpt><trkpt lat="45.2646884492977" lon="3.756190217703152"><ele>1039.5</ele><time>2026-05-01T13:42:42Z</time></trkpt><trkpt lat="45.264814975027235" lon="3.756254588584062"><ele>1039.0</ele><time>2026-05-01T13:42:43Z</time></trkpt><trkpt lat="45.26494812227463" lon="3.7563149782464973"><ele>1038.5</ele><time>2026-05-01T13:42:44Z</time></trkpt><trkpt lat="45.26506624299197" lon="3.756332820142985"><ele>1038.0</ele><time>2026-05-01T13:42:45Z</time></trkpt><trkpt lat="45.265167073322665" lon="3.7563014416142906"><ele>1038.0</ele><time>2026-05-01T13:42:46Z</time></trkpt><trkpt lat="45.26524366159956" lon="3.756242995658769"><ele>1038.0</ele><time>2026-05-01T13:42:47Z</time></trkpt><trkpt lat="45.265329908746594" lon="3.756170910772403"><ele>1038.0</ele><time>2026-05-01T13:42:48Z</time></trkpt><trkpt lat="45.26544486325288" lon="3.7560985406640808"><ele>1038.0</ele><time>2026-05-01T13:42:49Z</time></trkpt><trkpt lat="45.26557829949542" lon="3.7560208761444915"><ele>1038.6666666666667</ele><time>2026-05-01T13:42:50Z</time></trkpt><trkpt lat="45.26572127198959" lon="3.7559647283649253"><ele>1039.3333333333335</ele><time>2026-05-01T13:42:51Z</time></trkpt><trkpt lat="45.26590085566635" lon="3.7559265090420353"><ele>1040.0</ele><time>2026-05-01T13:42:52Z</time></trkpt><trkpt lat="45.26606889324862" lon="3.755934913766334"><ele>1040.0</ele><time>2026-05-01T13:42:53Z</time></trkpt><trkpt lat="45.26622584794822" lon="3.755974531973148"><ele>1040.0</ele><time>2026-05-01T13:42:54Z</time></trkpt><trkpt lat="45.266375609807454" lon="3.7560231910756356"><ele>1040.0</ele><time>2026-05-01T13:42:55Z</time></trkpt><trkpt lat="45.266512634871944" lon="3.7561008173415185"><ele>1039.6666666666667</ele><time>2026-05-01T13:42:56Z</time></trkpt><trkpt lat="45.26662947594775" lon="3.756228036158829"><ele>1039.3333333333333</ele><time>2026-05-01T13:42:57Z</time></trkpt><trkpt lat="45.26675238988095" lon="3.75636386184468"><ele>1039.0</ele><time>2026-05-01T13:42:58Z</time></trkpt><trkpt lat="45.26688114066094" lon="3.756484508925527"><ele>1039.0</ele><time>2026-05-01T13:42:59Z</time></trkpt><trkpt lat="45.26701156417363" lon="3.7565852676460563"><ele>1039.0</ele><time>2026-05-01T13:43:00Z</time></trkpt><trkpt lat="45.2671280544618" lon="3.756658720527189"><ele>1039.0</ele><time>2026-05-01T13:43:01Z</time></trkpt><trkpt lat="45.26724485061264" lon="3.7567284647896133"><ele>1039.0</ele><time>2026-05-01T13:43:02Z</time></trkpt><trkpt lat="45.267361100064505" lon="3.756799851615886"><ele>1039.25</ele><time>2026-05-01T13:43:03Z</time></trkpt><trkpt lat="45.26746920938371" lon="3.756868082775964"><ele>1039.5</ele><time>2026-05-01T13:43:04Z</time></trkpt><trkpt lat="45.26755290696541" lon="3.7569689600988556"><ele>1039.75</ele><time>2026-05-01T13:43:05Z</time></trkpt><trkpt lat="45.267650198372316" lon="3.7570348050936264"><ele>1040.0</ele><time>2026-05-01T13:43:06Z</time></trkpt><trkpt lat="45.26774628053666" lon="3.7571338815756516"><ele>1039.5</ele><time>2026-05-01T13:43:07Z</time></trkpt><trkpt lat="45.267844970310364" lon="3.757233398810989"><ele>1039.0</ele><time>2026-05-01T13:43:08Z</time></trkpt><trkpt lat="45.26794453474329" lon="3.757336130496681"><ele>1038.5</ele><time>2026-05-01T13:43:09Z</time></trkpt><trkpt lat="45.268044410694905" lon="3.757442871106834"><ele>1038.0</ele><time>2026-05-01T13:43:10Z</time></trkpt><trkpt lat="45.26814747218702" lon="3.757558590883033"><ele>1038.0</ele><time>2026-05-01T13:43:11Z</time></trkpt><trkpt lat="45.268256562859975" lon="3.7576764863578607"><ele>1038.0</ele><time>2026-05-01T13:43:12Z</time></trkpt><trkpt lat="45.26836629551443" lon="3.7577871954258333"><ele>1038.0</ele><time>2026-05-01T13:43:13Z</time></trkpt><trkpt lat="45.26848285256702" lon="3.7578941405538466"><ele>1038.0</ele><time>2026-05-01T13:43:14Z</time></trkpt><trkpt lat="45.26859592376141" lon="3.7579995255517558"><ele>1037.5</ele><time>2026-05-01T13:43:15Z</time></trkpt><trkpt lat="45.26870819531608" lon="3.758099867184959"><ele>1037.0</ele><time>2026-05-01T13:43:16Z</time></trkpt><trkpt lat="45.268826070201314" lon="3.7582055947196484"><ele>1036.5</ele><time>2026-05-01T13:43:17Z</time></trkpt><trkpt lat="45.26893566307013" lon="3.7583023068709633"><ele>1036.0</ele><time>2026-05-01T13:43:18Z</time></trkpt><trkpt lat="45.26905022190075" lon="3.758386709592079"><ele>1035.3333333333333</ele><time>2026-05-01T13:43:19Z</time></trkpt><trkpt lat="45.26918768612392" lon="3.758471474543052"><ele>1034.6666666666667</ele><time>2026-05-01T13:43:20Z</time></trkpt><trkpt lat="45.269337253812985" lon="3.758574497347982"><ele>1034.0</ele><time>2026-05-01T13:43:21Z</time></trkpt><trkpt lat="45.2695071968415" lon="3.758697851431183"><ele>1033.3333333333335</ele><time>2026-05-01T13:43:22Z</time></trkpt><trkpt lat="45.26967829584419" lon="3.758829740509261"><ele>1032.6666666666667</ele><time>2026-05-01T13:43:23Z</time></trkpt><trkpt lat="45.26984618875754" lon="3.758949987768588"><ele>1032.0</ele><time>2026-05-01T13:43:24Z</time></trkpt><trkpt lat="45.270000334051005" lon="3.7590519022224727"><ele>1029.6666666666667</ele><time>2026-05-01T13:43:25Z</time></trkpt><trkpt lat="45.27015689988657" lon="3.759138228188594"><ele>1027.3333333333335</ele><time>2026-05-01T13:43:26Z</time></trkpt><trkpt lat="45.27031268040334" lon="3.759202199241512"><ele>1025.0</ele><time>2026-05-01T13:43:26.999Z</time></trkpt><trkpt lat="45.270471129782436" lon="3.7592437785718293"><ele>1022.6666666666667</ele><time>2026-05-01T13:43:27.999Z</time></trkpt><trkpt lat="45.2706201517917" lon="3.759306111983879"><ele>1020.3333333333333</ele><time>2026-05-01T13:43:28.999Z</time></trkpt><trkpt lat="45.27075710282761" lon="3.7593980094038293"><ele>1018.0</ele><time>2026-05-01T13:43:29.999Z</time></trkpt><trkpt lat="45.270895352638874" lon="3.759498396104438"><ele>1017.5</ele><time>2026-05-01T13:43:30.999Z</time></trkpt><trkpt lat="45.27103293297209" lon="3.75958138473357"><ele>1017.0</ele><time>2026-05-01T13:43:31.999Z</time></trkpt><trkpt lat="45.27116589048873" lon="3.7596347460301467"><ele>1016.5</ele><time>2026-05-01T13:43:32.999Z</time></trkpt><trkpt lat="45.27130580159946" lon="3.7596729102372635"><ele>1016.0</ele><time>2026-05-01T13:43:33.999Z</time></trkpt><trkpt lat="45.2714452729783" lon="3.759689866518281"><ele>1014.25</ele><time>2026-05-01T13:43:34.999Z</time></trkpt><trkpt lat="45.27157947020197" lon="3.7597040196857887"><ele>1012.5</ele><time>2026-05-01T13:43:35.999Z</time></trkpt><trkpt lat="45.27170889996133" lon="3.759735508000511"><ele>1010.75</ele><time>2026-05-01T13:43:36.999Z</time></trkpt><trkpt lat="45.27181263868615" lon="3.759838208593736"><ele>1009.0</ele><time>2026-05-01T13:43:37.999Z</time></trkpt><trkpt lat="45.27193248507496" lon="3.759919522673777"><ele>1009.0</ele><time>2026-05-01T13:43:38.999Z</time></trkpt><trkpt lat="45.272029428671" lon="3.7600312703871155"><ele>1009.0</ele><time>2026-05-01T13:43:39.999Z</time></trkpt><trkpt lat="45.27212388511063" lon="3.760169019572853"><ele>1009.0</ele><time>2026-05-01T13:43:40.999Z</time></trkpt><trkpt lat="45.272217644422895" lon="3.7603174998649367"><ele>1009.0</ele><time>2026-05-01T13:43:41.999Z</time></trkpt><trkpt lat="45.27229890525243" lon="3.760485117991252"><ele>1007.0</ele><time>2026-05-01T13:43:42.999Z</time></trkpt><trkpt lat="45.272367516144826" lon="3.7606558244768875"><ele>1005.0</ele><time>2026-05-01T13:43:43.999Z</time></trkpt><trkpt lat="45.272428529346534" lon="3.760840339626032"><ele>1003.0</ele><time>2026-05-01T13:43:44.999Z</time></trkpt><trkpt lat="45.27247932013112" lon="3.7610360835444423"><ele>1001.0</ele><time>2026-05-01T13:43:45.999Z</time></trkpt><trkpt lat="45.27253721893546" lon="3.761230914668219"><ele>1001.0</ele><time>2026-05-01T13:43:46.999Z</time></trkpt><trkpt lat="45.272593103209104" lon="3.7614257163923943"><ele>1001.0</ele><time>2026-05-01T13:43:47.999Z</time></trkpt><trkpt lat="45.27263592022876" lon="3.761619914256798"><ele>1001.0</ele><time>2026-05-01T13:43:48.999Z</time></trkpt><trkpt lat="45.2726398903824" lon="3.7618129334024357"><ele>1001.0</ele><time>2026-05-01T13:43:49.999Z</time></trkpt><trkpt lat="45.27263204148034" lon="3.762015540385193"><ele>1000.75</ele><time>2026-05-01T13:43:50.999Z</time></trkpt><trkpt lat="45.27261889551446" lon="3.7622106615076722"><ele>1000.5</ele><time>2026-05-01T13:43:51.999Z</time></trkpt><trkpt lat="45.27260443515579" lon="3.762406267315973"><ele>1000.25</ele><time>2026-05-01T13:43:52.999Z</time></trkpt><trkpt lat="45.2725901223228" lon="3.7625894474839203"><ele>1000.0</ele><time>2026-05-01T13:43:53.999Z</time></trkpt><trkpt lat="45.27258772249695" lon="3.7627619450525525"><ele>998.25</ele><time>2026-05-01T13:43:54.999Z</time></trkpt><trkpt lat="45.27260190661843" lon="3.7629302281446653"><ele>996.5</ele><time>2026-05-01T13:43:55.999Z</time></trkpt><trkpt lat="45.27262504109008" lon="3.763103678604676"><ele>994.75</ele><time>2026-05-01T13:43:56.999Z</time></trkpt><trkpt lat="45.27265623988576" lon="3.7632587243268385"><ele>993.0</ele><time>2026-05-01T13:43:57.999Z</time></trkpt><trkpt lat="45.27270874248436" lon="3.763391407166746"><ele>993.0</ele><time>2026-05-01T13:43:58.999Z</time></trkpt><trkpt lat="45.27279029265021" lon="3.7634934353792766"><ele>993.0</ele><time>2026-05-01T13:43:59.999Z</time></trkpt><trkpt lat="45.272891129331114" lon="3.7635709921790568"><ele>993.0</ele><time>2026-05-01T13:44:00.999Z</time></trkpt><trkpt lat="45.27299351984458" lon="3.7636540096486484"><ele>993.0</ele><time>2026-05-01T13:44:01.999Z</time></trkpt><trkpt lat="45.27307668088686" lon="3.7637689443892333"><ele>993.0</ele><time>2026-05-01T13:44:02.999Z</time></trkpt><trkpt lat="45.273147391161245" lon="3.7639001598061927"><ele>993.0</ele><time>2026-05-01T13:44:03.999Z</time></trkpt><trkpt lat="45.273219228026534" lon="3.7640288881024837"><ele>993.0</ele><time>2026-05-01T13:44:04.999Z</time></trkpt><trkpt lat="45.27331248705315" lon="3.7641258245606948"><ele>993.0</ele><time>2026-05-01T13:44:05.999Z</time></trkpt><trkpt lat="45.27342374227544" lon="3.7641875833526934"><ele>993.0</ele><time>2026-05-01T13:44:06.999Z</time></trkpt><trkpt lat="45.27355432662134" lon="3.764252306460437"><ele>993.0</ele><time>2026-05-01T13:44:07.999Z</time></trkpt><trkpt lat="45.27369655921893" lon="3.7643306330039366"><ele>993.0</ele><time>2026-05-01T13:44:08.999Z</time></trkpt><trkpt lat="45.273840846189195" lon="3.76441734460551"><ele>993.0</ele><time>2026-05-01T13:44:09.999Z</time></trkpt><trkpt lat="45.27397942512623" lon="3.7645063852734855"><ele>990.5</ele><time>2026-05-01T13:44:10.999Z</time></trkpt><trkpt lat="45.27411001325309" lon="3.7645982294425937"><ele>988.0</ele><time>2026-05-01T13:44:12Z</time></trkpt><trkpt lat="45.274240302444035" lon="3.7646517520074356"><ele>985.5</ele><time>2026-05-01T13:44:13Z</time></trkpt><trkpt lat="45.27436633482512" lon="3.76472133514186"><ele>983.0</ele><time>2026-05-01T13:44:14Z</time></trkpt><trkpt lat="45.27445964451169" lon="3.7647794978082465"><ele>983.0</ele><time>2026-05-01T13:44:15Z</time></trkpt><trkpt lat="45.27455625478452" lon="3.7648330684602453"><ele>983.0</ele><time>2026-05-01T13:44:16Z</time></trkpt><trkpt lat="45.274648124358386" lon="3.764887777302508"><ele>983.0</ele><time>2026-05-01T13:44:17Z</time></trkpt><trkpt lat="45.2747206579844" lon="3.764946458523042"><ele>983.0</ele><time>2026-05-01T13:44:18Z</time></trkpt><trkpt lat="45.27478672553039" lon="3.7650134012122076"><ele>983.0</ele><time>2026-05-01T13:44:19Z</time></trkpt><trkpt lat="45.27484751174495" lon="3.7650941448510937"><ele>983.0</ele><time>2026-05-01T13:44:20Z</time></trkpt><trkpt lat="45.274909205997744" lon="3.765169995592765"><ele>983.0</ele><time>2026-05-01T13:44:21Z</time></trkpt><trkpt lat="45.274999660604045" lon="3.76523500779257"><ele>983.0</ele><time>2026-05-01T13:44:22Z</time></trkpt><trkpt lat="45.275087754423595" lon="3.765301186622959"><ele>983.0</ele><time>2026-05-01T13:44:23Z</time></trkpt><trkpt lat="45.27520795862852" lon="3.7652777353949713"><ele>983.0</ele><time>2026-05-01T13:44:24Z</time></trkpt><trkpt lat="45.27531936950919" lon="3.7652909878210594"><ele>983.0</ele><time>2026-05-01T13:44:25Z</time></trkpt><trkpt lat="45.275441203356884" lon="3.765302540037533"><ele>983.0</ele><time>2026-05-01T13:44:26Z</time></trkpt><trkpt lat="45.27555121418524" lon="3.7653221248698543"><ele>983.0</ele><time>2026-05-01T13:44:27Z</time></trkpt><trkpt lat="45.27564051944772" lon="3.7653687260589974"><ele>983.0</ele><time>2026-05-01T13:44:28Z</time></trkpt><trkpt lat="45.27568532763149" lon="3.7654848167173296"><ele>983.0</ele><time>2026-05-01T13:44:29Z</time></trkpt><trkpt lat="45.27575089375701" lon="3.7655812492091"><ele>983.8333333333334</ele><time>2026-05-01T13:44:30Z</time></trkpt><trkpt lat="45.2757961331692" lon="3.7656899275193085"><ele>984.6666666666667</ele><time>2026-05-01T13:44:31Z</time></trkpt><trkpt lat="45.275851419486926" lon="3.765773384556889"><ele>985.5</ele><time>2026-05-01T13:44:32Z</time></trkpt><trkpt lat="45.27588818044984" lon="3.765856137798021"><ele>986.3333333333333</ele><time>2026-05-01T13:44:33Z</time></trkpt><trkpt lat="45.27599620423723" lon="3.765874092555179"><ele>987.1666666666666</ele><time>2026-05-01T13:44:34Z</time></trkpt><trkpt lat="45.27608575435636" lon="3.7658990997835993"><ele>988.0</ele><time>2026-05-01T13:44:35Z</time></trkpt><trkpt lat="45.27619580829593" lon="3.76583328924575"><ele>988.0</ele><time>2026-05-01T13:44:37Z</time></trkpt><trkpt lat="45.27625314242493" lon="3.7657538903083325"><ele>988.0</ele><time>2026-05-01T13:44:38Z</time></trkpt><trkpt lat="45.276316319239235" lon="3.765702825818118"><ele>988.0</ele><time>2026-05-01T13:44:39Z</time></trkpt><trkpt lat="45.27637938261725" lon="3.765707267072101"><ele>988.0</ele><time>2026-05-01T13:44:40Z</time></trkpt><trkpt lat="45.276453132593296" lon="3.7657071270302076"><ele>988.0</ele><time>2026-05-01T13:44:41Z</time></trkpt><trkpt lat="45.276522894755736" lon="3.765698910766076"><ele>988.0</ele><time>2026-05-01T13:44:42Z</time></trkpt><trkpt lat="45.27659435609018" lon="3.7657422479151963"><ele>988.0</ele><time>2026-05-01T13:44:43Z</time></trkpt><trkpt lat="45.2766681526985" lon="3.765792656636925"><ele>989.0</ele><time>2026-05-01T13:44:44Z</time></trkpt><trkpt lat="45.276756799794676" lon="3.7658189546958987"><ele>990.0</ele><time>2026-05-01T13:44:45Z</time></trkpt><trkpt lat="45.276848909657524" lon="3.76586633082061"><ele>991.0</ele><time>2026-05-01T13:44:46Z</time></trkpt><trkpt lat="45.276903574707895" lon="3.7659605801770435"><ele>992.0</ele><time>2026-05-01T13:44:47Z</time></trkpt><trkpt lat="45.276962061713185" lon="3.7660791276934247"><ele>993.0</ele><time>2026-05-01T13:44:48Z</time></trkpt><trkpt lat="45.27705333849263" lon="3.7661790677489955"><ele>993.0</ele><time>2026-05-01T13:44:49Z</time></trkpt><trkpt lat="45.27716743560363" lon="3.7662724038760853"><ele>993.0</ele><time>2026-05-01T13:44:50Z</time></trkpt><trkpt lat="45.27729216478762" lon="3.7663827586748497"><ele>993.0</ele><time>2026-05-01T13:44:51Z</time></trkpt><trkpt lat="45.27741958908769" lon="3.766464928816078"><ele>993.0</ele><time>2026-05-01T13:44:52Z</time></trkpt><trkpt lat="45.27756323094441" lon="3.7665427743533715"><ele>993.4</ele><time>2026-05-01T13:44:53Z</time></trkpt><trkpt lat="45.27769709854155" lon="3.766626597388092"><ele>993.8</ele><time>2026-05-01T13:44:54Z</time></trkpt><trkpt lat="45.277794255753996" lon="3.7666944159173417"><ele>994.2</ele><time>2026-05-01T13:44:55Z</time></trkpt><trkpt lat="45.27787673519306" lon="3.7667686181485065"><ele>994.6</ele><time>2026-05-01T13:44:56Z</time></trkpt><trkpt lat="45.27794667801417" lon="3.766856430407934"><ele>995.0</ele><time>2026-05-01T13:44:57Z</time></trkpt><trkpt lat="45.27801705193223" lon="3.766876935312094"><ele>995.0</ele><time>2026-05-01T13:44:58Z</time></trkpt><trkpt lat="45.27798439622965" lon="3.767097221505196"><ele>995.0</ele><time>2026-05-01T13:44:59Z</time></trkpt><trkpt lat="45.27798085588085" lon="3.767260523729169"><ele>995.0</ele><time>2026-05-01T13:45:00Z</time></trkpt><trkpt lat="45.27798777153419" lon="3.7674444329015757"><ele>995.0</ele><time>2026-05-01T13:45:01Z</time></trkpt><trkpt lat="45.277985099719004" lon="3.7676603394800643"><ele>997.0</ele><time>2026-05-01T13:45:02Z</time></trkpt><trkpt lat="45.27798480780178" lon="3.7679021314272187"><ele>999.0</ele><time>2026-05-01T13:45:03Z</time></trkpt><trkpt lat="45.27797747834582" lon="3.7681742396610587"><ele>1001.0</ele><time>2026-05-01T13:45:04Z</time></trkpt><trkpt lat="45.27795605025291" lon="3.7684393621926686"><ele>1004.6666666666667</ele><time>2026-05-01T13:45:05Z</time></trkpt><trkpt lat="45.27789690642389" lon="3.7686321426770286"><ele>1008.3333333333333</ele><time>2026-05-01T13:45:06Z</time></trkpt><trkpt lat="45.27782910703003" lon="3.768825481287655"><ele>1012.0</ele><time>2026-05-01T13:45:07Z</time></trkpt><trkpt lat="45.27773847486756" lon="3.7690526251581664"><ele>1012.0</ele><time>2026-05-01T13:45:08Z</time></trkpt><trkpt lat="45.277657245885514" lon="3.7692970785736803"><ele>1012.0</ele><time>2026-05-01T13:45:09Z</time></trkpt><trkpt lat="45.277553948839746" lon="3.769534479151461"><ele>1012.0</ele><time>2026-05-01T13:45:10Z</time></trkpt><trkpt lat="45.277443781241985" lon="3.769788481234198"><ele>1010.6666666666666</ele><time>2026-05-01T13:45:11Z</time></trkpt><trkpt lat="45.27733568068466" lon="3.770006083660703"><ele>1009.3333333333333</ele><time>2026-05-01T13:45:12Z</time></trkpt><trkpt lat="45.27723519308606" lon="3.770212136057649"><ele>1008.0</ele><time>2026-05-01T13:45:13Z</time></trkpt><trkpt lat="45.2771632897024" lon="3.770390850785369"><ele>1008.0</ele><time>2026-05-01T13:45:14Z</time></trkpt><trkpt lat="45.27712271774647" lon="3.7705705801095126"><ele>1008.0</ele><time>2026-05-01T13:45:15Z</time></trkpt><trkpt lat="45.27710183030692" lon="3.770791519171671"><ele>1008.0</ele><time>2026-05-01T13:45:16Z</time></trkpt><trkpt lat="45.27709980415225" lon="3.7710751208253734"><ele>1008.0</ele><time>2026-05-01T13:45:17Z</time></trkpt><trkpt lat="45.27710552776582" lon="3.7713834561429387"><ele>1008.0</ele><time>2026-05-01T13:45:18Z</time></trkpt><trkpt lat="45.27708312929665" lon="3.77168787049779"><ele>1008.0</ele><time>2026-05-01T13:45:19Z</time></trkpt><trkpt lat="45.277080394207026" lon="3.772003127490652"><ele>1008.0</ele><time>2026-05-01T13:45:20Z</time></trkpt><trkpt lat="45.277064411596776" lon="3.7723039610948144"><ele>1008.0</ele><time>2026-05-01T13:45:21Z</time></trkpt><trkpt lat="45.27705083664279" lon="3.7725974801239643"><ele>1008.0</ele><time>2026-05-01T13:45:22Z</time></trkpt><trkpt lat="45.277034816529145" lon="3.772856463975654"><ele>1009.0</ele><time>2026-05-01T13:45:23Z</time></trkpt><trkpt lat="45.277022722003316" lon="3.773138163977115"><ele>1010.0</ele><time>2026-05-01T13:45:24Z</time></trkpt><trkpt lat="45.27701523588015" lon="3.773433920659609"><ele>1011.0</ele><time>2026-05-01T13:45:25Z</time></trkpt><trkpt lat="45.277008923128115" lon="3.773723471388384"><ele>1013.0</ele><time>2026-05-01T13:45:26Z</time></trkpt><trkpt lat="45.2770113681804" lon="3.774008873255464"><ele>1015.0</ele><time>2026-05-01T13:45:27Z</time></trkpt><trkpt lat="45.277003227538266" lon="3.774245973241197"><ele>1017.0</ele><time>2026-05-01T13:45:28Z</time></trkpt><trkpt lat="45.27700090995163" lon="3.7744624017781283"><ele>1019.0</ele><time>2026-05-01T13:45:29Z</time></trkpt><trkpt lat="45.277021866665216" lon="3.7746851221667046"><ele>1021.0</ele><time>2026-05-01T13:45:30Z</time></trkpt><trkpt lat="45.277094450414175" lon="3.774950804874049"><ele>1023.0</ele><time>2026-05-01T13:45:31Z</time></trkpt><trkpt lat="45.277173091258895" lon="3.7752255042902823"><ele>1027.3333333333333</ele><time>2026-05-01T13:45:32Z</time></trkpt><trkpt lat="45.27726999800547" lon="3.7755050099969365"><ele>1031.6666666666665</ele><time>2026-05-01T13:45:33Z</time></trkpt><trkpt lat="45.27736810921932" lon="3.775728140722713"><ele>1036.0</ele><time>2026-05-01T13:45:34Z</time></trkpt><trkpt lat="45.27748059258114" lon="3.775928267017886"><ele>1039.0</ele><time>2026-05-01T13:45:35Z</time></trkpt><trkpt lat="45.277595209489746" lon="3.7761197306276104"><ele>1042.0</ele><time>2026-05-01T13:45:36Z</time></trkpt><trkpt lat="45.277712842429224" lon="3.7762843339581202"><ele>1045.0</ele><time>2026-05-01T13:45:37Z</time></trkpt><trkpt lat="45.277838335153774" lon="3.776413501156337"><ele>1045.0</ele><time>2026-05-01T13:45:38Z</time></trkpt><trkpt lat="45.277964337072405" lon="3.7765196609079346"><ele>1045.0</ele><time>2026-05-01T13:45:39Z</time></trkpt><trkpt lat="45.278099437204624" lon="3.7765922726748062"><ele>1045.0</ele><time>2026-05-01T13:45:40Z</time></trkpt><trkpt lat="45.27824705222517" lon="3.776618866691852"><ele>1045.0</ele><time>2026-05-01T13:45:41Z</time></trkpt><trkpt lat="45.27840618087633" lon="3.776600629541076"><ele>1045.25</ele><time>2026-05-01T13:45:42Z</time></trkpt><trkpt lat="45.27857056805887" lon="3.776560010011235"><ele>1045.5</ele><time>2026-05-01T13:45:43Z</time></trkpt><trkpt lat="45.27870802562033" lon="3.7765185739062095"><ele>1045.75</ele><time>2026-05-01T13:45:44Z</time></trkpt><trkpt lat="45.27881785035041" lon="3.776536167511903"><ele>1046.0</ele><time>2026-05-01T13:45:45Z</time></trkpt><trkpt lat="45.2789044958428" lon="3.776631496519333"><ele>1049.0</ele><time>2026-05-01T13:45:45.999Z</time></trkpt><trkpt lat="45.27897190102973" lon="3.776761555219871"><ele>1052.0</ele><time>2026-05-01T13:45:46.999Z</time></trkpt><trkpt lat="45.27906807092312" lon="3.776898444417569"><ele>1055.0</ele><time>2026-05-01T13:45:47.999Z</time></trkpt><trkpt lat="45.27916623872689" lon="3.7770674679828207"><ele>1058.0</ele><time>2026-05-01T13:45:48.999Z</time></trkpt><trkpt lat="45.27925427126685" lon="3.7772444902909577"><ele>1058.75</ele><time>2026-05-01T13:45:49.999Z</time></trkpt><trkpt lat="45.27931394396607" lon="3.7773453527730694"><ele>1059.5</ele><time>2026-05-01T13:45:50.999Z</time></trkpt><trkpt lat="45.2793895217493" lon="3.777473096640926"><ele>1060.25</ele><time>2026-05-01T13:45:52.999Z</time></trkpt><trkpt lat="45.27946395985232" lon="3.777598911653999"><ele>1061.0</ele><time>2026-05-01T13:45:54.999Z</time></trkpt><trkpt lat="45.27962317363513" lon="3.7776338174497877"><ele>1061.0</ele><time>2026-05-01T13:45:55.999Z</time></trkpt><trkpt lat="45.27975415535105" lon="3.777758504470391"><ele>1061.0</ele><time>2026-05-01T13:45:56.999Z</time></trkpt><trkpt lat="45.27986518014282" lon="3.7778744948669662"><ele>1061.0</ele><time>2026-05-01T13:45:57.999Z</time></trkpt><trkpt lat="45.2799617292813" lon="3.777992552493509"><ele>1061.0</ele><time>2026-05-01T13:45:58.999Z</time></trkpt><trkpt lat="45.28006492317203" lon="3.7781324544621393"><ele>1061.0</ele><time>2026-05-01T13:45:59.999Z</time></trkpt><trkpt lat="45.28013753027663" lon="3.778309052979285"><ele>1061.0</ele><time>2026-05-01T13:46:00.999Z</time></trkpt><trkpt lat="45.28019747561174" lon="3.778532143957805"><ele>1061.0</ele><time>2026-05-01T13:46:01.999Z</time></trkpt><trkpt lat="45.280247660033254" lon="3.7788301956896495"><ele>1061.0</ele><time>2026-05-01T13:46:02.999Z</time></trkpt><trkpt lat="45.280307165077545" lon="3.779094560263254"><ele>1061.0</ele><time>2026-05-01T13:46:03.999Z</time></trkpt><trkpt lat="45.2803693888222" lon="3.7793336241262407"><ele>1061.0</ele><time>2026-05-01T13:46:04.999Z</time></trkpt><trkpt lat="45.28045516650407" lon="3.7795463941242544"><ele>1061.0</ele><time>2026-05-01T13:46:05.999Z</time></trkpt><trkpt lat="45.28054065741" lon="3.779757615494022"><ele>1061.0</ele><time>2026-05-01T13:46:06.999Z</time></trkpt><trkpt lat="45.28062034324692" lon="3.7799533176430047"><ele>1061.0</ele><time>2026-05-01T13:46:07.999Z</time></trkpt><trkpt lat="45.2806789120454" lon="3.7801330054644344"><ele>1055.0</ele><time>2026-05-01T13:46:08.999Z</time></trkpt><trkpt lat="45.2807497849932" lon="3.780331328856964"><ele>1049.0</ele><time>2026-05-01T13:46:09.999Z</time></trkpt><trkpt lat="45.28080445691448" lon="3.780531502357697"><ele>1043.0</ele><time>2026-05-01T13:46:10.999Z</time></trkpt><trkpt lat="45.280849066208496" lon="3.7807247184993167"><ele>1043.0</ele><time>2026-05-01T13:46:11.999Z</time></trkpt><trkpt lat="45.28089031580335" lon="3.7808956833220826"><ele>1043.0</ele><time>2026-05-01T13:46:12.999Z</time></trkpt><trkpt lat="45.2809304469311" lon="3.781077674679864"><ele>1043.0</ele><time>2026-05-01T13:46:13.999Z</time></trkpt><trkpt lat="45.28097135365088" lon="3.7812964919007688"><ele>1043.0</ele><time>2026-05-01T13:46:14.999Z</time></trkpt><trkpt lat="45.28102858416722" lon="3.7815034868192483"><ele>1043.0</ele><time>2026-05-01T13:46:15.999Z</time></trkpt><trkpt lat="45.281034582438004" lon="3.7816868889331965"><ele>1043.0</ele><time>2026-05-01T13:46:16.999Z</time></trkpt><trkpt lat="45.281032217423366" lon="3.7818942594520397"><ele>1043.0</ele><time>2026-05-01T13:46:18Z</time></trkpt><trkpt lat="45.281037079469485" lon="3.782110189809945"><ele>1043.0</ele><time>2026-05-01T13:46:19Z</time></trkpt><trkpt lat="45.28106555728808" lon="3.782358254476231"><ele>1043.0</ele><time>2026-05-01T13:46:20Z</time></trkpt><trkpt lat="45.28111732804513" lon="3.7826123744916123"><ele>1043.0</ele><time>2026-05-01T13:46:21Z</time></trkpt><trkpt lat="45.281153453812834" lon="3.7828396997175546"><ele>1043.0</ele><time>2026-05-01T13:46:22Z</time></trkpt><trkpt lat="45.28116122178898" lon="3.783044622793113"><ele>1042.25</ele><time>2026-05-01T13:46:23Z</time></trkpt><trkpt lat="45.28118116685509" lon="3.7832634722185383"><ele>1041.5</ele><time>2026-05-01T13:46:24Z</time></trkpt><trkpt lat="45.2812035437222" lon="3.783454948592857"><ele>1040.75</ele><time>2026-05-01T13:46:25Z</time></trkpt><trkpt lat="45.281231341395795" lon="3.783649710944201"><ele>1040.0</ele><time>2026-05-01T13:46:26Z</time></trkpt><trkpt lat="45.281227055945514" lon="3.783840490898667"><ele>1038.0</ele><time>2026-05-01T13:46:27Z</time></trkpt><trkpt lat="45.28121457797961" lon="3.78402343370184"><ele>1036.0</ele><time>2026-05-01T13:46:28Z</time></trkpt><trkpt lat="45.28118536419249" lon="3.784181665458557"><ele>1034.0</ele><time>2026-05-01T13:46:29Z</time></trkpt><trkpt lat="45.28113311799196" lon="3.7843434230080986"><ele>1032.0</ele><time>2026-05-01T13:46:30Z</time></trkpt><trkpt lat="45.281097725086575" lon="3.7845126519475847"><ele>1027.6666666666667</ele><time>2026-05-01T13:46:31Z</time></trkpt><trkpt lat="45.28104568091736" lon="3.784722517169191"><ele>1023.3333333333334</ele><time>2026-05-01T13:46:32Z</time></trkpt><trkpt lat="45.28097183699103" lon="3.7849375061081383"><ele>1019.0</ele><time>2026-05-01T13:46:33Z</time></trkpt><trkpt lat="45.28092183234207" lon="3.785172415042972"><ele>1018.0</ele><time>2026-05-01T13:46:34Z</time></trkpt><trkpt lat="45.2808719471216" lon="3.785396013597432"><ele>1017.0</ele><time>2026-05-01T13:46:35Z</time></trkpt><trkpt lat="45.28082568105309" lon="3.7855974366880907"><ele>1016.0</ele><time>2026-05-01T13:46:36Z</time></trkpt><trkpt lat="45.28078334309052" lon="3.7857978680363793"><ele>1016.0</ele><time>2026-05-01T13:46:37Z</time></trkpt><trkpt lat="45.280763380076834" lon="3.78598939803013"><ele>1016.0</ele><time>2026-05-01T13:46:38Z</time></trkpt><trkpt lat="45.28072602168356" lon="3.7861630681847855"><ele>1016.0</ele><time>2026-05-01T13:46:39Z</time></trkpt><trkpt lat="45.280707843194286" lon="3.7863018011143827"><ele>1016.0</ele><time>2026-05-01T13:46:40Z</time></trkpt><trkpt lat="45.28070259299672" lon="3.7864272379616573"><ele>1015.0</ele><time>2026-05-01T13:46:41Z</time></trkpt><trkpt lat="45.28070622014047" lon="3.786549140379233"><ele>1013.9999999999999</ele><time>2026-05-01T13:46:42Z</time></trkpt><trkpt lat="45.28071066132463" lon="3.786655517158976"><ele>1012.9999999999999</ele><time>2026-05-01T13:46:43Z</time></trkpt><trkpt lat="45.2807472361087" lon="3.786755153186484"><ele>1012.0</ele><time>2026-05-01T13:46:44Z</time></trkpt><trkpt lat="45.2808581886679" lon="3.786836295738192"><ele>1011.0</ele><time>2026-05-01T13:46:46Z</time></trkpt><trkpt lat="45.2809793901311" lon="3.7869330962820316"><ele>1009.25</ele><time>2026-05-01T13:46:48Z</time></trkpt><trkpt lat="45.281077763733606" lon="3.7870089704442456"><ele>1007.5</ele><time>2026-05-01T13:46:49Z</time></trkpt><trkpt lat="45.2811922926926" lon="3.787077394318126"><ele>1005.75</ele><time>2026-05-01T13:46:50Z</time></trkpt><trkpt lat="45.2813229802337" lon="3.7871569077564957"><ele>1004.0</ele><time>2026-05-01T13:46:51Z</time></trkpt><trkpt lat="45.28145031362846" lon="3.787240503793292"><ele>1003.0</ele><time>2026-05-01T13:46:52Z</time></trkpt><trkpt lat="45.28155630918763" lon="3.7873136063775683"><ele>1002.0000000000001</ele><time>2026-05-01T13:46:53Z</time></trkpt><trkpt lat="45.28165281271796" lon="3.787375739243291"><ele>1001.0000000000001</ele><time>2026-05-01T13:46:54Z</time></trkpt><trkpt lat="45.281734864188486" lon="3.787430958932195"><ele>1000.0</ele><time>2026-05-01T13:46:56Z</time></trkpt><trkpt lat="45.2818363937666" lon="3.787521595544024"><ele>999.0</ele><time>2026-05-01T13:46:58Z</time></trkpt><trkpt lat="45.28192689262852" lon="3.7876145939617425"><ele>997.2</ele><time>2026-05-01T13:46:59Z</time></trkpt><trkpt lat="45.282008485927946" lon="3.787710354987677"><ele>995.4000000000001</ele><time>2026-05-01T13:47:00Z</time></trkpt><trkpt lat="45.28206994075412" lon="3.7878122561122267"><ele>993.6</ele><time>2026-05-01T13:47:01Z</time></trkpt><trkpt lat="45.282134377625496" lon="3.7879015353205316"><ele>991.8</ele><time>2026-05-01T13:47:02Z</time></trkpt><trkpt lat="45.28222461466853" lon="3.787991440492984"><ele>990.0</ele><time>2026-05-01T13:47:03Z</time></trkpt><trkpt lat="45.282274620302644" lon="3.788066001436905"><ele>989.0</ele><time>2026-05-01T13:47:04Z</time></trkpt><trkpt lat="45.28232039976107" lon="3.7881469274011685"><ele>988.0</ele><time>2026-05-01T13:47:05Z</time></trkpt><trkpt lat="45.28235618731632" lon="3.7882405750845654"><ele>987.0</ele><time>2026-05-01T13:47:06Z</time></trkpt><trkpt lat="45.28237190164017" lon="3.788336947167811"><ele>986.0</ele><time>2026-05-01T13:47:07Z</time></trkpt><trkpt lat="45.282369859527556" lon="3.7884465691079354"><ele>985.0</ele><time>2026-05-01T13:47:08Z</time></trkpt><trkpt lat="45.28233590168257" lon="3.788565696167465"><ele>984.0</ele><time>2026-05-01T13:47:09Z</time></trkpt><trkpt lat="45.28233898354369" lon="3.788684885378521"><ele>983.2857142857144</ele><time>2026-05-01T13:47:10Z</time></trkpt><trkpt lat="45.282338396997" lon="3.788796461514451"><ele>982.5714285714287</ele><time>2026-05-01T13:47:11Z</time></trkpt><trkpt lat="45.28234723867452" lon="3.788900864452797"><ele>981.8571428571429</ele><time>2026-05-01T13:47:12Z</time></trkpt><trkpt lat="45.282348265531745" lon="3.7890148355305335"><ele>981.1428571428572</ele><time>2026-05-01T13:47:13Z</time></trkpt><trkpt lat="45.28234906797734" lon="3.7891202740649237"><ele>980.4285714285716</ele><time>2026-05-01T13:47:14Z</time></trkpt><trkpt lat="45.28237340015473" lon="3.7892135424835143"><ele>979.7142857142857</ele><time>2026-05-01T13:47:15Z</time></trkpt><trkpt lat="45.28240177504034" lon="3.7892990399050697"><ele>979.0</ele><time>2026-05-01T13:47:16Z</time></trkpt><trkpt lat="45.282476400376815" lon="3.7893255369660523"><ele>978.9999999999999</ele><time>2026-05-01T13:47:17Z</time></trkpt><trkpt lat="45.28255968840119" lon="3.78926323942401"><ele>979.0</ele><time>2026-05-01T13:47:18Z</time></trkpt><trkpt lat="45.28263169576253" lon="3.789217963021445"><ele>979.0</ele><time>2026-05-01T13:47:19Z</time></trkpt><trkpt lat="45.28269857294167" lon="3.789187079590857"><ele>979.0</ele><time>2026-05-01T13:47:20Z</time></trkpt><trkpt lat="45.28276475806847" lon="3.7891656376102496"><ele>978.9999999999999</ele><time>2026-05-01T13:47:21Z</time></trkpt><trkpt lat="45.2828298833466" lon="3.78913385627457"><ele>979.0</ele><time>2026-05-01T13:47:22Z</time></trkpt><trkpt lat="45.28291657676791" lon="3.7892249991585083"><ele>976.8000000000001</ele><time>2026-05-01T13:47:24Z</time></trkpt><trkpt lat="45.28288259493266" lon="3.789410857359096"><ele>974.6000000000001</ele><time>2026-05-01T13:47:26Z</time></trkpt><trkpt lat="45.28285859621331" lon="3.7895364549818247"><ele>972.4</ele><time>2026-05-01T13:47:27Z</time></trkpt><trkpt lat="45.282845627735234" lon="3.7896535349101734"><ele>970.2</ele><time>2026-05-01T13:47:28Z</time></trkpt><trkpt lat="45.282855013517604" lon="3.7897802882193834"><ele>968.0</ele><time>2026-05-01T13:47:29Z</time></trkpt><trkpt lat="45.28288071878844" lon="3.7898892197748375"><ele>968.0</ele><time>2026-05-01T13:47:30Z</time></trkpt><trkpt lat="45.28280874192859" lon="3.7900477088636917"><ele>968.0</ele><time>2026-05-01T13:47:31Z</time></trkpt><trkpt lat="45.28273262109196" lon="3.790167456582604"><ele>968.0</ele><time>2026-05-01T13:47:31.999Z</time></trkpt><trkpt lat="45.28266581701933" lon="3.790272982166843"><ele>968.0</ele><time>2026-05-01T13:47:32.999Z</time></trkpt><trkpt lat="45.28259379841603" lon="3.7903532303055525"><ele>968.0</ele><time>2026-05-01T13:47:33.999Z</time></trkpt><trkpt lat="45.28248208758004" lon="3.7904092820483686"><ele>965.0</ele><time>2026-05-01T13:47:34.999Z</time></trkpt><trkpt lat="45.28233556525062" lon="3.790482718450627"><ele>962.0</ele><time>2026-05-01T13:47:35.999Z</time></trkpt><trkpt lat="45.28219294535203" lon="3.790625179479057"><ele>959.0</ele><time>2026-05-01T13:47:36.999Z</time></trkpt><trkpt lat="45.28205192089764" lon="3.7907991622671764"><ele>959.0</ele><time>2026-05-01T13:47:37.999Z</time></trkpt><trkpt lat="45.2818972811495" lon="3.7909615311489446"><ele>959.0</ele><time>2026-05-01T13:47:38.999Z</time></trkpt><trkpt lat="45.281749779654035" lon="3.79108690997142"><ele>959.0</ele><time>2026-05-01T13:47:39.999Z</time></trkpt><trkpt lat="45.281611092739276" lon="3.791196098734038"><ele>958.5</ele><time>2026-05-01T13:47:40.999Z</time></trkpt><trkpt lat="45.28149922181373" lon="3.791317366650587"><ele>958.0</ele><time>2026-05-01T13:47:41.999Z</time></trkpt><trkpt lat="45.281389118715396" lon="3.7913951345933894"><ele>957.5</ele><time>2026-05-01T13:47:42.999Z</time></trkpt><trkpt lat="45.28127756476568" lon="3.7914407629562885"><ele>957.0</ele><time>2026-05-01T13:47:43.999Z</time></trkpt><trkpt lat="45.281164333250025" lon="3.791491570576315"><ele>957.0</ele><time>2026-05-01T13:47:44.999Z</time></trkpt><trkpt lat="45.28104263794649" lon="3.7915451830280564"><ele>957.0</ele><time>2026-05-01T13:47:45.999Z</time></trkpt><trkpt lat="45.28092369873186" lon="3.791615155629706"><ele>957.0</ele><time>2026-05-01T13:47:46.999Z</time></trkpt><trkpt lat="45.28082406341915" lon="3.791652078843184"><ele>957.0</ele><time>2026-05-01T13:47:47.999Z</time></trkpt><trkpt lat="45.280749419722596" lon="3.791682729566648"><ele>957.0</ele><time>2026-05-01T13:47:48.999Z</time></trkpt><trkpt lat="45.280712416342034" lon="3.7917803487842088"><ele>956.4000000000001</ele><time>2026-05-01T13:47:51.999Z</time></trkpt><trkpt lat="45.28070105724821" lon="3.79191081999152"><ele>955.8000000000001</ele><time>2026-05-01T13:47:53.999Z</time></trkpt><trkpt lat="45.28069997972475" lon="3.7920284337909624"><ele>955.2</ele><time>2026-05-01T13:47:54.999Z</time></trkpt><trkpt lat="45.280702185512276" lon="3.7921694872591867"><ele>954.6</ele><time>2026-05-01T13:47:55.999Z</time></trkpt><trkpt lat="45.28069468858501" lon="3.7923443372954866"><ele>954.0</ele><time>2026-05-01T13:47:56.999Z</time></trkpt><trkpt lat="45.280690309688055" lon="3.7925345645826694"><ele>953.5</ele><time>2026-05-01T13:47:57.999Z</time></trkpt><trkpt lat="45.28066235281736" lon="3.792717441002876"><ele>953.0</ele><time>2026-05-01T13:47:58.999Z</time></trkpt><trkpt lat="45.280645258894" lon="3.792875237426549"><ele>952.5</ele><time>2026-05-01T13:47:59.999Z</time></trkpt><trkpt lat="45.280629943694585" lon="3.793063974929633"><ele>952.0</ele><time>2026-05-01T13:48:00.999Z</time></trkpt><trkpt lat="45.280567698356144" lon="3.793291091061406"><ele>950.6666666666666</ele><time>2026-05-01T13:48:01.999Z</time></trkpt><trkpt lat="45.28049110964704" lon="3.7935490614780085"><ele>949.3333333333333</ele><time>2026-05-01T13:48:02.999Z</time></trkpt><trkpt lat="45.28039581231009" lon="3.7938300161979295"><ele>948.0</ele><time>2026-05-01T13:48:03.999Z</time></trkpt><trkpt lat="45.28032563740671" lon="3.7941349236891373"><ele>948.6666666666667</ele><time>2026-05-01T13:48:04.999Z</time></trkpt><trkpt lat="45.28028423470153" lon="3.79445798344751"><ele>949.3333333333334</ele><time>2026-05-01T13:48:05.999Z</time></trkpt><trkpt lat="45.280227119675125" lon="3.7947295751552828"><ele>950.0</ele><time>2026-05-01T13:48:06.999Z</time></trkpt><trkpt lat="45.28019782999225" lon="3.7949831685741304"><ele>949.0</ele><time>2026-05-01T13:48:07.999Z</time></trkpt><trkpt lat="45.28018856474624" lon="3.7952099107159385"><ele>948.0</ele><time>2026-05-01T13:48:08.999Z</time></trkpt><trkpt lat="45.28017963329918" lon="3.795465550011264"><ele>947.0</ele><time>2026-05-01T13:48:09.999Z</time></trkpt><trkpt lat="45.280180412824734" lon="3.795761148673005"><ele>946.0</ele><time>2026-05-01T13:48:10.999Z</time></trkpt><trkpt lat="45.28012726153846" lon="3.7960615271429554"><ele>945.0</ele><time>2026-05-01T13:48:11.999Z</time></trkpt><trkpt lat="45.28008185950045" lon="3.7963416760908073"><ele>944.0</ele><time>2026-05-01T13:48:12.999Z</time></trkpt><trkpt lat="45.2800684294434" lon="3.7965865043057527"><ele>944.0</ele><time>2026-05-01T13:48:13.999Z</time></trkpt><trkpt lat="45.28004653617763" lon="3.7968052791812754"><ele>944.0</ele><time>2026-05-01T13:48:14.999Z</time></trkpt><trkpt lat="45.28005478868516" lon="3.7970012738716874"><ele>944.0</ele><time>2026-05-01T13:48:15.999Z</time></trkpt><trkpt lat="45.28008006695837" lon="3.797176400320185"><ele>944.0</ele><time>2026-05-01T13:48:16.999Z</time></trkpt><trkpt lat="45.280110469751534" lon="3.797334876450471"><ele>943.5</ele><time>2026-05-01T13:48:17.999Z</time></trkpt><trkpt lat="45.28011936959263" lon="3.7974865985630952"><ele>943.0</ele><time>2026-05-01T13:48:18.999Z</time></trkpt><trkpt lat="45.28008883054475" lon="3.7976329762199788"><ele>942.5</ele><time>2026-05-01T13:48:19.999Z</time></trkpt><trkpt lat="45.28000438702767" lon="3.797798949894068"><ele>942.0</ele><time>2026-05-01T13:48:20.999Z</time></trkpt><trkpt lat="45.27993239522735" lon="3.798014444707556"><ele>942.0</ele><time>2026-05-01T13:48:21.999Z</time></trkpt><trkpt lat="45.27987949788797" lon="3.798249089008741"><ele>942.0</ele><time>2026-05-01T13:48:22.999Z</time></trkpt><trkpt lat="45.279880982758726" lon="3.7985217558563664"><ele>942.0</ele><time>2026-05-01T13:48:24Z</time></trkpt><trkpt lat="45.27988573216331" lon="3.798811707160837"><ele>942.0</ele><time>2026-05-01T13:48:25Z</time></trkpt><trkpt lat="45.27988748950397" lon="3.799110840305617"><ele>942.0</ele><time>2026-05-01T13:48:26Z</time></trkpt><trkpt lat="45.279887017307814" lon="3.799405213914344"><ele>942.0</ele><time>2026-05-01T13:48:27Z</time></trkpt><trkpt lat="45.279873522815635" lon="3.799680911279979"><ele>942.0</ele><time>2026-05-01T13:48:28Z</time></trkpt><trkpt lat="45.279845412346006" lon="3.799953008449249"><ele>942.0</ele><time>2026-05-01T13:48:29Z</time></trkpt><trkpt lat="45.27982245241102" lon="3.80021362040643"><ele>942.0</ele><time>2026-05-01T13:48:30Z</time></trkpt><trkpt lat="45.279810091171825" lon="3.8004532585755144"><ele>942.0</ele><time>2026-05-01T13:48:31Z</time></trkpt><trkpt lat="45.27980430805323" lon="3.800675562454558"><ele>942.0</ele><time>2026-05-01T13:48:32Z</time></trkpt><trkpt lat="45.27980558697692" lon="3.8009168226964993"><ele>942.0</ele><time>2026-05-01T13:48:33Z</time></trkpt><trkpt lat="45.279825766525" lon="3.8011633652809396"><ele>942.0</ele><time>2026-05-01T13:48:34Z</time></trkpt><trkpt lat="45.27984316245629" lon="3.801413680197608"><ele>942.0</ele><time>2026-05-01T13:48:35Z</time></trkpt><trkpt lat="45.27985939094148" lon="3.801671093711907"><ele>942.0</ele><time>2026-05-01T13:48:36Z</time></trkpt><trkpt lat="45.27986557376881" lon="3.801905494430091"><ele>941.3333333333333</ele><time>2026-05-01T13:48:37Z</time></trkpt><trkpt lat="45.27985734389818" lon="3.8021442474712024"><ele>940.6666666666666</ele><time>2026-05-01T13:48:38Z</time></trkpt><trkpt lat="45.27983690613336" lon="3.802390564354476"><ele>940.0</ele><time>2026-05-01T13:48:39Z</time></trkpt><trkpt lat="45.279772555411064" lon="3.8026348425977825"><ele>937.6666666666666</ele><time>2026-05-01T13:48:40Z</time></trkpt><trkpt lat="45.279733304900454" lon="3.8028909416691286"><ele>935.3333333333333</ele><time>2026-05-01T13:48:41Z</time></trkpt><trkpt lat="45.27972076278793" lon="3.803135270480849"><ele>933.0</ele><time>2026-05-01T13:48:42Z</time></trkpt><trkpt lat="45.27970974795497" lon="3.803371881168616"><ele>933.6666666666667</ele><time>2026-05-01T13:48:43Z</time></trkpt><trkpt lat="45.279721253359845" lon="3.8036340105624684"><ele>934.3333333333334</ele><time>2026-05-01T13:48:44Z</time></trkpt><trkpt lat="45.27973908735259" lon="3.803894254001117"><ele>935.0</ele><time>2026-05-01T13:48:45Z</time></trkpt><trkpt lat="45.279770376269234" lon="3.8041460085740866"><ele>935.3333333333334</ele><time>2026-05-01T13:48:46Z</time></trkpt><trkpt lat="45.27978272460443" lon="3.804385118708667"><ele>935.6666666666667</ele><time>2026-05-01T13:48:47Z</time></trkpt><trkpt lat="45.2798155719184" lon="3.8046097770116534"><ele>936.0</ele><time>2026-05-01T13:48:48Z</time></trkpt><trkpt lat="45.279875551205386" lon="3.804824904378012"><ele>936.0</ele><time>2026-05-01T13:48:49Z</time></trkpt><trkpt lat="45.2799287943669" lon="3.805054060814653"><ele>936.0</ele><time>2026-05-01T13:48:50Z</time></trkpt><trkpt lat="45.2799857336559" lon="3.805283893146415"><ele>936.0</ele><time>2026-05-01T13:48:51Z</time></trkpt><trkpt lat="45.28004231366755" lon="3.805504043025337"><ele>936.0</ele><time>2026-05-01T13:48:52Z</time></trkpt><trkpt lat="45.280066772316644" lon="3.805713158717762"><ele>936.0</ele><time>2026-05-01T13:48:53Z</time></trkpt><trkpt lat="45.28010630009076" lon="3.8058829357511983"><ele>936.0</ele><time>2026-05-01T13:48:54Z</time></trkpt><trkpt lat="45.280118450152884" lon="3.806040614690799"><ele>936.0</ele><time>2026-05-01T13:48:55Z</time></trkpt><trkpt lat="45.28013540641948" lon="3.806206846251579"><ele>936.0</ele><time>2026-05-01T13:48:56Z</time></trkpt><trkpt lat="45.28013005767335" lon="3.806410460448233"><ele>936.0</ele><time>2026-05-01T13:48:57Z</time></trkpt><trkpt lat="45.28012586128509" lon="3.8066211772111034"><ele>936.0</ele><time>2026-05-01T13:48:58Z</time></trkpt><trkpt lat="45.28011028731536" lon="3.8068456630680805"><ele>935.3333333333333</ele><time>2026-05-01T13:48:59Z</time></trkpt><trkpt lat="45.28009516123849" lon="3.807099670745071"><ele>934.6666666666666</ele><time>2026-05-01T13:49:00Z</time></trkpt><trkpt lat="45.28010726798246" lon="3.8073648601685943"><ele>934.0</ele><time>2026-05-01T13:49:01Z</time></trkpt><trkpt lat="45.28012053454282" lon="3.8075985252521587"><ele>933.0</ele><time>2026-05-01T13:49:02Z</time></trkpt><trkpt lat="45.28011935899715" lon="3.8078175198311386"><ele>932.0</ele><time>2026-05-01T13:49:03Z</time></trkpt><trkpt lat="45.28016385841356" lon="3.808032610517518"><ele>931.0</ele><time>2026-05-01T13:49:04Z</time></trkpt><trkpt lat="45.28019094813017" lon="3.8082854256761087"><ele>929.3333333333333</ele><time>2026-05-01T13:49:05Z</time></trkpt><trkpt lat="45.28023106169225" lon="3.8085189060073055"><ele>927.6666666666667</ele><time>2026-05-01T13:49:06Z</time></trkpt><trkpt lat="45.280281917811784" lon="3.8087206374967684"><ele>926.0</ele><time>2026-05-01T13:49:07Z</time></trkpt><trkpt lat="45.28029084298601" lon="3.8089189961020584"><ele>926.0</ele><time>2026-05-01T13:49:08Z</time></trkpt><trkpt lat="45.28030153613887" lon="3.80911158889373"><ele>926.0</ele><time>2026-05-01T13:49:09Z</time></trkpt><trkpt lat="45.280291066658954" lon="3.8093178343572176"><ele>926.0</ele><time>2026-05-01T13:49:10Z</time></trkpt><trkpt lat="45.280266089746505" lon="3.809566233254204"><ele>927.3333333333334</ele><time>2026-05-01T13:49:11Z</time></trkpt><trkpt lat="45.28023611031249" lon="3.8098335623571526"><ele>928.6666666666667</ele><time>2026-05-01T13:49:12Z</time></trkpt><trkpt lat="45.28022717959049" lon="3.810062608597037"><ele>930.0</ele><time>2026-05-01T13:49:13Z</time></trkpt><trkpt lat="45.28020471872305" lon="3.810301728504597"><ele>930.0</ele><time>2026-05-01T13:49:14Z</time></trkpt><trkpt lat="45.2801963283354" lon="3.810551898032059"><ele>930.0</ele><time>2026-05-01T13:49:15Z</time></trkpt><trkpt lat="45.28016121346066" lon="3.8108277939797666"><ele>930.0</ele><time>2026-05-01T13:49:16Z</time></trkpt><trkpt lat="45.280143154708746" lon="3.8110915745789864"><ele>931.5</ele><time>2026-05-01T13:49:17Z</time></trkpt><trkpt lat="45.280143307352944" lon="3.8113296316428444"><ele>933.0</ele><time>2026-05-01T13:49:18Z</time></trkpt><trkpt lat="45.280134112304715" lon="3.8115237503054216"><ele>934.5</ele><time>2026-05-01T13:49:19Z</time></trkpt><trkpt lat="45.280132317414186" lon="3.811672622559991"><ele>936.0</ele><time>2026-05-01T13:49:20Z</time></trkpt><trkpt lat="45.28014340582457" lon="3.8117967154167474"><ele>935.8</ele><time>2026-05-01T13:49:21Z</time></trkpt><trkpt lat="45.28014581909967" lon="3.811906011453051"><ele>935.5999999999999</ele><time>2026-05-01T13:49:22Z</time></trkpt><trkpt lat="45.280148330925044" lon="3.812002898905293"><ele>935.4</ele><time>2026-05-01T13:49:23Z</time></trkpt><trkpt lat="45.28016450201427" lon="3.812132418428082"><ele>935.2</ele><time>2026-05-01T13:49:25Z</time></trkpt><trkpt lat="45.28006865223601" lon="3.8122349570754186"><ele>935.0</ele><time>2026-05-01T13:49:27Z</time></trkpt><trkpt lat="45.27999876223533" lon="3.812368121139276"><ele>935.0</ele><time>2026-05-01T13:49:29Z</time></trkpt><trkpt lat="45.27993535933504" lon="3.812493743204912"><ele>935.0</ele><time>2026-05-01T13:49:31Z</time></trkpt><trkpt lat="45.279880204005124" lon="3.8126122289460773"><ele>935.0</ele><time>2026-05-01T13:49:33Z</time></trkpt><trkpt lat="45.279848767053274" lon="3.8127374228362627"><ele>935.0</ele><time>2026-05-01T13:49:35Z</time></trkpt><trkpt lat="45.27980246316621" lon="3.8128731554334063"><ele>935.0</ele><time>2026-05-01T13:49:37Z</time></trkpt><trkpt lat="45.27978160036701" lon="3.8129620104502853"><ele>935.2</ele><time>2026-05-01T13:49:38Z</time></trkpt><trkpt lat="45.27981157438861" lon="3.8130809971909514"><ele>935.4</ele><time>2026-05-01T13:49:39Z</time></trkpt><trkpt lat="45.279820847045876" lon="3.813204556899204"><ele>935.5999999999999</ele><time>2026-05-01T13:49:40Z</time></trkpt><trkpt lat="45.27985072280614" lon="3.8133469286982224"><ele>935.8</ele><time>2026-05-01T13:49:41Z</time></trkpt><trkpt lat="45.27989653279662" lon="3.8134794176222817"><ele>936.0</ele><time>2026-05-01T13:49:42Z</time></trkpt><trkpt lat="45.279935880468784" lon="3.813600099089229"><ele>935.4</ele><time>2026-05-01T13:49:43Z</time></trkpt><trkpt lat="45.27996875945977" lon="3.8137195927715934"><ele>934.8</ele><time>2026-05-01T13:49:44Z</time></trkpt><trkpt lat="45.28000292277411" lon="3.8138427906309866"><ele>934.1999999999999</ele><time>2026-05-01T13:49:45Z</time></trkpt><trkpt lat="45.28004127373023" lon="3.8139710156462248"><ele>933.5999999999999</ele><time>2026-05-01T13:49:46Z</time></trkpt><trkpt lat="45.28008044293201" lon="3.8141040156657753"><ele>933.0</ele><time>2026-05-01T13:49:47Z</time></trkpt><trkpt lat="45.2801204283282" lon="3.8142428199954814"><ele>931.25</ele><time>2026-05-01T13:49:48Z</time></trkpt><trkpt lat="45.28016850250871" lon="3.8143954018976123"><ele>929.5</ele><time>2026-05-01T13:49:49Z</time></trkpt><trkpt lat="45.28022455261813" lon="3.8145658057625083"><ele>927.75</ele><time>2026-05-01T13:49:50Z</time></trkpt><trkpt lat="45.28028335690842" lon="3.8147511428035585"><ele>926.0</ele><time>2026-05-01T13:49:50.999Z</time></trkpt><trkpt lat="45.28034436726989" lon="3.814958556201101"><ele>926.0</ele><time>2026-05-01T13:49:51.999Z</time></trkpt><trkpt lat="45.28039670456241" lon="3.8151387461703834"><ele>926.0</ele><time>2026-05-01T13:49:52.999Z</time></trkpt><trkpt lat="45.28044439831103" lon="3.815291191604117"><ele>926.0</ele><time>2026-05-01T13:49:53.999Z</time></trkpt><trkpt lat="45.28049225519577" lon="3.815433917385409"><ele>926.0</ele><time>2026-05-01T13:49:54.999Z</time></trkpt><trkpt lat="45.280534446476146" lon="3.8155835227575783"><ele>925.5999999999999</ele><time>2026-05-01T13:49:55.999Z</time></trkpt><trkpt lat="45.28057899991239" lon="3.8157274238179557"><ele>925.1999999999999</ele><time>2026-05-01T13:49:56.999Z</time></trkpt><trkpt lat="45.280611147638915" lon="3.8158685542608635"><ele>924.8000000000001</ele><time>2026-05-01T13:49:57.999Z</time></trkpt><trkpt lat="45.28060015400548" lon="3.816022173220999"><ele>924.4000000000001</ele><time>2026-05-01T13:49:58.999Z</time></trkpt><trkpt lat="45.28058221992949" lon="3.8161656704748284"><ele>924.0</ele><time>2026-05-01T13:49:59.999Z</time></trkpt><trkpt lat="45.28054443109038" lon="3.81626930513053"><ele>924.0</ele><time>2026-05-01T13:50:00.999Z</time></trkpt><trkpt lat="45.280511013856824" lon="3.8163533015218163"><ele>924.0</ele><time>2026-05-01T13:50:01.999Z</time></trkpt><trkpt lat="45.2804743849489" lon="3.8164494824046664"><ele>924.0</ele><time>2026-05-01T13:50:03.999Z</time></trkpt><trkpt lat="45.28055519303464" lon="3.8165089505248484"><ele>924.0</ele><time>2026-05-01T13:50:04.999Z</time></trkpt><trkpt lat="45.2806191538316" lon="3.8165093188816224"><ele>924.0</ele><time>2026-05-01T13:50:05.999Z</time></trkpt><trkpt lat="45.28069764266609" lon="3.8165002967265353"><ele>924.0</ele><time>2026-05-01T13:50:06.999Z</time></trkpt><trkpt lat="45.28079955421311" lon="3.8165192254863576"><ele>924.0</ele><time>2026-05-01T13:50:07.999Z</time></trkpt><trkpt lat="45.280906085197245" lon="3.8165089178603986"><ele>924.0000000000001</ele><time>2026-05-01T13:50:08.999Z</time></trkpt><trkpt lat="45.28102651019574" lon="3.816520440248948"><ele>924.0000000000001</ele><time>2026-05-01T13:50:09.999Z</time></trkpt><trkpt lat="45.28114137485651" lon="3.8165176228570314"><ele>924.0</ele><time>2026-05-01T13:50:10.999Z</time></trkpt><trkpt lat="45.281233647175085" lon="3.8165075479130675"><ele>924.0</ele><time>2026-05-01T13:50:11.999Z</time></trkpt><trkpt lat="45.28132443682529" lon="3.8165009908375"><ele>924.0</ele><time>2026-05-01T13:50:12.999Z</time></trkpt><trkpt lat="45.28142479181528" lon="3.816494644447557"><ele>924.0</ele><time>2026-05-01T13:50:13.999Z</time></trkpt><trkpt lat="45.281540250267525" lon="3.8164912777585243"><ele>924.0</ele><time>2026-05-01T13:50:14.999Z</time></trkpt><trkpt lat="45.28166057704953" lon="3.816481148891506"><ele>924.0</ele><time>2026-05-01T13:50:15.999Z</time></trkpt><trkpt lat="45.28178519326662" lon="3.816445099712987"><ele>925.25</ele><time>2026-05-01T13:50:16.999Z</time></trkpt><trkpt lat="45.281912223725584" lon="3.8164209642345726"><ele>926.5</ele><time>2026-05-01T13:50:17.999Z</time></trkpt><trkpt lat="45.28204095458774" lon="3.816354404641004"><ele>927.75</ele><time>2026-05-01T13:50:18.999Z</time></trkpt><trkpt lat="45.28217882228096" lon="3.8163014672925324"><ele>929.0</ele><time>2026-05-01T13:50:19.999Z</time></trkpt><trkpt lat="45.282304551373656" lon="3.8162345257177046"><ele>929.0</ele><time>2026-05-01T13:50:20.999Z</time></trkpt><trkpt lat="45.28240896152198" lon="3.816178582488258"><ele>929.0</ele><time>2026-05-01T13:50:21.999Z</time></trkpt><trkpt lat="45.28250764201244" lon="3.816111273246313"><ele>929.0</ele><time>2026-05-01T13:50:22.999Z</time></trkpt><trkpt lat="45.28260516231053" lon="3.816000847960922"><ele>929.0</ele><time>2026-05-01T13:50:23.999Z</time></trkpt><trkpt lat="45.282700227619856" lon="3.815899796001652"><ele>928.25</ele><time>2026-05-01T13:50:24.999Z</time></trkpt><trkpt lat="45.28278756231509" lon="3.8157850686510923"><ele>927.5</ele><time>2026-05-01T13:50:25.999Z</time></trkpt><trkpt lat="45.28287480467399" lon="3.815636581283212"><ele>926.75</ele><time>2026-05-01T13:50:26.999Z</time></trkpt><trkpt lat="45.28300130840234" lon="3.8154980840102137"><ele>926.0</ele><time>2026-05-01T13:50:27.999Z</time></trkpt><trkpt lat="45.28312757191341" lon="3.8154001747644375"><ele>926.0</ele><time>2026-05-01T13:50:28.999Z</time></trkpt><trkpt lat="45.28325394396855" lon="3.8153406427799776"><ele>926.0</ele><time>2026-05-01T13:50:30Z</time></trkpt><trkpt lat="45.283392625895104" lon="3.815290860808288"><ele>926.0</ele><time>2026-05-01T13:50:31Z</time></trkpt><trkpt lat="45.28355309483447" lon="3.81520665477784"><ele>926.0</ele><time>2026-05-01T13:50:32Z</time></trkpt><trkpt lat="45.28369994583332" lon="3.815146440092286"><ele>927.0</ele><time>2026-05-01T13:50:33Z</time></trkpt><trkpt lat="45.28382960266247" lon="3.815088403572109"><ele>928.0</ele><time>2026-05-01T13:50:34Z</time></trkpt><trkpt lat="45.28396011140344" lon="3.815014439680663"><ele>929.0</ele><time>2026-05-01T13:50:35Z</time></trkpt><trkpt lat="45.28409633227912" lon="3.8149471208093404"><ele>930.0</ele><time>2026-05-01T13:50:36Z</time></trkpt><trkpt lat="45.28422596185583" lon="3.8148878702182896"><ele>930.0</ele><time>2026-05-01T13:50:37Z</time></trkpt><trkpt lat="45.28435246323709" lon="3.8148447784665747"><ele>930.0</ele><time>2026-05-01T13:50:38Z</time></trkpt><trkpt lat="45.28447554807433" lon="3.814789303116593"><ele>930.0</ele><time>2026-05-01T13:50:39Z</time></trkpt><trkpt lat="45.2846061857075" lon="3.8147342597788683"><ele>930.0</ele><time>2026-05-01T13:50:40Z</time></trkpt><trkpt lat="45.284727597392084" lon="3.814674766939093"><ele>930.0</ele><time>2026-05-01T13:50:41Z</time></trkpt><trkpt lat="45.28483753882392" lon="3.8146066802390743"><ele>930.0</ele><time>2026-05-01T13:50:42Z</time></trkpt><trkpt lat="45.28492672785239" lon="3.8145521218605456"><ele>930.0</ele><time>2026-05-01T13:50:43Z</time></trkpt><trkpt lat="45.28499529355441" lon="3.814538428239262"><ele>930.0</ele><time>2026-05-01T13:50:44Z</time></trkpt><trkpt lat="45.28505196457642" lon="3.814481317707193"><ele>930.0</ele><time>2026-05-01T13:50:45Z</time></trkpt><trkpt lat="45.28505151829324" lon="3.814309660521498"><ele>929.0</ele><time>2026-05-01T13:50:46Z</time></trkpt><trkpt lat="45.285071362450346" lon="3.8141568758036084"><ele>928.0</ele><time>2026-05-01T13:50:47Z</time></trkpt><trkpt lat="45.28512306799624" lon="3.8140319657086357"><ele>927.0</ele><time>2026-05-01T13:50:48Z</time></trkpt><trkpt lat="45.285159328714876" lon="3.813914970990842"><ele>926.0</ele><time>2026-05-01T13:50:49Z</time></trkpt><trkpt lat="45.285189270781366" lon="3.8137886782023394"><ele>925.0</ele><time>2026-05-01T13:50:50Z</time></trkpt><trkpt lat="45.28523161404573" lon="3.8136684941056562"><ele>925.0</ele><time>2026-05-01T13:50:51Z</time></trkpt><trkpt lat="45.28527436387132" lon="3.813574464375177"><ele>925.0</ele><time>2026-05-01T13:50:52Z</time></trkpt><trkpt lat="45.28534445173597" lon="3.813503806060154"><ele>925.0</ele><time>2026-05-01T13:50:53Z</time></trkpt><trkpt lat="45.285430791370494" lon="3.8134835563032814"><ele>925.0</ele><time>2026-05-01T13:50:54Z</time></trkpt><trkpt lat="45.28553596714135" lon="3.813467345126639"><ele>925.0</ele><time>2026-05-01T13:50:55Z</time></trkpt><trkpt lat="45.285667075946385" lon="3.8134195548598675"><ele>922.2</ele><time>2026-05-01T13:50:56Z</time></trkpt><trkpt lat="45.28578934103232" lon="3.8134124443652695"><ele>919.4</ele><time>2026-05-01T13:50:57Z</time></trkpt><trkpt lat="45.28589417654907" lon="3.8133936118501968"><ele>916.5999999999999</ele><time>2026-05-01T13:50:58Z</time></trkpt><trkpt lat="45.28598557437879" lon="3.813356276580564"><ele>913.8</ele><time>2026-05-01T13:50:59Z</time></trkpt><trkpt lat="45.286056379372624" lon="3.8133208023817486"><ele>911.0</ele><time>2026-05-01T13:51:00Z</time></trkpt><trkpt lat="45.28612197813277" lon="3.8132612767637437"><ele>911.0</ele><time>2026-05-01T13:51:01Z</time></trkpt><trkpt lat="45.28619469110237" lon="3.813169976633436"><ele>910.9999999999999</ele><time>2026-05-01T13:51:02Z</time></trkpt><trkpt lat="45.286250251117096" lon="3.8130623975436206"><ele>910.9999999999999</ele><time>2026-05-01T13:51:03Z</time></trkpt><trkpt lat="45.286318813171874" lon="3.8129648862178995"><ele>911.0</ele><time>2026-05-01T13:51:04Z</time></trkpt><trkpt lat="45.28638036109454" lon="3.812856662031207"><ele>911.0</ele><time>2026-05-01T13:51:05Z</time></trkpt><trkpt lat="45.286444708736504" lon="3.812787607344517"><ele>910.4</ele><time>2026-05-01T13:51:06Z</time></trkpt><trkpt lat="45.28647529252944" lon="3.812698381008456"><ele>909.8</ele><time>2026-05-01T13:51:07Z</time></trkpt><trkpt lat="45.28653711234316" lon="3.812631709146544"><ele>909.1999999999999</ele><time>2026-05-01T13:51:09Z</time></trkpt><trkpt lat="45.286602967298734" lon="3.812716005633058"><ele>908.5999999999999</ele><time>2026-05-01T13:51:12Z</time></trkpt><trkpt lat="45.28666968235668" lon="3.812864454320625"><ele>908.0</ele><time>2026-05-01T13:51:15Z</time></trkpt><trkpt lat="45.28672728218289" lon="3.8129651975603185"><ele>908.0</ele><time>2026-05-01T13:51:17Z</time></trkpt><trkpt lat="45.286780041482494" lon="3.8130482276613433"><ele>908.0</ele><time>2026-05-01T13:51:18Z</time></trkpt><trkpt lat="45.28686598848191" lon="3.8131918209785503"><ele>908.0</ele><time>2026-05-01T13:51:19Z</time></trkpt><trkpt lat="45.28696305784424" lon="3.8133807940849023"><ele>908.0</ele><time>2026-05-01T13:51:20Z</time></trkpt><trkpt lat="45.28707263871432" lon="3.813585313286501"><ele>908.6666666666667</ele><time>2026-05-01T13:51:21Z</time></trkpt><trkpt lat="45.28720254604681" lon="3.813799666600963"><ele>909.3333333333333</ele><time>2026-05-01T13:51:22Z</time></trkpt><trkpt lat="45.28734520263929" lon="3.814010473335623"><ele>910.0</ele><time>2026-05-01T13:51:23Z</time></trkpt><trkpt lat="45.287467876978695" lon="3.8141729988213884"><ele>910.0</ele><time>2026-05-01T13:51:24Z</time></trkpt><trkpt lat="45.28757252129467" lon="3.8142757592814127"><ele>910.0</ele><time>2026-05-01T13:51:25Z</time></trkpt><trkpt lat="45.287653325407526" lon="3.814359382338527"><ele>910.0</ele><time>2026-05-01T13:51:27Z</time></trkpt><trkpt lat="45.28767566109214" lon="3.814445154003184"><ele>910.0</ele><time>2026-05-01T13:51:36Z</time></trkpt><trkpt lat="45.28775758998885" lon="3.8144289178508455"><ele>910.0</ele><time>2026-05-01T13:52:19.999Z</time></trkpt><trkpt lat="45.287864409663754" lon="3.814642242955168"><ele>910.3333333333333</ele><time>2026-05-01T13:53:09Z</time></trkpt><trkpt lat="45.28793691084147" lon="3.8148057558427477"><ele>910.6666666666667</ele><time>2026-05-01T13:53:10Z</time></trkpt><trkpt lat="45.288035620995" lon="3.8150341823024863"><ele>911.0</ele><time>2026-05-01T13:53:11Z</time></trkpt><trkpt lat="45.28814276062202" lon="3.8152275317539743"><ele>911.0</ele><time>2026-05-01T13:53:12Z</time></trkpt><trkpt lat="45.288245523632085" lon="3.815409037706757"><ele>911.0</ele><time>2026-05-01T13:53:13Z</time></trkpt><trkpt lat="45.288347438777386" lon="3.8155736388840493"><ele>911.0</ele><time>2026-05-01T13:53:14Z</time></trkpt><trkpt lat="45.288444165436715" lon="3.8157331342908942"><ele>911.0</ele><time>2026-05-01T13:53:15Z</time></trkpt><trkpt lat="45.28852667546717" lon="3.8158890156760563"><ele>911.0</ele><time>2026-05-01T13:53:16Z</time></trkpt><trkpt lat="45.28860080373343" lon="3.8160393994013617"><ele>911.0</ele><time>2026-05-01T13:53:17Z</time></trkpt><trkpt lat="45.2886860150222" lon="3.8161862336243884"><ele>911.0</ele><time>2026-05-01T13:53:18Z</time></trkpt><trkpt lat="45.28874785417898" lon="3.816333866168292"><ele>910.8</ele><time>2026-05-01T13:53:19Z</time></trkpt><trkpt lat="45.288799112555544" lon="3.8164797162393946"><ele>910.5999999999999</ele><time>2026-05-01T13:53:20Z</time></trkpt><trkpt lat="45.28883551286531" lon="3.816629403672936"><ele>910.4</ele><time>2026-05-01T13:53:21Z</time></trkpt><trkpt lat="45.288873317007784" lon="3.8167795518962757"><ele>910.2</ele><time>2026-05-01T13:53:22Z</time></trkpt><trkpt lat="45.28887959217267" lon="3.8169089459624885"><ele>910.0</ele><time>2026-05-01T13:53:23Z</time></trkpt><trkpt lat="45.28882633430963" lon="3.8169854939331658"><ele>907.4</ele><time>2026-05-01T13:53:24Z</time></trkpt><trkpt lat="45.288744324134186" lon="3.8170973378631454"><ele>904.8</ele><time>2026-05-01T13:53:25Z</time></trkpt><trkpt lat="45.28866383806791" lon="3.8172328617652105"><ele>902.2</ele><time>2026-05-01T13:53:26Z</time></trkpt><trkpt lat="45.288595326237534" lon="3.817344586564642"><ele>899.6</ele><time>2026-05-01T13:53:27Z</time></trkpt><trkpt lat="45.28853860022182" lon="3.817444988959618"><ele>897.0</ele><time>2026-05-01T13:53:28Z</time></trkpt><trkpt lat="45.28848342354835" lon="3.8175726858673964"><ele>894.75</ele><time>2026-05-01T13:53:29Z</time></trkpt><trkpt lat="45.28845827049049" lon="3.8177310705233696"><ele>892.5</ele><time>2026-05-01T13:53:30Z</time></trkpt><trkpt lat="45.28844551512338" lon="3.817910242784673"><ele>890.25</ele><time>2026-05-01T13:53:31Z</time></trkpt><trkpt lat="45.2884454034135" lon="3.818097480673319"><ele>888.0</ele><time>2026-05-01T13:53:32Z</time></trkpt><trkpt lat="45.288402552201404" lon="3.818317755413355"><ele>888.25</ele><time>2026-05-01T13:53:33Z</time></trkpt><trkpt lat="45.28837176276301" lon="3.8185218003514563"><ele>888.5</ele><time>2026-05-01T13:53:34Z</time></trkpt><trkpt lat="45.28838735286837" lon="3.8187080928175288"><ele>888.75</ele><time>2026-05-01T13:53:35Z</time></trkpt><trkpt lat="45.28842052115501" lon="3.8189111616724616"><ele>889.0</ele><time>2026-05-01T13:53:36Z</time></trkpt><trkpt lat="45.288484730147005" lon="3.8191186847335197"><ele>889.75</ele><time>2026-05-01T13:53:37Z</time></trkpt><trkpt lat="45.28847850127139" lon="3.8193336147446133"><ele>890.5</ele><time>2026-05-01T13:53:38Z</time></trkpt><trkpt lat="45.288459085573784" lon="3.8195404711558787"><ele>891.25</ele><time>2026-05-01T13:53:39Z</time></trkpt><trkpt lat="45.28840076474096" lon="3.8197071467923625"><ele>892.0</ele><time>2026-05-01T13:53:40Z</time></trkpt><trkpt lat="45.28833071775522" lon="3.819901061461008"><ele>892.0</ele><time>2026-05-01T13:53:41Z</time></trkpt><trkpt lat="45.288312468265055" lon="3.820102501213849"><ele>892.0</ele><time>2026-05-01T13:53:42Z</time></trkpt><trkpt lat="45.28830720697507" lon="3.8202613009676494"><ele>892.0</ele><time>2026-05-01T13:53:43Z</time></trkpt><trkpt lat="45.288305801306336" lon="3.8204030210119093"><ele>892.0</ele><time>2026-05-01T13:53:44Z</time></trkpt><trkpt lat="45.288240802781424" lon="3.820508032763991"><ele>893.5</ele><time>2026-05-01T13:53:45Z</time></trkpt><trkpt lat="45.28817835941737" lon="3.820644840573206"><ele>895.0</ele><time>2026-05-01T13:53:46Z</time></trkpt><trkpt lat="45.288112814561565" lon="3.8208093391052294"><ele>896.5</ele><time>2026-05-01T13:53:47Z</time></trkpt><trkpt lat="45.288066065162596" lon="3.8209706187207395"><ele>898.0</ele><time>2026-05-01T13:53:48Z</time></trkpt><trkpt lat="45.287998134143045" lon="3.8210757214943296"><ele>900.25</ele><time>2026-05-01T13:53:49Z</time></trkpt><trkpt lat="45.28793182457633" lon="3.821175477769152"><ele>902.5</ele><time>2026-05-01T13:53:50Z</time></trkpt><trkpt lat="45.28784124735844" lon="3.821266269807736"><ele>904.75</ele><time>2026-05-01T13:53:51Z</time></trkpt><trkpt lat="45.28772621617584" lon="3.821350243098959"><ele>907.0</ele><time>2026-05-01T13:53:52Z</time></trkpt><trkpt lat="45.28760511223824" lon="3.8214197805852574"><ele>906.9999999999999</ele><time>2026-05-01T13:53:53Z</time></trkpt><trkpt lat="45.287508832559695" lon="3.821494658396736"><ele>907.0</ele><time>2026-05-01T13:53:54Z</time></trkpt><trkpt lat="45.287434945695054" lon="3.8215853106573276"><ele>907.0</ele><time>2026-05-01T13:53:55Z</time></trkpt><trkpt lat="45.28735889684205" lon="3.8216087925100775"><ele>907.0</ele><time>2026-05-01T13:53:56Z</time></trkpt><trkpt lat="45.2873092617587" lon="3.8216951502346452"><ele>906.9999999999999</ele><time>2026-05-01T13:53:57Z</time></trkpt><trkpt lat="45.287251410096616" lon="3.8217581661643973"><ele>907.0</ele><time>2026-05-01T13:53:58Z</time></trkpt><trkpt lat="45.28708052483598" lon="3.8216388006748"><ele>906.8</ele><time>2026-05-01T13:53:59Z</time></trkpt><trkpt lat="45.28700752918608" lon="3.821725278831233"><ele>906.6</ele><time>2026-05-01T13:54:00Z</time></trkpt><trkpt lat="45.28691552561771" lon="3.821815695196187"><ele>906.3999999999999</ele><time>2026-05-01T13:54:00.999Z</time></trkpt><trkpt lat="45.28682515927094" lon="3.8218808178824664"><ele>906.1999999999999</ele><time>2026-05-01T13:54:01.999Z</time></trkpt><trkpt lat="45.28672652583171" lon="3.8219442193614195"><ele>906.0</ele><time>2026-05-01T13:54:02.999Z</time></trkpt><trkpt lat="45.28663303795359" lon="3.8220127117330445"><ele>907.4</ele><time>2026-05-01T13:54:03.999Z</time></trkpt><trkpt lat="45.28653327156844" lon="3.8220812946182896"><ele>908.8</ele><time>2026-05-01T13:54:04.999Z</time></trkpt><trkpt lat="45.28643571323447" lon="3.8221520242024494"><ele>910.1999999999999</ele><time>2026-05-01T13:54:05.999Z</time></trkpt><trkpt lat="45.28634503841871" lon="3.8222245110405177"><ele>911.5999999999999</ele><time>2026-05-01T13:54:06.999Z</time></trkpt><trkpt lat="45.28625746286575" lon="3.822286903577197"><ele>913.0</ele><time>2026-05-01T13:54:07.999Z</time></trkpt><trkpt lat="45.286163363491916" lon="3.822326370651008"><ele>912.9999999999999</ele><time>2026-05-01T13:54:08.999Z</time></trkpt><trkpt lat="45.28606649184978" lon="3.8223719725385967"><ele>913.0</ele><time>2026-05-01T13:54:09.999Z</time></trkpt><trkpt lat="45.28599493582721" lon="3.8223945496474037"><ele>913.0</ele><time>2026-05-01T13:54:10.999Z</time></trkpt><trkpt lat="45.28593504067114" lon="3.8224699515950475"><ele>913.0</ele><time>2026-05-01T13:54:12.999Z</time></trkpt><trkpt lat="45.285900186243374" lon="3.8225521384011816"><ele>912.9999999999999</ele><time>2026-05-01T13:54:13.999Z</time></trkpt><trkpt lat="45.28585899027263" lon="3.8227139166053967"><ele>913.0</ele><time>2026-05-01T13:54:15.999Z</time></trkpt><trkpt lat="45.28588176975206" lon="3.8228657864891558"><ele>913.9999999999999</ele><time>2026-05-01T13:54:17.999Z</time></trkpt><trkpt lat="45.28586322363637" lon="3.8229722679661076"><ele>915.0</ele><time>2026-05-01T13:54:18.999Z</time></trkpt><trkpt lat="45.28581783399172" lon="3.8230595002842684"><ele>916.0</ele><time>2026-05-01T13:54:19.999Z</time></trkpt><trkpt lat="45.285777012993385" lon="3.8231589953146985"><ele>917.0</ele><time>2026-05-01T13:54:20.999Z</time></trkpt><trkpt lat="45.28574388528441" lon="3.823282282732081"><ele>917.9999999999999</ele><time>2026-05-01T13:54:21.999Z</time></trkpt><trkpt lat="45.28573134139466" lon="3.823385582133093"><ele>919.0</ele><time>2026-05-01T13:54:22.999Z</time></trkpt><trkpt lat="45.28569413748564" lon="3.823515294799095"><ele>917.6</ele><time>2026-05-01T13:54:24.999Z</time></trkpt><trkpt lat="45.28557709510014" lon="3.823486223069941"><ele>916.2</ele><time>2026-05-01T13:54:26.999Z</time></trkpt><trkpt lat="45.28547265156656" lon="3.823615607121912"><ele>914.8000000000001</ele><time>2026-05-01T13:54:28.999Z</time></trkpt><trkpt lat="45.28547140749469" lon="3.8237460309056837"><ele>913.4000000000001</ele><time>2026-05-01T13:54:29.999Z</time></trkpt><trkpt lat="45.28542918356118" lon="3.823856442891309"><ele>912.0</ele><time>2026-05-01T13:54:30.999Z</time></trkpt><trkpt lat="45.285396185758664" lon="3.8239771897084887"><ele>912.0</ele><time>2026-05-01T13:54:31.999Z</time></trkpt><trkpt lat="45.285367784700554" lon="3.8240811159412087"><ele>912.0</ele><time>2026-05-01T13:54:32.999Z</time></trkpt><trkpt lat="45.28549862728056" lon="3.824291746870656"><ele>912.0</ele><time>2026-05-01T13:54:33.999Z</time></trkpt><trkpt lat="45.285517580174194" lon="3.8244423251267476"><ele>912.0</ele><time>2026-05-01T13:54:34.999Z</time></trkpt><trkpt lat="45.285531743788034" lon="3.824556326503431"><ele>912.4000000000001</ele><time>2026-05-01T13:54:35.999Z</time></trkpt><trkpt lat="45.28554928226496" lon="3.824701180854211"><ele>912.8000000000001</ele><time>2026-05-01T13:54:37.999Z</time></trkpt><trkpt lat="45.285511515793864" lon="3.8247909667328686"><ele>913.2</ele><time>2026-05-01T13:54:38.999Z</time></trkpt><trkpt lat="45.28540043433004" lon="3.8248713520992665"><ele>913.6</ele><time>2026-05-01T13:54:39.999Z</time></trkpt><trkpt lat="45.285294956901126" lon="3.8249807528157755"><ele>914.0</ele><time>2026-05-01T13:54:40.999Z</time></trkpt><trkpt lat="45.285176115881185" lon="3.8250489589275527"><ele>914.0</ele><time>2026-05-01T13:54:42Z</time></trkpt><trkpt lat="45.2850289723618" lon="3.8250810662290755"><ele>914.0000000000001</ele><time>2026-05-01T13:54:43Z</time></trkpt><trkpt lat="45.28491990446075" lon="3.825128186785222"><ele>914.0000000000001</ele><time>2026-05-01T13:54:44Z</time></trkpt><trkpt lat="45.284853839433275" lon="3.825199740076631"><ele>914.0</ele><time>2026-05-01T13:54:45Z</time></trkpt><trkpt lat="45.28477786989822" lon="3.8252723763814505"><ele>914.0</ele><time>2026-05-01T13:54:46Z</time></trkpt><trkpt lat="45.28470326761562" lon="3.825389665840474"><ele>915.25</ele><time>2026-05-01T13:54:47Z</time></trkpt><trkpt lat="45.28464463052542" lon="3.825533660975732"><ele>916.5</ele><time>2026-05-01T13:54:48Z</time></trkpt><trkpt lat="45.284600919049105" lon="3.8257154288718125"><ele>917.75</ele><time>2026-05-01T13:54:49Z</time></trkpt><trkpt lat="45.284581013859345" lon="3.8258587230934347"><ele>919.0</ele><time>2026-05-01T13:54:50Z</time></trkpt><trkpt lat="45.28456782870328" lon="3.826008671914032"><ele>920.0</ele><time>2026-05-01T13:54:51Z</time></trkpt><trkpt lat="45.28455992026566" lon="3.826145830636462"><ele>921.0</ele><time>2026-05-01T13:54:52Z</time></trkpt><trkpt lat="45.28457133713455" lon="3.8262920190899354"><ele>922.0</ele><time>2026-05-01T13:54:53Z</time></trkpt><trkpt lat="45.28461371494199" lon="3.8264618037821156"><ele>923.0</ele><time>2026-05-01T13:54:54Z</time></trkpt><trkpt lat="45.284629008256694" lon="3.8266427454520193"><ele>923.3333333333334</ele><time>2026-05-01T13:54:55Z</time></trkpt><trkpt lat="45.2846723113457" lon="3.8268407817225936"><ele>923.6666666666667</ele><time>2026-05-01T13:54:56Z</time></trkpt><trkpt lat="45.28470058097778" lon="3.827085427710288"><ele>924.0</ele><time>2026-05-01T13:54:57Z</time></trkpt><trkpt lat="45.28472290659273" lon="3.8273326167787887"><ele>924.0</ele><time>2026-05-01T13:54:58Z</time></trkpt><trkpt lat="45.284722195660535" lon="3.827538501677875"><ele>924.0</ele><time>2026-05-01T13:54:59Z</time></trkpt><trkpt lat="45.284715910334484" lon="3.827750265327257"><ele>924.0</ele><time>2026-05-01T13:55:00Z</time></trkpt><trkpt lat="45.28471588935416" lon="3.8279914227805625"><ele>923.0</ele><time>2026-05-01T13:55:01Z</time></trkpt><trkpt lat="45.28468121312436" lon="3.8282146667708417"><ele>922.0</ele><time>2026-05-01T13:55:02Z</time></trkpt><trkpt lat="45.284667520582985" lon="3.8284728991217913"><ele>921.0</ele><time>2026-05-01T13:55:03Z</time></trkpt><trkpt lat="45.284637205219646" lon="3.828706553534156"><ele>921.0</ele><time>2026-05-01T13:55:04Z</time></trkpt><trkpt lat="45.28461201305328" lon="3.8289304148522154"><ele>921.0</ele><time>2026-05-01T13:55:05Z</time></trkpt><trkpt lat="45.28459857678589" lon="3.8291475604980114"><ele>921.0</ele><time>2026-05-01T13:55:06Z</time></trkpt><trkpt lat="45.284592901723386" lon="3.829348565209135"><ele>921.0</ele><time>2026-05-01T13:55:07Z</time></trkpt><trkpt lat="45.28458122457243" lon="3.829549354241561"><ele>921.0</ele><time>2026-05-01T13:55:08Z</time></trkpt><trkpt lat="45.284577595902086" lon="3.8297461293993997"><ele>921.0</ele><time>2026-05-01T13:55:09Z</time></trkpt><trkpt lat="45.28459635294156" lon="3.8299393750833115"><ele>921.0</ele><time>2026-05-01T13:55:10Z</time></trkpt><trkpt lat="45.28461822965996" lon="3.830128800295371"><ele>921.5</ele><time>2026-05-01T13:55:11Z</time></trkpt><trkpt lat="45.28461746807452" lon="3.830314120283322"><ele>922.0</ele><time>2026-05-01T13:55:12Z</time></trkpt><trkpt lat="45.284588128063604" lon="3.8304941372911085"><ele>922.5</ele><time>2026-05-01T13:55:13Z</time></trkpt><trkpt lat="45.28454446221619" lon="3.8306816160620585"><ele>923.0</ele><time>2026-05-01T13:55:14Z</time></trkpt><trkpt lat="45.28451406565623" lon="3.8308833255601717"><ele>923.0</ele><time>2026-05-01T13:55:15Z</time></trkpt><trkpt lat="45.28449330286501" lon="3.8310895009452786"><ele>923.0</ele><time>2026-05-01T13:55:16Z</time></trkpt><trkpt lat="45.284473463411864" lon="3.8312936771094717"><ele>923.0</ele><time>2026-05-01T13:55:17Z</time></trkpt><trkpt lat="45.28446528205171" lon="3.831492239651353"><ele>923.0</ele><time>2026-05-01T13:55:18Z</time></trkpt><trkpt lat="45.28446598571864" lon="3.8316894154841625"><ele>924.3333333333334</ele><time>2026-05-01T13:55:19Z</time></trkpt><trkpt lat="45.284473453077254" lon="3.8318879902209315"><ele>925.6666666666667</ele><time>2026-05-01T13:55:20Z</time></trkpt><trkpt lat="45.284491298747135" lon="3.832111863072869"><ele>927.0</ele><time>2026-05-01T13:55:21Z</time></trkpt><trkpt lat="45.28450709482214" lon="3.8323434435401094"><ele>927.0</ele><time>2026-05-01T13:55:22Z</time></trkpt><trkpt lat="45.284520044505996" lon="3.8325852474820263"><ele>927.0</ele><time>2026-05-01T13:55:23Z</time></trkpt><trkpt lat="45.28451592464204" lon="3.8328173513094073"><ele>927.0</ele><time>2026-05-01T13:55:24Z</time></trkpt><trkpt lat="45.284505895723655" lon="3.833020917773465"><ele>926.6666666666667</ele><time>2026-05-01T13:55:25Z</time></trkpt><trkpt lat="45.2844834884875" lon="3.8332088144611633"><ele>926.3333333333334</ele><time>2026-05-01T13:55:26Z</time></trkpt><trkpt lat="45.284430975504414" lon="3.8334158117783614"><ele>926.0</ele><time>2026-05-01T13:55:27Z</time></trkpt><trkpt lat="45.28439679537134" lon="3.833647548843896"><ele>926.6666666666667</ele><time>2026-05-01T13:55:28Z</time></trkpt><trkpt lat="45.28433129368942" lon="3.8339137281451885"><ele>927.3333333333333</ele><time>2026-05-01T13:55:29Z</time></trkpt><trkpt lat="45.28427247484695" lon="3.834193405838101"><ele>928.0</ele><time>2026-05-01T13:55:30Z</time></trkpt><trkpt lat="45.28421111886214" lon="3.8344783510664047"><ele>929.0</ele><time>2026-05-01T13:55:31Z</time></trkpt><trkpt lat="45.28416799961888" lon="3.834717414036162"><ele>930.0</ele><time>2026-05-01T13:55:32Z</time></trkpt><trkpt lat="45.284128812974636" lon="3.8349336998887824"><ele>931.0</ele><time>2026-05-01T13:55:33Z</time></trkpt><trkpt lat="45.284084210091976" lon="3.835143328804823"><ele>931.0</ele><time>2026-05-01T13:55:34Z</time></trkpt><trkpt lat="45.28403023029881" lon="3.8353533409558827"><ele>931.0</ele><time>2026-05-01T13:55:35Z</time></trkpt><trkpt lat="45.28395617546557" lon="3.835467416716273"><ele>931.0</ele><time>2026-05-01T13:55:36Z</time></trkpt><trkpt lat="45.28388328001789" lon="3.8355425632282003"><ele>931.0</ele><time>2026-05-01T13:55:37Z</time></trkpt><trkpt lat="45.283794912221" lon="3.835647648536374"><ele>931.3333333333333</ele><time>2026-05-01T13:55:38Z</time></trkpt><trkpt lat="45.28370672726537" lon="3.835757902168939"><ele>931.6666666666666</ele><time>2026-05-01T13:55:39Z</time></trkpt><trkpt lat="45.28364528300961" lon="3.8358551959872838"><ele>932.0</ele><time>2026-05-01T13:55:40Z</time></trkpt><trkpt lat="45.2835674451204" lon="3.835921798718048"><ele>932.3333333333333</ele><time>2026-05-01T13:55:41Z</time></trkpt><trkpt lat="45.283501861896205" lon="3.835976296844945"><ele>932.6666666666666</ele><time>2026-05-01T13:55:42Z</time></trkpt><trkpt lat="45.283433731417006" lon="3.836012308198424"><ele>933.0</ele><time>2026-05-01T13:55:43Z</time></trkpt><trkpt lat="45.28334784404035" lon="3.836074902604834"><ele>933.0</ele><time>2026-05-01T13:55:45Z</time></trkpt><trkpt lat="45.283265838397945" lon="3.8360862505658386"><ele>933.0</ele><time>2026-05-01T13:55:48Z</time></trkpt><trkpt lat="45.28320272194945" lon="3.8360897803309926"><ele>933.0</ele><time>2026-05-01T13:55:49Z</time></trkpt><trkpt lat="45.28311187027599" lon="3.8360755322722797"><ele>933.0</ele><time>2026-05-01T13:55:50Z</time></trkpt><trkpt lat="45.283014399693144" lon="3.8360481288412394"><ele>933.0</ele><time>2026-05-01T13:55:51Z</time></trkpt><trkpt lat="45.28296740168721" lon="3.835932181607984"><ele>933.0</ele><time>2026-05-01T13:55:52Z</time></trkpt><trkpt lat="45.282905599195885" lon="3.8358997862319186"><ele>932.3333333333333</ele><time>2026-05-01T13:55:53Z</time></trkpt><trkpt lat="45.28273954697047" lon="3.836153864557556"><ele>931.6666666666666</ele><time>2026-05-01T13:55:54Z</time></trkpt><trkpt lat="45.28265723738598" lon="3.8363043536067045"><ele>931.0</ele><time>2026-05-01T13:55:55Z</time></trkpt><trkpt lat="45.28259155744575" lon="3.836472563472792"><ele>931.0</ele><time>2026-05-01T13:55:56Z</time></trkpt><trkpt lat="45.28251325386888" lon="3.836629064226265"><ele>930.9999999999999</ele><time>2026-05-01T13:55:57Z</time></trkpt><trkpt lat="45.28245876040178" lon="3.8367760545111915"><ele>930.9999999999999</ele><time>2026-05-01T13:55:58Z</time></trkpt><trkpt lat="45.282386202887004" lon="3.8368729293845725"><ele>931.0</ele><time>2026-05-01T13:55:59Z</time></trkpt><trkpt lat="45.28231263165968" lon="3.8369632063758594"><ele>931.0</ele><time>2026-05-01T13:56:00Z</time></trkpt><trkpt lat="45.282230842603596" lon="3.8370545566567293"><ele>932.8</ele><time>2026-05-01T13:56:01Z</time></trkpt><trkpt lat="45.28214611729533" lon="3.8371602895142303"><ele>934.5999999999999</ele><time>2026-05-01T13:56:02Z</time></trkpt><trkpt lat="45.28208921164611" lon="3.8372370572587347"><ele>936.4</ele><time>2026-05-01T13:56:03Z</time></trkpt><trkpt lat="45.282028462728825" lon="3.837316548994035"><ele>938.2</ele><time>2026-05-01T13:56:04Z</time></trkpt><trkpt lat="45.28196544747913" lon="3.8374347780214957"><ele>940.0</ele><time>2026-05-01T13:56:05Z</time></trkpt><trkpt lat="45.28189089656111" lon="3.8375671880280895"><ele>938.25</ele><time>2026-05-01T13:56:06Z</time></trkpt><trkpt lat="45.281818342692326" lon="3.8376752603608844"><ele>936.5</ele><time>2026-05-01T13:56:07Z</time></trkpt><trkpt lat="45.28172824244886" lon="3.83777663481449"><ele>934.75</ele><time>2026-05-01T13:56:08Z</time></trkpt><trkpt lat="45.28163254253726" lon="3.8378625157193684"><ele>933.0</ele><time>2026-05-01T13:56:09Z</time></trkpt><trkpt lat="45.28151509183811" lon="3.8379305105059736"><ele>934.0</ele><time>2026-05-01T13:56:10Z</time></trkpt><trkpt lat="45.28140116393968" lon="3.8379517680919535"><ele>935.0</ele><time>2026-05-01T13:56:11Z</time></trkpt><trkpt lat="45.28131407581152" lon="3.837993991820209"><ele>936.0</ele><time>2026-05-01T13:56:11.999Z</time></trkpt><trkpt lat="45.28123397648306" lon="3.8380725135773446"><ele>937.0</ele><time>2026-05-01T13:56:12.999Z</time></trkpt><trkpt lat="45.28113509142883" lon="3.8381791306711164"><ele>938.0</ele><time>2026-05-01T13:56:13.999Z</time></trkpt><trkpt lat="45.28104070740427" lon="3.838305178399162"><ele>938.0</ele><time>2026-05-01T13:56:14.999Z</time></trkpt><trkpt lat="45.28094253404094" lon="3.838412638283807"><ele>938.0</ele><time>2026-05-01T13:56:15.999Z</time></trkpt><trkpt lat="45.28084094778889" lon="3.838524141279785"><ele>938.0</ele><time>2026-05-01T13:56:16.999Z</time></trkpt><trkpt lat="45.28074276802954" lon="3.8386104932345413"><ele>938.0</ele><time>2026-05-01T13:56:17.999Z</time></trkpt><trkpt lat="45.28064840674297" lon="3.8386668786166704"><ele>939.0</ele><time>2026-05-01T13:56:18.999Z</time></trkpt><trkpt lat="45.28055383558228" lon="3.8387267289658684"><ele>940.0</ele><time>2026-05-01T13:56:19.999Z</time></trkpt><trkpt lat="45.28046480194293" lon="3.8387930009169615"><ele>941.0</ele><time>2026-05-01T13:56:20.999Z</time></trkpt><trkpt lat="45.28039333329949" lon="3.8388804149544176"><ele>942.0</ele><time>2026-05-01T13:56:21.999Z</time></trkpt><trkpt lat="45.280332389033305" lon="3.8389880178726448"><ele>943.0</ele><time>2026-05-01T13:56:22.999Z</time></trkpt><trkpt lat="45.28027102984111" lon="3.8391057008169804"><ele>943.0</ele><time>2026-05-01T13:56:23.999Z</time></trkpt><trkpt lat="45.280211668061064" lon="3.839213308160801"><ele>943.0</ele><time>2026-05-01T13:56:24.999Z</time></trkpt><trkpt lat="45.28014958246801" lon="3.839319329538011"><ele>943.0</ele><time>2026-05-01T13:56:25.999Z</time></trkpt><trkpt lat="45.28009939244315" lon="3.839444772638182"><ele>943.0</ele><time>2026-05-01T13:56:26.999Z</time></trkpt><trkpt lat="45.28006441893856" lon="3.839587623840363"><ele>943.0</ele><time>2026-05-01T13:56:27.999Z</time></trkpt><trkpt lat="45.28002744169749" lon="3.8397108108424773"><ele>942.8333333333333</ele><time>2026-05-01T13:56:28.999Z</time></trkpt><trkpt lat="45.279991158158786" lon="3.839822709249498"><ele>942.6666666666666</ele><time>2026-05-01T13:56:29.999Z</time></trkpt><trkpt lat="45.27995173220172" lon="3.8399251443594054"><ele>942.5</ele><time>2026-05-01T13:56:30.999Z</time></trkpt><trkpt lat="45.27990781560646" lon="3.8400302780924407"><ele>942.3333333333333</ele><time>2026-05-01T13:56:31.999Z</time></trkpt><trkpt lat="45.27986024229515" lon="3.840118406184258"><ele>942.1666666666666</ele><time>2026-05-01T13:56:32.999Z</time></trkpt><trkpt lat="45.27980372461338" lon="3.8402010460689446"><ele>942.0</ele><time>2026-05-01T13:56:33.999Z</time></trkpt><trkpt lat="45.27973134193341" lon="3.8402878596686856"><ele>942.8333333333334</ele><time>2026-05-01T13:56:34.999Z</time></trkpt><trkpt lat="45.27966490652145" lon="3.840372854375131"><ele>943.6666666666667</ele><time>2026-05-01T13:56:35.999Z</time></trkpt><trkpt lat="45.27961399361409" lon="3.840448503510972"><ele>944.5</ele><time>2026-05-01T13:56:36.999Z</time></trkpt><trkpt lat="45.27957101510922" lon="3.8405829711213344"><ele>945.3333333333334</ele><time>2026-05-01T13:56:38.999Z</time></trkpt><trkpt lat="45.27959965272494" lon="3.840665640640564"><ele>946.1666666666667</ele><time>2026-05-01T13:56:39.999Z</time></trkpt><trkpt lat="45.27964030294727" lon="3.8407779917777773"><ele>947.0</ele><time>2026-05-01T13:56:40.999Z</time></trkpt><trkpt lat="45.2796904233092" lon="3.8409124255883"><ele>945.75</ele><time>2026-05-01T13:56:41.999Z</time></trkpt><trkpt lat="45.27974239436265" lon="3.8410756448919914"><ele>944.5</ele><time>2026-05-01T13:56:42.999Z</time></trkpt><trkpt lat="45.279802900966864" lon="3.8412606596084298"><ele>943.25</ele><time>2026-05-01T13:56:43.999Z</time></trkpt><trkpt lat="45.27984864067844" lon="3.841400215572422"><ele>942.0</ele><time>2026-05-01T13:56:44.999Z</time></trkpt><trkpt lat="45.27989981753139" lon="3.8415514998829985"><ele>941.75</ele><time>2026-05-01T13:56:45.999Z</time></trkpt><trkpt lat="45.279947498004965" lon="3.841696514958309"><ele>941.5</ele><time>2026-05-01T13:56:46.999Z</time></trkpt><trkpt lat="45.28000157942569" lon="3.8418511180877823"><ele>941.25</ele><time>2026-05-01T13:56:48Z</time></trkpt><trkpt lat="45.280070618152365" lon="3.84203767404287"><ele>941.0</ele><time>2026-05-01T13:56:49Z</time></trkpt><trkpt lat="45.28013793315309" lon="3.842254061797288"><ele>941.5</ele><time>2026-05-01T13:56:50Z</time></trkpt><trkpt lat="45.280203849646895" lon="3.8424254968236586"><ele>942.0</ele><time>2026-05-01T13:56:51Z</time></trkpt><trkpt lat="45.280261258029775" lon="3.8425936920898285"><ele>942.5</ele><time>2026-05-01T13:56:52Z</time></trkpt><trkpt lat="45.28031319479282" lon="3.842744759658296"><ele>943.0</ele><time>2026-05-01T13:56:53Z</time></trkpt><trkpt lat="45.28037454727106" lon="3.8429099434522747"><ele>944.5</ele><time>2026-05-01T13:56:54Z</time></trkpt><trkpt lat="45.28043113450923" lon="3.843060230220808"><ele>946.0</ele><time>2026-05-01T13:56:55Z</time></trkpt><trkpt lat="45.28047407729424" lon="3.8432317906858464"><ele>947.5</ele><time>2026-05-01T13:56:56Z</time></trkpt><trkpt lat="45.28052929335184" lon="3.8433942934452077"><ele>949.0</ele><time>2026-05-01T13:56:57Z</time></trkpt><trkpt lat="45.28057602587278" lon="3.843541436065213"><ele>950.25</ele><time>2026-05-01T13:56:58Z</time></trkpt><trkpt lat="45.2806200248323" lon="3.843726791889559"><ele>951.5</ele><time>2026-05-01T13:56:59Z</time></trkpt><trkpt lat="45.28067316570708" lon="3.8438860107729735"><ele>952.75</ele><time>2026-05-01T13:57:00Z</time></trkpt><trkpt lat="45.280731850936895" lon="3.844026444769622"><ele>954.0</ele><time>2026-05-01T13:57:01Z</time></trkpt><trkpt lat="45.28078504744389" lon="3.8442186331201116"><ele>954.75</ele><time>2026-05-01T13:57:02Z</time></trkpt><trkpt lat="45.280870717943884" lon="3.844412342082503"><ele>955.5</ele><time>2026-05-01T13:57:03Z</time></trkpt><trkpt lat="45.28094205236033" lon="3.8445819408747406"><ele>956.25</ele><time>2026-05-01T13:57:04Z</time></trkpt><trkpt lat="45.28100809220326" lon="3.8447641455601085"><ele>957.0</ele><time>2026-05-01T13:57:05Z</time></trkpt><trkpt lat="45.28105514756468" lon="3.8449464465448098"><ele>957.0</ele><time>2026-05-01T13:57:06Z</time></trkpt><trkpt lat="45.28109389499953" lon="3.845119257053723"><ele>957.0</ele><time>2026-05-01T13:57:07Z</time></trkpt><trkpt lat="45.281141332128875" lon="3.845289823217489"><ele>957.0</ele><time>2026-05-01T13:57:08Z</time></trkpt><trkpt lat="45.28120398487009" lon="3.845470789336545"><ele>957.0</ele><time>2026-05-01T13:57:09Z</time></trkpt><trkpt lat="45.28127267868632" lon="3.845666363380235"><ele>957.0</ele><time>2026-05-01T13:57:10Z</time></trkpt><trkpt lat="45.28135982436952" lon="3.8458662668548174"><ele>957.0</ele><time>2026-05-01T13:57:11Z</time></trkpt><trkpt lat="45.281433246307174" lon="3.84604777136938"><ele>957.0</ele><time>2026-05-01T13:57:12Z</time></trkpt><trkpt lat="45.281489500242756" lon="3.84619506179511"><ele>957.0</ele><time>2026-05-01T13:57:13Z</time></trkpt><trkpt lat="45.28154339970064" lon="3.846357368926342"><ele>955.75</ele><time>2026-05-01T13:57:14Z</time></trkpt><trkpt lat="45.281610139318005" lon="3.8465294601196076"><ele>954.5</ele><time>2026-05-01T13:57:15Z</time></trkpt><trkpt lat="45.2816764425844" lon="3.8467016988208544"><ele>953.25</ele><time>2026-05-01T13:57:16Z</time></trkpt><trkpt lat="45.281739651773975" lon="3.846851234277228"><ele>952.0</ele><time>2026-05-01T13:57:17Z</time></trkpt><trkpt lat="45.281805303635046" lon="3.8470146816583006"><ele>952.0</ele><time>2026-05-01T13:57:18Z</time></trkpt><trkpt lat="45.281860908829906" lon="3.847164290654686"><ele>952.0</ele><time>2026-05-01T13:57:19Z</time></trkpt><trkpt lat="45.2819179444199" lon="3.8473040644502445"><ele>952.0</ele><time>2026-05-01T13:57:20Z</time></trkpt><trkpt lat="45.281996044164444" lon="3.8474887582269277"><ele>952.0</ele><time>2026-05-01T13:57:21Z</time></trkpt><trkpt lat="45.28206436520088" lon="3.8476378603201145"><ele>952.5</ele><time>2026-05-01T13:57:22Z</time></trkpt><trkpt lat="45.282128873659005" lon="3.8478102717901224"><ele>953.0</ele><time>2026-05-01T13:57:23Z</time></trkpt><trkpt lat="45.28219928504061" lon="3.8479709391440204"><ele>953.5</ele><time>2026-05-01T13:57:24Z</time></trkpt><trkpt lat="45.28226005265972" lon="3.8481036599278773"><ele>954.0</ele><time>2026-05-01T13:57:25Z</time></trkpt><trkpt lat="45.28231874039779" lon="3.8482406594803558"><ele>954.5</ele><time>2026-05-01T13:57:26Z</time></trkpt><trkpt lat="45.282369774219944" lon="3.8483909087528994"><ele>955.0</ele><time>2026-05-01T13:57:27Z</time></trkpt><trkpt lat="45.28243424453762" lon="3.8485367886024786"><ele>955.5</ele><time>2026-05-01T13:57:28Z</time></trkpt><trkpt lat="45.28250369436573" lon="3.848702444134177"><ele>956.0</ele><time>2026-05-01T13:57:29Z</time></trkpt><trkpt lat="45.2825665792723" lon="3.848847592279567"><ele>956.4</ele><time>2026-05-01T13:57:30Z</time></trkpt><trkpt lat="45.282623368821874" lon="3.8489846042797966"><ele>956.8</ele><time>2026-05-01T13:57:31Z</time></trkpt><trkpt lat="45.28267924322969" lon="3.849120599611068"><ele>957.1999999999999</ele><time>2026-05-01T13:57:32Z</time></trkpt><trkpt lat="45.28273190579782" lon="3.8492317817528154"><ele>957.5999999999999</ele><time>2026-05-01T13:57:33Z</time></trkpt><trkpt lat="45.2827797333144" lon="3.849329980114126"><ele>958.0</ele><time>2026-05-01T13:57:34Z</time></trkpt><trkpt lat="45.282826973182004" lon="3.849417294633757"><ele>958.0</ele><time>2026-05-01T13:57:35Z</time></trkpt><trkpt lat="45.28286931260358" lon="3.84949361596038"><ele>958.0</ele><time>2026-05-01T13:57:36Z</time></trkpt><trkpt lat="45.2829290241633" lon="3.8495785311724853"><ele>958.0</ele><time>2026-05-01T13:57:37Z</time></trkpt><trkpt lat="45.28301133561016" lon="3.8496848068384213"><ele>958.0</ele><time>2026-05-01T13:57:38Z</time></trkpt><trkpt lat="45.28310864238899" lon="3.8498187574791567"><ele>958.0</ele><time>2026-05-01T13:57:39Z</time></trkpt><trkpt lat="45.28321218587807" lon="3.849970910305406"><ele>957.6666666666666</ele><time>2026-05-01T13:57:40Z</time></trkpt><trkpt lat="45.28332258430148" lon="3.850141451250629"><ele>957.3333333333333</ele><time>2026-05-01T13:57:41Z</time></trkpt><trkpt lat="45.28344729896645" lon="3.8503342085136913"><ele>957.0</ele><time>2026-05-01T13:57:42Z</time></trkpt><trkpt lat="45.28355807337641" lon="3.8504910290364283"><ele>957.0</ele><time>2026-05-01T13:57:43Z</time></trkpt><trkpt lat="45.28366383932383" lon="3.850655225811195"><ele>957.0</ele><time>2026-05-01T13:57:44Z</time></trkpt><trkpt lat="45.28377240613841" lon="3.8508099323239784"><ele>957.0</ele><time>2026-05-01T13:57:45Z</time></trkpt><trkpt lat="45.28387423582241" lon="3.8509502828304276"><ele>957.0</ele><time>2026-05-01T13:57:46Z</time></trkpt><trkpt lat="45.28395418823549" lon="3.851102771303674"><ele>957.0</ele><time>2026-05-01T13:57:47Z</time></trkpt><trkpt lat="45.284040184337414" lon="3.851215026441156"><ele>957.0</ele><time>2026-05-01T13:57:48Z</time></trkpt><trkpt lat="45.284146691266" lon="3.851321769950826"><ele>957.0</ele><time>2026-05-01T13:57:49Z</time></trkpt><trkpt lat="45.284266754806666" lon="3.8514673060682334"><ele>957.0</ele><time>2026-05-01T13:57:50Z</time></trkpt><trkpt lat="45.28440747200645" lon="3.851641713468031"><ele>957.0</ele><time>2026-05-01T13:57:51Z</time></trkpt><trkpt lat="45.284559349405384" lon="3.8518434382392037"><ele>957.0</ele><time>2026-05-01T13:57:52Z</time></trkpt><trkpt lat="45.28471809249236" lon="3.852048610095094"><ele>954.6666666666667</ele><time>2026-05-01T13:57:53Z</time></trkpt><trkpt lat="45.28486903835155" lon="3.852257316464493"><ele>952.3333333333334</ele><time>2026-05-01T13:57:54Z</time></trkpt><trkpt lat="45.285012249040136" lon="3.8524326863646388"><ele>950.0</ele><time>2026-05-01T13:57:55Z</time></trkpt><trkpt lat="45.285139217693676" lon="3.8526118819876127"><ele>948.3333333333334</ele><time>2026-05-01T13:57:56Z</time></trkpt><trkpt lat="45.28526354546894" lon="3.852723849331299"><ele>946.6666666666667</ele><time>2026-05-01T13:57:57Z</time></trkpt><trkpt lat="45.28538587289551" lon="3.8528462556879988"><ele>945.0</ele><time>2026-05-01T13:57:58Z</time></trkpt><trkpt lat="45.28548987157356" lon="3.8530103646672806"><ele>944.75</ele><time>2026-05-01T13:57:59Z</time></trkpt><trkpt lat="45.28559821346486" lon="3.8531455749098087"><ele>944.5</ele><time>2026-05-01T13:58:00Z</time></trkpt><trkpt lat="45.285684732439414" lon="3.853268576344893"><ele>944.25</ele><time>2026-05-01T13:58:01Z</time></trkpt><trkpt lat="45.285788510376655" lon="3.8533975633707587"><ele>944.0</ele><time>2026-05-01T13:58:02Z</time></trkpt><trkpt lat="45.28588616642888" lon="3.8535063042153355"><ele>945.75</ele><time>2026-05-01T13:58:03Z</time></trkpt><trkpt lat="45.28597206115991" lon="3.853626038415932"><ele>947.5</ele><time>2026-05-01T13:58:04Z</time></trkpt><trkpt lat="45.28605474525209" lon="3.8537685846866045"><ele>949.25</ele><time>2026-05-01T13:58:04.999Z</time></trkpt><trkpt lat="45.286156044902015" lon="3.8539403128017837"><ele>951.0</ele><time>2026-05-01T13:58:05.999Z</time></trkpt><trkpt lat="45.286259882048086" lon="3.8540619245958725"><ele>951.0</ele><time>2026-05-01T13:58:06.999Z</time></trkpt><trkpt lat="45.28635165803266" lon="3.854162094198459"><ele>951.0</ele><time>2026-05-01T13:58:07.999Z</time></trkpt><trkpt lat="45.286439505013746" lon="3.854257027441992"><ele>951.0</ele><time>2026-05-01T13:58:08.999Z</time></trkpt><trkpt lat="45.28652937388547" lon="3.8543771674552953"><ele>951.0</ele><time>2026-05-01T13:58:09.999Z</time></trkpt><trkpt lat="45.28662002594622" lon="3.854493825369695"><ele>952.0</ele><time>2026-05-01T13:58:10.999Z</time></trkpt><trkpt lat="45.28670471127706" lon="3.8546139362302596"><ele>953.0</ele><time>2026-05-01T13:58:11.999Z</time></trkpt><trkpt lat="45.28679367263632" lon="3.8547418913260154"><ele>954.0</ele><time>2026-05-01T13:58:12.999Z</time></trkpt><trkpt lat="45.28688022946989" lon="3.8548638439464487"><ele>955.0</ele><time>2026-05-01T13:58:13.999Z</time></trkpt><trkpt lat="45.28695137369986" lon="3.854983618126168"><ele>955.0</ele><time>2026-05-01T13:58:14.999Z</time></trkpt><trkpt lat="45.28701861973877" lon="3.8550846449942946"><ele>955.0</ele><time>2026-05-01T13:58:15.999Z</time></trkpt><trkpt lat="45.287102241386584" lon="3.855179205268834"><ele>955.0</ele><time>2026-05-01T13:58:16.999Z</time></trkpt><trkpt lat="45.2872102886868" lon="3.855291395219616"><ele>955.0</ele><time>2026-05-01T13:58:17.999Z</time></trkpt><trkpt lat="45.287351857670046" lon="3.855419724153354"><ele>955.3333333333333</ele><time>2026-05-01T13:58:18.999Z</time></trkpt><trkpt lat="45.287500273512244" lon="3.855556874869426"><ele>955.6666666666667</ele><time>2026-05-01T13:58:19.999Z</time></trkpt><trkpt lat="45.287617723045365" lon="3.855705077611258"><ele>956.0</ele><time>2026-05-01T13:58:20.999Z</time></trkpt><trkpt lat="45.287711676687636" lon="3.8558270478143917"><ele>956.0</ele><time>2026-05-01T13:58:21.999Z</time></trkpt><trkpt lat="45.287808480434656" lon="3.855932585006477"><ele>956.0</ele><time>2026-05-01T13:58:22.999Z</time></trkpt><trkpt lat="45.287917869774525" lon="3.8560209289258323"><ele>956.0</ele><time>2026-05-01T13:58:23.999Z</time></trkpt><trkpt lat="45.2880361668672" lon="3.856118359807884"><ele>956.0</ele><time>2026-05-01T13:58:24.999Z</time></trkpt><trkpt lat="45.28814487251909" lon="3.8562113585498246"><ele>957.25</ele><time>2026-05-01T13:58:25.999Z</time></trkpt><trkpt lat="45.288255616954416" lon="3.8562961576907155"><ele>958.5</ele><time>2026-05-01T13:58:26.999Z</time></trkpt><trkpt lat="45.288353109518916" lon="3.8563705650357187"><ele>959.75</ele><time>2026-05-01T13:58:27.999Z</time></trkpt><trkpt lat="45.288451809041426" lon="3.856442593397193"><ele>961.0</ele><time>2026-05-01T13:58:28.999Z</time></trkpt><trkpt lat="45.288552319266294" lon="3.856515165870782"><ele>961.0</ele><time>2026-05-01T13:58:29.999Z</time></trkpt><trkpt lat="45.2886652733456" lon="3.856593758870201"><ele>961.0</ele><time>2026-05-01T13:58:30.999Z</time></trkpt><trkpt lat="45.28878821185008" lon="3.856693455179392"><ele>961.0</ele><time>2026-05-01T13:58:31.999Z</time></trkpt><trkpt lat="45.288917545399855" lon="3.8567999379199445"><ele>961.0</ele><time>2026-05-01T13:58:32.999Z</time></trkpt><trkpt lat="45.28903962045809" lon="3.8568889482060076"><ele>960.1999999999999</ele><time>2026-05-01T13:58:33.999Z</time></trkpt><trkpt lat="45.289147562058645" lon="3.856972641474462"><ele>959.3999999999999</ele><time>2026-05-01T13:58:34.999Z</time></trkpt><trkpt lat="45.28924609237333" lon="3.8570493527019885"><ele>958.6</ele><time>2026-05-01T13:58:35.999Z</time></trkpt><trkpt lat="45.28932637553083" lon="3.8571100142037347"><ele>957.8</ele><time>2026-05-01T13:58:36.999Z</time></trkpt><trkpt lat="45.289396239171275" lon="3.8571697967490786"><ele>957.0</ele><time>2026-05-01T13:58:37.999Z</time></trkpt><trkpt lat="45.289469877157686" lon="3.8572222500193742"><ele>957.0</ele><time>2026-05-01T13:58:38.999Z</time></trkpt><trkpt lat="45.28955406911173" lon="3.8572671517307953"><ele>957.0</ele><time>2026-05-01T13:58:39.999Z</time></trkpt><trkpt lat="45.28964613625935" lon="3.857329114561093"><ele>957.0</ele><time>2026-05-01T13:58:40.999Z</time></trkpt><trkpt lat="45.28974579987443" lon="3.85743424682171"><ele>957.0</ele><time>2026-05-01T13:58:41.999Z</time></trkpt><trkpt lat="45.289852927174415" lon="3.857520626696049"><ele>957.0</ele><time>2026-05-01T13:58:42.999Z</time></trkpt><trkpt lat="45.289960771501576" lon="3.8575915762783923"><ele>956.2</ele><time>2026-05-01T13:58:43.999Z</time></trkpt><trkpt lat="45.29006386756527" lon="3.8576653288435563"><ele>955.4000000000001</ele><time>2026-05-01T13:58:44.999Z</time></trkpt><trkpt lat="45.29015563580498" lon="3.857757455034616"><ele>954.5999999999999</ele><time>2026-05-01T13:58:45.999Z</time></trkpt><trkpt lat="45.290246519739924" lon="3.8578238619297767"><ele>953.8</ele><time>2026-05-01T13:58:46.999Z</time></trkpt><trkpt lat="45.29031755085012" lon="3.8579015699844073"><ele>953.0</ele><time>2026-05-01T13:58:47.999Z</time></trkpt><trkpt lat="45.29037826810575" lon="3.8579545827052564"><ele>953.0</ele><time>2026-05-01T13:58:48.999Z</time></trkpt><trkpt lat="45.290488821032454" lon="3.858019896169069"><ele>953.0</ele><time>2026-05-01T13:58:50.999Z</time></trkpt><trkpt lat="45.29054109686338" lon="3.858083374215716"><ele>953.0</ele><time>2026-05-01T13:58:51.999Z</time></trkpt><trkpt lat="45.290588406285735" lon="3.858182853029889"><ele>953.0</ele><time>2026-05-01T13:58:52.999Z</time></trkpt><trkpt lat="45.290616493777556" lon="3.858319168444388"><ele>953.0</ele><time>2026-05-01T13:58:54Z</time></trkpt><trkpt lat="45.29064911337521" lon="3.8584958253756354"><ele>951.5</ele><time>2026-05-01T13:58:55Z</time></trkpt><trkpt lat="45.290684716858145" lon="3.8586754478563585"><ele>950.0</ele><time>2026-05-01T13:58:56Z</time></trkpt><trkpt lat="45.2907167217108" lon="3.8588468066842463"><ele>948.5</ele><time>2026-05-01T13:58:57Z</time></trkpt><trkpt lat="45.290756622222816" lon="3.8590227209961494"><ele>947.0</ele><time>2026-05-01T13:58:58Z</time></trkpt><trkpt lat="45.290792878499424" lon="3.8592138894453867"><ele>946.8</ele><time>2026-05-01T13:58:59Z</time></trkpt><trkpt lat="45.290828986552945" lon="3.8593843374530366"><ele>946.6</ele><time>2026-05-01T13:59:00Z</time></trkpt><trkpt lat="45.29086260373957" lon="3.8595344466294508"><ele>946.3999999999999</ele><time>2026-05-01T13:59:01Z</time></trkpt><trkpt lat="45.29089270631093" lon="3.8596731984498933"><ele>946.1999999999999</ele><time>2026-05-01T13:59:02Z</time></trkpt><trkpt lat="45.29091252439178" lon="3.8598034430422783"><ele>946.0</ele><time>2026-05-01T13:59:03Z</time></trkpt><trkpt lat="45.290931774157755" lon="3.859941187043247"><ele>946.0</ele><time>2026-05-01T13:59:04Z</time></trkpt><trkpt lat="45.29095487955935" lon="3.8600707595442074"><ele>945.9999999999999</ele><time>2026-05-01T13:59:05Z</time></trkpt><trkpt lat="45.2909731710578" lon="3.8601950500788313"><ele>945.9999999999999</ele><time>2026-05-01T13:59:06Z</time></trkpt><trkpt lat="45.29099957422183" lon="3.8603383207090882"><ele>946.0</ele><time>2026-05-01T13:59:07Z</time></trkpt><trkpt lat="45.29102842047603" lon="3.8604991605031906"><ele>946.0</ele><time>2026-05-01T13:59:08Z</time></trkpt><trkpt lat="45.29106092819029" lon="3.860654076149953"><ele>946.0</ele><time>2026-05-01T13:59:09Z</time></trkpt><trkpt lat="45.29109991570936" lon="3.860800496377596"><ele>946.0</ele><time>2026-05-01T13:59:10Z</time></trkpt><trkpt lat="45.29113598400039" lon="3.8609436790248712"><ele>946.0</ele><time>2026-05-01T13:59:11Z</time></trkpt><trkpt lat="45.291182316058496" lon="3.8611046731049417"><ele>946.0</ele><time>2026-05-01T13:59:12Z</time></trkpt><trkpt lat="45.291230300419635" lon="3.8612538879609146"><ele>945.9999999999999</ele><time>2026-05-01T13:59:13Z</time></trkpt><trkpt lat="45.29127692616935" lon="3.861386976061611"><ele>946.0</ele><time>2026-05-01T13:59:14Z</time></trkpt><trkpt lat="45.2913251861153" lon="3.8614816709265534"><ele>946.0</ele><time>2026-05-01T13:59:15Z</time></trkpt><trkpt lat="45.29135751554603" lon="3.861602093376721"><ele>946.0</ele><time>2026-05-01T13:59:16Z</time></trkpt><trkpt lat="45.29136516359162" lon="3.8616958208625687"><ele>945.9999999999999</ele><time>2026-05-01T13:59:17Z</time></trkpt><trkpt lat="45.291417585962236" lon="3.8618032225529495"><ele>946.0</ele><time>2026-05-01T13:59:18Z</time></trkpt><trkpt lat="45.29148646661683" lon="3.8619284775959555"><ele>944.1999999999999</ele><time>2026-05-01T13:59:19Z</time></trkpt><trkpt lat="45.29151696783694" lon="3.8620152961621774"><ele>942.3999999999999</ele><time>2026-05-01T13:59:20Z</time></trkpt><trkpt lat="45.29156133469185" lon="3.862159437416236"><ele>940.6</ele><time>2026-05-01T13:59:22Z</time></trkpt><trkpt lat="45.29156698112549" lon="3.8623028642705615"><ele>938.8</ele><time>2026-05-01T13:59:24Z</time></trkpt><trkpt lat="45.29155162257064" lon="3.862466119143446"><ele>937.0</ele><time>2026-05-01T13:59:26Z</time></trkpt><trkpt lat="45.29154529317809" lon="3.862568686249014"><ele>936.6</ele><time>2026-05-01T13:59:27Z</time></trkpt><trkpt lat="45.291565539749165" lon="3.8626790970097398"><ele>936.2</ele><time>2026-05-01T13:59:28Z</time></trkpt><trkpt lat="45.291590816181966" lon="3.862802166269011"><ele>935.8</ele><time>2026-05-01T13:59:29Z</time></trkpt><trkpt lat="45.29160340239288" lon="3.8629457425912124"><ele>935.4</ele><time>2026-05-01T13:59:30Z</time></trkpt><trkpt lat="45.291615849276134" lon="3.863111613260429"><ele>935.0</ele><time>2026-05-01T13:59:31Z</time></trkpt><trkpt lat="45.291635897249364" lon="3.8632817419289824"><ele>935.0</ele><time>2026-05-01T13:59:32Z</time></trkpt><trkpt lat="45.29165435965606" lon="3.8634463640232197"><ele>935.0</ele><time>2026-05-01T13:59:33Z</time></trkpt><trkpt lat="45.29168104749959" lon="3.8636131394913926"><ele>935.0</ele><time>2026-05-01T13:59:34Z</time></trkpt><trkpt lat="45.2917132952834" lon="3.8637750409434792"><ele>935.0</ele><time>2026-05-01T13:59:35Z</time></trkpt><trkpt lat="45.2917503366643" lon="3.8639306452977285"><ele>935.0</ele><time>2026-05-01T13:59:36Z</time></trkpt><trkpt lat="45.291806620235995" lon="3.8640839216622567"><ele>935.0</ele><time>2026-05-01T13:59:37Z</time></trkpt><trkpt lat="45.2918622442527" lon="3.8642442785128908"><ele>935.0</ele><time>2026-05-01T13:59:38Z</time></trkpt><trkpt lat="45.29191683979513" lon="3.864384050019757"><ele>935.0</ele><time>2026-05-01T13:59:39Z</time></trkpt><trkpt lat="45.29198342048761" lon="3.864507684430929"><ele>935.5</ele><time>2026-05-01T13:59:40Z</time></trkpt><trkpt lat="45.29204889161493" lon="3.864628587934478"><ele>936.0</ele><time>2026-05-01T13:59:41Z</time></trkpt><trkpt lat="45.292122613172076" lon="3.8647650109093306"><ele>936.5</ele><time>2026-05-01T13:59:42Z</time></trkpt><trkpt lat="45.292205019095015" lon="3.864917476385184"><ele>937.0</ele><time>2026-05-01T13:59:43Z</time></trkpt><trkpt lat="45.29229567322363" lon="3.865081327061593"><ele>937.0</ele><time>2026-05-01T13:59:44Z</time></trkpt><trkpt lat="45.29238467877101" lon="3.865234427445157"><ele>937.0</ele><time>2026-05-01T13:59:45Z</time></trkpt><trkpt lat="45.29247790668877" lon="3.8653752831631576"><ele>937.0</ele><time>2026-05-01T13:59:46Z</time></trkpt><trkpt lat="45.292581075539864" lon="3.8655293949840805"><ele>937.0</ele><time>2026-05-01T13:59:47Z</time></trkpt><trkpt lat="45.292660666979735" lon="3.8656449135729565"><ele>937.0</ele><time>2026-05-01T13:59:48Z</time></trkpt><trkpt lat="45.29273565234598" lon="3.8657704680084697"><ele>937.0</ele><time>2026-05-01T13:59:49Z</time></trkpt><trkpt lat="45.29280154153978" lon="3.8658797287490447"><ele>937.0</ele><time>2026-05-01T13:59:50Z</time></trkpt><trkpt lat="45.292860296049255" lon="3.8659978069140717"><ele>937.0</ele><time>2026-05-01T13:59:51Z</time></trkpt><trkpt lat="45.292920422269134" lon="3.8661406659851116"><ele>937.0</ele><time>2026-05-01T13:59:52Z</time></trkpt><trkpt lat="45.292973348401496" lon="3.8662739988451675"><ele>937.3333333333333</ele><time>2026-05-01T13:59:53Z</time></trkpt><trkpt lat="45.293013757486726" lon="3.8664089455586557"><ele>937.6666666666666</ele><time>2026-05-01T13:59:54Z</time></trkpt><trkpt lat="45.29304540115549" lon="3.8665129158738383"><ele>938.0</ele><time>2026-05-01T13:59:55Z</time></trkpt><trkpt lat="45.29307911316675" lon="3.866630850452951"><ele>938.3333333333333</ele><time>2026-05-01T13:59:56Z</time></trkpt><trkpt lat="45.293102223787045" lon="3.8667455128842447"><ele>938.6666666666666</ele><time>2026-05-01T13:59:57Z</time></trkpt><trkpt lat="45.29312640948089" lon="3.8668675923950118"><ele>939.0</ele><time>2026-05-01T13:59:58Z</time></trkpt><trkpt lat="45.29315483467454" lon="3.867020545271666"><ele>936.2</ele><time>2026-05-01T13:59:59Z</time></trkpt><trkpt lat="45.293172640642275" lon="3.8671693283471433"><ele>933.4000000000001</ele><time>2026-05-01T14:00:00Z</time></trkpt><trkpt lat="45.29319387196577" lon="3.867310645388369"><ele>930.6</ele><time>2026-05-01T14:00:01Z</time></trkpt><trkpt lat="45.293177758884234" lon="3.867431323524522"><ele>927.8</ele><time>2026-05-01T14:00:02Z</time></trkpt><trkpt lat="45.29316407127005" lon="3.867549478884831"><ele>925.0</ele><time>2026-05-01T14:00:03Z</time></trkpt><trkpt lat="45.29315712968122" lon="3.86766520502324"><ele>925.0</ele><time>2026-05-01T14:00:04Z</time></trkpt><trkpt lat="45.293177031512535" lon="3.867782585048333"><ele>925.0</ele><time>2026-05-01T14:00:05Z</time></trkpt><trkpt lat="45.29320444126413" lon="3.8679277489657182"><ele>925.0</ele><time>2026-05-01T14:00:06Z</time></trkpt><trkpt lat="45.29324658887855" lon="3.868096364510727"><ele>925.0</ele><time>2026-05-01T14:00:07Z</time></trkpt><trkpt lat="45.29327378055011" lon="3.868235633501303"><ele>925.0</ele><time>2026-05-01T14:00:08Z</time></trkpt><trkpt lat="45.293314430612426" lon="3.8683648368314048"><ele>924.6666666666666</ele><time>2026-05-01T14:00:09Z</time></trkpt><trkpt lat="45.29335246990282" lon="3.8684895785048528"><ele>924.3333333333333</ele><time>2026-05-01T14:00:10Z</time></trkpt><trkpt lat="45.29337446624613" lon="3.8686140096932755"><ele>924.0</ele><time>2026-05-01T14:00:11Z</time></trkpt><trkpt lat="45.29339522002678" lon="3.868754743563204"><ele>923.6666666666667</ele><time>2026-05-01T14:00:13Z</time></trkpt><trkpt lat="45.293393765635045" lon="3.868851194467821"><ele>923.3333333333334</ele><time>2026-05-01T14:00:15Z</time></trkpt><trkpt lat="45.293352823043556" lon="3.86895651518204"><ele>923.0</ele><time>2026-05-01T14:00:17Z</time></trkpt><trkpt lat="45.29329370263747" lon="3.8690298949369404"><ele>923.0</ele><time>2026-05-01T14:00:19.999Z</time></trkpt><trkpt lat="45.293212362957426" lon="3.869166114886316"><ele>923.0</ele><time>2026-05-01T14:00:21.999Z</time></trkpt><trkpt lat="45.293149200148285" lon="3.8692831867600277"><ele>923.0</ele><time>2026-05-01T14:00:22.999Z</time></trkpt><trkpt lat="45.293068152007294" lon="3.8693435530543234"><ele>923.0</ele><time>2026-05-01T14:00:23.999Z</time></trkpt><trkpt lat="45.2930007252811" lon="3.8693857091909676"><ele>923.0</ele><time>2026-05-01T14:00:24.999Z</time></trkpt><trkpt lat="45.29293540066384" lon="3.8694136549182807"><ele>924.0</ele><time>2026-05-01T14:00:25.999Z</time></trkpt><trkpt lat="45.29285201332995" lon="3.869435968604279"><ele>925.0</ele><time>2026-05-01T14:00:27.999Z</time></trkpt><trkpt lat="45.292780132825115" lon="3.869437295840513"><ele>926.0</ele><time>2026-05-01T14:00:29.999Z</time></trkpt><trkpt lat="45.29270939573666" lon="3.8694697542803382"><ele>927.0</ele><time>2026-05-01T14:00:32.999Z</time></trkpt><trkpt lat="45.2925802025532" lon="3.8695603675928574"><ele>928.0</ele><time>2026-05-01T14:00:36.999Z</time></trkpt><trkpt lat="45.29242428531126" lon="3.8695809680983437"><ele>928.0</ele><time>2026-05-01T14:00:37.999Z</time></trkpt><trkpt lat="45.2922671258036" lon="3.869640936790551"><ele>928.0</ele><time>2026-05-01T14:00:38.999Z</time></trkpt><trkpt lat="45.292088462772625" lon="3.869697716227088"><ele>928.0</ele><time>2026-05-01T14:00:39.999Z</time></trkpt><trkpt lat="45.29196834785933" lon="3.8697812482054657"><ele>928.2</ele><time>2026-05-01T14:00:40.999Z</time></trkpt><trkpt lat="45.2918556624913" lon="3.869826492822092"><ele>928.4</ele><time>2026-05-01T14:00:41.999Z</time></trkpt><trkpt lat="45.291766799377584" lon="3.869855972213057"><ele>928.6000000000001</ele><time>2026-05-01T14:00:42.999Z</time></trkpt><trkpt lat="45.29167128613706" lon="3.8698854076898823"><ele>928.8000000000001</ele><time>2026-05-01T14:00:43.999Z</time></trkpt><trkpt lat="45.291582749339916" lon="3.86990756853395"><ele>929.0</ele><time>2026-05-01T14:00:44.999Z</time></trkpt><trkpt lat="45.291470540729954" lon="3.8699254787968345"><ele>928.3333333333334</ele><time>2026-05-01T14:00:45.999Z</time></trkpt><trkpt lat="45.29132437747426" lon="3.8699526196176404"><ele>927.6666666666667</ele><time>2026-05-01T14:00:46.999Z</time></trkpt><trkpt lat="45.291159752763505" lon="3.8699881827295965"><ele>927.0</ele><time>2026-05-01T14:00:47.999Z</time></trkpt><trkpt lat="45.29097840964146" lon="3.8700398954880497"><ele>927.0</ele><time>2026-05-01T14:00:48.999Z</time></trkpt><trkpt lat="45.290808335346206" lon="3.8700886713170752"><ele>927.0</ele><time>2026-05-01T14:00:49.999Z</time></trkpt><trkpt lat="45.290661083117776" lon="3.8701309647292907"><ele>927.0</ele><time>2026-05-01T14:00:50.999Z</time></trkpt><trkpt lat="45.290500453443734" lon="3.870168962537258"><ele>926.5</ele><time>2026-05-01T14:00:51.999Z</time></trkpt><trkpt lat="45.29036372215943" lon="3.8701932894838396"><ele>926.0</ele><time>2026-05-01T14:00:52.999Z</time></trkpt><trkpt lat="45.290242189079365" lon="3.8702327899681195"><ele>925.5</ele><time>2026-05-01T14:00:53.999Z</time></trkpt><trkpt lat="45.2901213989985" lon="3.8702425026856333"><ele>925.0</ele><time>2026-05-01T14:00:54.999Z</time></trkpt><trkpt lat="45.29001825726538" lon="3.8702834027360624"><ele>925.0</ele><time>2026-05-01T14:00:55.999Z</time></trkpt><trkpt lat="45.28993116782387" lon="3.870358725857601"><ele>925.0</ele><time>2026-05-01T14:00:56.999Z</time></trkpt><trkpt lat="45.289818015949265" lon="3.870504061152442"><ele>925.0</ele><time>2026-05-01T14:00:57.999Z</time></trkpt><trkpt lat="45.28969777657681" lon="3.870679032875148"><ele>925.0</ele><time>2026-05-01T14:00:58.999Z</time></trkpt><trkpt lat="45.28957620495653" lon="3.870870577452442"><ele>922.25</ele><time>2026-05-01T14:01:00Z</time></trkpt><trkpt lat="45.28947159628404" lon="3.8710449096990467"><ele>919.5</ele><time>2026-05-01T14:01:01Z</time></trkpt><trkpt lat="45.289374583765024" lon="3.871199936890689"><ele>916.75</ele><time>2026-05-01T14:01:02Z</time></trkpt><trkpt lat="45.289285767485524" lon="3.8713550547014832"><ele>914.0</ele><time>2026-05-01T14:01:03Z</time></trkpt><trkpt lat="45.289231431323174" lon="3.8715320802251485"><ele>914.0</ele><time>2026-05-01T14:01:04Z</time></trkpt><trkpt lat="45.28916969473763" lon="3.871694464838575"><ele>914.0000000000001</ele><time>2026-05-01T14:01:05Z</time></trkpt><trkpt lat="45.28913346961283" lon="3.871848874812129"><ele>914.0000000000001</ele><time>2026-05-01T14:01:06Z</time></trkpt><trkpt lat="45.28907521694359" lon="3.87196776008677"><ele>914.0</ele><time>2026-05-01T14:01:07Z</time></trkpt><trkpt lat="45.28901461595786" lon="3.872056824555247"><ele>914.0</ele><time>2026-05-01T14:01:09Z</time></trkpt><trkpt lat="45.28893446360759" lon="3.872059639469164"><ele>910.6</ele><time>2026-05-01T14:01:10Z</time></trkpt><trkpt lat="45.288856491032426" lon="3.8719749458177666"><ele>907.2</ele><time>2026-05-01T14:01:11Z</time></trkpt><trkpt lat="45.2887922895857" lon="3.8718976397781253"><ele>903.8000000000001</ele><time>2026-05-01T14:01:12Z</time></trkpt><trkpt lat="45.28869828976104" lon="3.871827753853976"><ele>900.4000000000001</ele><time>2026-05-01T14:01:13Z</time></trkpt><trkpt lat="45.28861188024144" lon="3.8717907506723463"><ele>897.0</ele><time>2026-05-01T14:01:14Z</time></trkpt><trkpt lat="45.288514981140686" lon="3.8717966209516175"><ele>897.0</ele><time>2026-05-01T14:01:15Z</time></trkpt><trkpt lat="45.288417672181616" lon="3.8718577285281386"><ele>897.0</ele><time>2026-05-01T14:01:16Z</time></trkpt><trkpt lat="45.28832133614068" lon="3.871804720943339"><ele>897.0</ele><time>2026-05-01T14:01:17Z</time></trkpt><trkpt lat="45.28821611414988" lon="3.871804720937207"><ele>897.0</ele><time>2026-05-01T14:01:18Z</time></trkpt><trkpt lat="45.28814915229899" lon="3.8718167653504856"><ele>897.0</ele><time>2026-05-01T14:01:19Z</time></trkpt><trkpt lat="45.28811706536915" lon="3.871722946174417"><ele>897.5</ele><time>2026-05-01T14:01:20Z</time></trkpt><trkpt lat="45.28806088415812" lon="3.8716046465009986"><ele>898.0</ele><time>2026-05-01T14:01:21Z</time></trkpt><trkpt lat="45.28803290867901" lon="3.871437294976697"><ele>898.5</ele><time>2026-05-01T14:01:22Z</time></trkpt><trkpt lat="45.28800748938955" lon="3.8712438582333015"><ele>899.0</ele><time>2026-05-01T14:01:23Z</time></trkpt><trkpt lat="45.288001387354896" lon="3.8710587256766407"><ele>899.75</ele><time>2026-05-01T14:01:24Z</time></trkpt><trkpt lat="45.287995382430594" lon="3.8708790396320176"><ele>900.5</ele><time>2026-05-01T14:01:25Z</time></trkpt><trkpt lat="45.28799192040597" lon="3.87067066384608"><ele>901.25</ele><time>2026-05-01T14:01:26Z</time></trkpt><trkpt lat="45.287984069041364" lon="3.870458686771104"><ele>902.0</ele><time>2026-05-01T14:01:27Z</time></trkpt><trkpt lat="45.28794903091295" lon="3.8702803966874515"><ele>903.3333333333334</ele><time>2026-05-01T14:01:28Z</time></trkpt><trkpt lat="45.287895800911706" lon="3.8700940086980036"><ele>904.6666666666667</ele><time>2026-05-01T14:01:29Z</time></trkpt><trkpt lat="45.287799914022145" lon="3.8698930046014732"><ele>906.0</ele><time>2026-05-01T14:01:30Z</time></trkpt><trkpt lat="45.287694668918945" lon="3.8697296686012095"><ele>906.0</ele><time>2026-05-01T14:01:31Z</time></trkpt><trkpt lat="45.28763527651907" lon="3.869593555516071"><ele>905.9999999999999</ele><time>2026-05-01T14:01:32Z</time></trkpt><trkpt lat="45.28757318674884" lon="3.86951198108845"><ele>905.9999999999999</ele><time>2026-05-01T14:01:33Z</time></trkpt><trkpt lat="45.28748250028334" lon="3.869506210007294"><ele>906.0</ele><time>2026-05-01T14:01:34Z</time></trkpt><trkpt lat="45.287386808916416" lon="3.8695000574793292"><ele>906.0</ele><time>2026-05-01T14:01:35Z</time></trkpt><trkpt lat="45.28730755648883" lon="3.86952069232494"><ele>906.0</ele><time>2026-05-01T14:01:36Z</time></trkpt><trkpt lat="45.28723866944638" lon="3.8695967448800306"><ele>906.0</ele><time>2026-05-01T14:01:37Z</time></trkpt><trkpt lat="45.28723096131097" lon="3.869774180568012"><ele>906.0</ele><time>2026-05-01T14:01:38Z</time></trkpt><trkpt lat="45.28720469772495" lon="3.8699538280617682"><ele>906.0</ele><time>2026-05-01T14:01:39Z</time></trkpt><trkpt lat="45.28715661009928" lon="3.870148951359573"><ele>906.0</ele><time>2026-05-01T14:01:40Z</time></trkpt><trkpt lat="45.28709464886668" lon="3.8703205353625427"><ele>906.0</ele><time>2026-05-01T14:01:41Z</time></trkpt><trkpt lat="45.287002985284786" lon="3.870530557681457"><ele>906.0</ele><time>2026-05-01T14:01:42Z</time></trkpt><trkpt lat="45.28689407049457" lon="3.8707434647285432"><ele>906.0</ele><time>2026-05-01T14:01:43Z</time></trkpt><trkpt lat="45.28679367249325" lon="3.870912664187439"><ele>906.0</ele><time>2026-05-01T14:01:44Z</time></trkpt><trkpt lat="45.286704827060746" lon="3.8710618312988627"><ele>906.0</ele><time>2026-05-01T14:01:45Z</time></trkpt><trkpt lat="45.28663187646704" lon="3.8712091014797974"><ele>906.0</ele><time>2026-05-01T14:01:46Z</time></trkpt><trkpt lat="45.28654802732305" lon="3.8713203876510525"><ele>905.5999999999999</ele><time>2026-05-01T14:01:47Z</time></trkpt><trkpt lat="45.28647058036455" lon="3.871442541741057"><ele>905.1999999999999</ele><time>2026-05-01T14:01:48Z</time></trkpt><trkpt lat="45.28639606802974" lon="3.871556120650816"><ele>904.8000000000001</ele><time>2026-05-01T14:01:49Z</time></trkpt><trkpt lat="45.286330090991285" lon="3.8716524695379513"><ele>904.4000000000001</ele><time>2026-05-01T14:01:50Z</time></trkpt><trkpt lat="45.28627561419031" lon="3.871728968818649"><ele>904.0</ele><time>2026-05-01T14:01:51Z</time></trkpt><trkpt lat="45.28620729924414" lon="3.871817839045708"><ele>901.6</ele><time>2026-05-01T14:01:52Z</time></trkpt><trkpt lat="45.28612281785851" lon="3.8719160268143358"><ele>899.2</ele><time>2026-05-01T14:01:53Z</time></trkpt><trkpt lat="45.28603191567242" lon="3.8720188752229645"><ele>896.8000000000001</ele><time>2026-05-01T14:01:54Z</time></trkpt><trkpt lat="45.285956450461356" lon="3.872124657697866"><ele>894.4000000000001</ele><time>2026-05-01T14:01:55Z</time></trkpt><trkpt lat="45.285902254512294" lon="3.8722331043386533"><ele>892.0</ele><time>2026-05-01T14:01:56Z</time></trkpt><trkpt lat="45.28583058421764" lon="3.8724174732975394"><ele>892.0</ele><time>2026-05-01T14:01:58Z</time></trkpt><trkpt lat="45.28579008035329" lon="3.8725508756432183"><ele>892.0</ele><time>2026-05-01T14:01:59Z</time></trkpt><trkpt lat="45.285780045910265" lon="3.872689382113299"><ele>892.0</ele><time>2026-05-01T14:02:00Z</time></trkpt><trkpt lat="45.285754897023175" lon="3.8728334347376583"><ele>892.0</ele><time>2026-05-01T14:02:01Z</time></trkpt><trkpt lat="45.28574209332979" lon="3.8729839890588806"><ele>892.0</ele><time>2026-05-01T14:02:02Z</time></trkpt><trkpt lat="45.28575109600497" lon="3.8731555891484866"><ele>890.2</ele><time>2026-05-01T14:02:03Z</time></trkpt><trkpt lat="45.28574984791946" lon="3.8733118898240804"><ele>888.4000000000001</ele><time>2026-05-01T14:02:04Z</time></trkpt><trkpt lat="45.28573142819162" lon="3.873455048590191"><ele>886.5999999999999</ele><time>2026-05-01T14:02:05Z</time></trkpt><trkpt lat="45.2857055833691" lon="3.87359239056991"><ele>884.8</ele><time>2026-05-01T14:02:06Z</time></trkpt><trkpt lat="45.285673198684684" lon="3.873737397731865"><ele>883.0</ele><time>2026-05-01T14:02:07Z</time></trkpt><trkpt lat="45.28563475520652" lon="3.873906257648633"><ele>882.0</ele><time>2026-05-01T14:02:08Z</time></trkpt><trkpt lat="45.28559549496172" lon="3.8740676837283723"><ele>881.0</ele><time>2026-05-01T14:02:09Z</time></trkpt><trkpt lat="45.28555657455667" lon="3.8742355068845953"><ele>880.0</ele><time>2026-05-01T14:02:10Z</time></trkpt><trkpt lat="45.28551423738404" lon="3.8744144498671313"><ele>879.0</ele><time>2026-05-01T14:02:11Z</time></trkpt><trkpt lat="45.285473503336554" lon="3.87461336995543"><ele>877.25</ele><time>2026-05-01T14:02:12Z</time></trkpt><trkpt lat="45.285436605519465" lon="3.8747961596987883"><ele>875.5</ele><time>2026-05-01T14:02:12.999Z</time></trkpt><trkpt lat="45.28539788060623" lon="3.8749632801254594"><ele>873.75</ele><time>2026-05-01T14:02:13.999Z</time></trkpt><trkpt lat="45.28535043587106" lon="3.8751214552230095"><ele>872.0</ele><time>2026-05-01T14:02:14.999Z</time></trkpt><trkpt lat="45.28530751704113" lon="3.875302428885815"><ele>872.0</ele><time>2026-05-01T14:02:15.999Z</time></trkpt><trkpt lat="45.285244485003794" lon="3.875519374012947"><ele>872.0</ele><time>2026-05-01T14:02:16.999Z</time></trkpt><trkpt lat="45.28518052074545" lon="3.875704182321515"><ele>872.0</ele><time>2026-05-01T14:02:17.999Z</time></trkpt><trkpt lat="45.28512917587105" lon="3.8758940244616227"><ele>871.8</ele><time>2026-05-01T14:02:18.999Z</time></trkpt><trkpt lat="45.28509117053992" lon="3.8760664217339036"><ele>871.6</ele><time>2026-05-01T14:02:19.999Z</time></trkpt><trkpt lat="45.28506589392667" lon="3.8762117131326987"><ele>871.3999999999999</ele><time>2026-05-01T14:02:20.999Z</time></trkpt><trkpt lat="45.285055758816426" lon="3.8763611636554964"><ele>871.1999999999999</ele><time>2026-05-01T14:02:21.999Z</time></trkpt><trkpt lat="45.28505370833253" lon="3.8765039560828347"><ele>871.0</ele><time>2026-05-01T14:02:22.999Z</time></trkpt><trkpt lat="45.2850721716776" lon="3.8766460544722294"><ele>870.0</ele><time>2026-05-01T14:02:23.999Z</time></trkpt><trkpt lat="45.285084738346235" lon="3.8768051862008033"><ele>868.9999999999999</ele><time>2026-05-01T14:02:24.999Z</time></trkpt><trkpt lat="45.28510989482456" lon="3.8769459740312393"><ele>867.9999999999999</ele><time>2026-05-01T14:02:25.999Z</time></trkpt><trkpt lat="45.28514454364417" lon="3.8770661969215467"><ele>867.0</ele><time>2026-05-01T14:02:26.999Z</time></trkpt><trkpt lat="45.28517119492875" lon="3.8771518313115023"><ele>866.0</ele><time>2026-05-01T14:02:27.999Z</time></trkpt><trkpt lat="45.28517617111129" lon="3.8772838333851376"><ele>866.0</ele><time>2026-05-01T14:02:29.999Z</time></trkpt><trkpt lat="45.285197214707665" lon="3.8774388045084494"><ele>865.9999999999999</ele><time>2026-05-01T14:02:31.999Z</time></trkpt><trkpt lat="45.28522478387537" lon="3.877542575996287"><ele>865.9999999999999</ele><time>2026-05-01T14:02:33.999Z</time></trkpt><trkpt lat="45.28523611630447" lon="3.877671591375252"><ele>866.0</ele><time>2026-05-01T14:03:21Z</time></trkpt><trkpt lat="45.28526583368431" lon="3.877783939528971"><ele>866.0</ele><time>2026-05-01T14:03:22Z</time></trkpt><trkpt lat="45.285291519419836" lon="3.8779150421043607"><ele>865.0000000000001</ele><time>2026-05-01T14:03:24Z</time></trkpt><trkpt lat="45.28532577812981" lon="3.8780269408896357"><ele>864.0</ele><time>2026-05-01T14:03:26Z</time></trkpt><trkpt lat="45.28534589533368" lon="3.8781238628613486"><ele>863.0</ele><time>2026-05-01T14:03:28Z</time></trkpt><trkpt lat="45.285379623376116" lon="3.878241107209782"><ele>862.0</ele><time>2026-05-01T14:03:31Z</time></trkpt><trkpt lat="45.28538826646285" lon="3.8783470909081723"><ele>861.0000000000001</ele><time>2026-05-01T14:03:34Z</time></trkpt><trkpt lat="45.28540955293475" lon="3.878461711412753"><ele>860.0</ele><time>2026-05-01T14:03:37Z</time></trkpt><trkpt lat="45.285436946155215" lon="3.878555072352114"><ele>859.0000000000001</ele><time>2026-05-01T14:03:39Z</time></trkpt><trkpt lat="45.28544427990964" lon="3.878655126026455"><ele>858.0</ele><time>2026-05-01T14:03:41Z</time></trkpt><trkpt lat="45.28546454925299" lon="3.8787532716647677"><ele>857.0</ele><time>2026-05-01T14:03:43Z</time></trkpt><trkpt lat="45.28547936462265" lon="3.878842803345978"><ele>856.0</ele><time>2026-05-01T14:03:45Z</time></trkpt><trkpt lat="45.285507903162234" lon="3.878924161510432"><ele>855.0000000000001</ele><time>2026-05-01T14:03:47Z</time></trkpt><trkpt lat="45.28556360624715" lon="3.8790208337019587"><ele>854.0</ele><time>2026-05-01T14:03:49Z</time></trkpt><trkpt lat="45.2856460847097" lon="3.879081918242723"><ele>854.0</ele><time>2026-05-01T14:03:51Z</time></trkpt><trkpt lat="45.28572067521331" lon="3.879110091711399"><ele>854.0000000000001</ele><time>2026-05-01T14:03:53Z</time></trkpt><trkpt lat="45.285801358026944" lon="3.879144628382161"><ele>854.0000000000001</ele><time>2026-05-01T14:03:55Z</time></trkpt><trkpt lat="45.2858825399761" lon="3.8791805621513196"><ele>854.0</ele><time>2026-05-01T14:03:56Z</time></trkpt><trkpt lat="45.285999269991834" lon="3.8792448803587565"><ele>854.0</ele><time>2026-05-01T14:03:57Z</time></trkpt><trkpt lat="45.28612994099199" lon="3.879385716441736"><ele>851.0</ele><time>2026-05-01T14:03:58Z</time></trkpt><trkpt lat="45.28628154872793" lon="3.8795022609086245"><ele>848.0</ele><time>2026-05-01T14:03:59Z</time></trkpt><trkpt lat="45.286408814628594" lon="3.8796200268773076"><ele>845.0</ele><time>2026-05-01T14:04:00Z</time></trkpt><trkpt lat="45.28652859134348" lon="3.879712721492831"><ele>844.75</ele><time>2026-05-01T14:04:01Z</time></trkpt><trkpt lat="45.286655454229816" lon="3.8797842654153945"><ele>844.5</ele><time>2026-05-01T14:04:02Z</time></trkpt><trkpt lat="45.28678757076317" lon="3.879837028427925"><ele>844.25</ele><time>2026-05-01T14:04:03Z</time></trkpt><trkpt lat="45.28691960469246" lon="3.8798960951689194"><ele>844.0</ele><time>2026-05-01T14:04:04Z</time></trkpt><trkpt lat="45.28703208516349" lon="3.879945895896124"><ele>844.0</ele><time>2026-05-01T14:04:05Z</time></trkpt><trkpt lat="45.28712886195287" lon="3.8799688365340583"><ele>844.0</ele><time>2026-05-01T14:04:06Z</time></trkpt><trkpt lat="45.28722187592829" lon="3.880015890431479"><ele>844.0</ele><time>2026-05-01T14:04:07Z</time></trkpt><trkpt lat="45.28731399110331" lon="3.880058398135628"><ele>844.0</ele><time>2026-05-01T14:04:08Z</time></trkpt><trkpt lat="45.287411504573654" lon="3.8800892970010885"><ele>844.0</ele><time>2026-05-01T14:04:09Z</time></trkpt><trkpt lat="45.2875094070803" lon="3.8801196491251395"><ele>842.4000000000001</ele><time>2026-05-01T14:04:10Z</time></trkpt><trkpt lat="45.28762396387423" lon="3.8801474161063365"><ele>840.8</ele><time>2026-05-01T14:04:11Z</time></trkpt><trkpt lat="45.28772411459605" lon="3.8801690206863735"><ele>839.2</ele><time>2026-05-01T14:04:12Z</time></trkpt><trkpt lat="45.28783405737482" lon="3.880190278238571"><ele>837.5999999999999</ele><time>2026-05-01T14:04:13Z</time></trkpt><trkpt lat="45.287934264045234" lon="3.880227307620917"><ele>836.0</ele><time>2026-05-01T14:04:14Z</time></trkpt><trkpt lat="45.28805404543477" lon="3.8802654554749316"><ele>836.75</ele><time>2026-05-01T14:04:15Z</time></trkpt><trkpt lat="45.28817982896496" lon="3.880325696142395"><ele>837.5</ele><time>2026-05-01T14:04:16Z</time></trkpt><trkpt lat="45.288315927223486" lon="3.8804104151867342"><ele>838.25</ele><time>2026-05-01T14:04:17Z</time></trkpt><trkpt lat="45.288456341762924" lon="3.8805021454562434"><ele>839.0</ele><time>2026-05-01T14:04:18Z</time></trkpt><trkpt lat="45.2885923007738" lon="3.880574231098846"><ele>839.0</ele><time>2026-05-01T14:04:19Z</time></trkpt><trkpt lat="45.288703296761746" lon="3.8806610384900697"><ele>839.0</ele><time>2026-05-01T14:04:20Z</time></trkpt><trkpt lat="45.28882626227289" lon="3.8807416598789275"><ele>839.0</ele><time>2026-05-01T14:04:21Z</time></trkpt><trkpt lat="45.28895644984648" lon="3.8808286069735027"><ele>839.0</ele><time>2026-05-01T14:04:22Z</time></trkpt><trkpt lat="45.28907882035542" lon="3.880909865166978"><ele>839.25</ele><time>2026-05-01T14:04:23Z</time></trkpt><trkpt lat="45.28919848476369" lon="3.881006618255972"><ele>839.5</ele><time>2026-05-01T14:04:24Z</time></trkpt><trkpt lat="45.28931864680412" lon="3.881112423993727"><ele>839.75</ele><time>2026-05-01T14:04:25Z</time></trkpt><trkpt lat="45.28943286966918" lon="3.881236977554907"><ele>840.0</ele><time>2026-05-01T14:04:25.999Z</time></trkpt><trkpt lat="45.28957471172194" lon="3.8813424639138105"><ele>840.0</ele><time>2026-05-01T14:04:26.999Z</time></trkpt><trkpt lat="45.289740085055406" lon="3.8814071522789404"><ele>840.0</ele><time>2026-05-01T14:04:27.999Z</time></trkpt><trkpt lat="45.28992442744545" lon="3.8814724845181243"><ele>840.0</ele><time>2026-05-01T14:04:28.999Z</time></trkpt><trkpt lat="45.29012715174797" lon="3.881527733966666"><ele>840.0</ele><time>2026-05-01T14:04:29.999Z</time></trkpt><trkpt lat="45.29030161832534" lon="3.88161667210947"><ele>840.0</ele><time>2026-05-01T14:04:30.999Z</time></trkpt><trkpt lat="45.29045962803995" lon="3.881725989726899"><ele>840.0</ele><time>2026-05-01T14:04:31.999Z</time></trkpt><trkpt lat="45.2906084123948" lon="3.881854339958191"><ele>837.0</ele><time>2026-05-01T14:04:32.999Z</time></trkpt><trkpt lat="45.29074761671035" lon="3.881993572914778"><ele>834.0</ele><time>2026-05-01T14:04:33.999Z</time></trkpt><trkpt lat="45.29087567769613" lon="3.8821349572355652"><ele>831.0</ele><time>2026-05-01T14:04:34.999Z</time></trkpt><trkpt lat="45.2910104285958" lon="3.8822624012481213"><ele>831.0</ele><time>2026-05-01T14:04:35.999Z</time></trkpt><trkpt lat="45.29112603415556" lon="3.8824041012374035"><ele>831.0</ele><time>2026-05-01T14:04:36.999Z</time></trkpt><trkpt lat="45.291240291954516" lon="3.8825429102309252"><ele>831.0</ele><time>2026-05-01T14:04:37.999Z</time></trkpt><trkpt lat="45.29134422033626" lon="3.882693471961525"><ele>830.0</ele><time>2026-05-01T14:04:38.999Z</time></trkpt><trkpt lat="45.29146323525224" lon="3.882794122506628"><ele>829.0</ele><time>2026-05-01T14:04:39.999Z</time></trkpt><trkpt lat="45.291551264841324" lon="3.8828798148670063"><ele>828.0</ele><time>2026-05-01T14:04:40.999Z</time></trkpt><trkpt lat="45.291645953584116" lon="3.8829349704590226"><ele>827.0</ele><time>2026-05-01T14:04:41.999Z</time></trkpt><trkpt lat="45.291731264713185" lon="3.8830210701039385"><ele>827.0</ele><time>2026-05-01T14:04:42.999Z</time></trkpt><trkpt lat="45.29185961655528" lon="3.882944744727475"><ele>827.0</ele><time>2026-05-01T14:04:43.999Z</time></trkpt><trkpt lat="45.291961590842256" lon="3.8829370278107933"><ele>827.0</ele><time>2026-05-01T14:04:44.999Z</time></trkpt><trkpt lat="45.292055787934096" lon="3.88294004975872"><ele>827.0</ele><time>2026-05-01T14:04:45.999Z</time></trkpt><trkpt lat="45.292150975883" lon="3.8829590114861876"><ele>827.0</ele><time>2026-05-01T14:04:46.999Z</time></trkpt><trkpt lat="45.29224283700294" lon="3.882988735039492"><ele>826.4000000000001</ele><time>2026-05-01T14:04:47.999Z</time></trkpt><trkpt lat="45.29233205134445" lon="3.8830248184815246"><ele>825.8000000000001</ele><time>2026-05-01T14:04:48.999Z</time></trkpt><trkpt lat="45.292420260647184" lon="3.8830697658311335"><ele>825.2</ele><time>2026-05-01T14:04:49.999Z</time></trkpt><trkpt lat="45.29249482922397" lon="3.883110643898153"><ele>824.6</ele><time>2026-05-01T14:04:50.999Z</time></trkpt><trkpt lat="45.292590534041665" lon="3.883160549792779"><ele>824.0</ele><time>2026-05-01T14:04:51.999Z</time></trkpt><trkpt lat="45.29267389439831" lon="3.8832241786076738"><ele>824.0000000000001</ele><time>2026-05-01T14:04:52.999Z</time></trkpt><trkpt lat="45.292741597405104" lon="3.883301287702716"><ele>824.0</ele><time>2026-05-01T14:04:53.999Z</time></trkpt><trkpt lat="45.292795858349486" lon="3.883418751131696"><ele>824.0</ele><time>2026-05-01T14:04:55.999Z</time></trkpt><trkpt lat="45.29286130968286" lon="3.883474319163228"><ele>824.0</ele><time>2026-05-01T14:04:57.999Z</time></trkpt><trkpt lat="45.292941285777076" lon="3.883477579808201"><ele>824.0000000000001</ele><time>2026-05-01T14:04:58.999Z</time></trkpt><trkpt lat="45.2930438796116" lon="3.8834567453593696"><ele>824.0</ele><time>2026-05-01T14:04:59.999Z</time></trkpt><trkpt lat="45.29316563357271" lon="3.8834282117753833"><ele>824.75</ele><time>2026-05-01T14:05:00.999Z</time></trkpt><trkpt lat="45.29327265372297" lon="3.8834370182914006"><ele>825.5</ele><time>2026-05-01T14:05:01.999Z</time></trkpt><trkpt lat="45.29338917161963" lon="3.8836011021195707"><ele>826.25</ele><time>2026-05-01T14:05:03.999Z</time></trkpt><trkpt lat="45.29341297329181" lon="3.8837476435124625"><ele>827.0</ele><time>2026-05-01T14:05:04.999Z</time></trkpt><trkpt lat="45.293389788852" lon="3.8839268829644635"><ele>827.0</ele><time>2026-05-01T14:05:05.999Z</time></trkpt><trkpt lat="45.29339534944476" lon="3.8841094345667377"><ele>827.0</ele><time>2026-05-01T14:05:06.999Z</time></trkpt><trkpt lat="45.29339340922183" lon="3.884298624877002"><ele>827.0</ele><time>2026-05-01T14:05:07.999Z</time></trkpt><trkpt lat="45.29343895578129" lon="3.8844937189299626"><ele>827.0</ele><time>2026-05-01T14:05:08.999Z</time></trkpt><trkpt lat="45.293510366596855" lon="3.884668996011757"><ele>827.3333333333334</ele><time>2026-05-01T14:05:09.999Z</time></trkpt><trkpt lat="45.29360845797096" lon="3.8848422691669526"><ele>827.6666666666667</ele><time>2026-05-01T14:05:10.999Z</time></trkpt><trkpt lat="45.293725409189726" lon="3.884996986365394"><ele>828.0</ele><time>2026-05-01T14:05:12Z</time></trkpt><trkpt lat="45.29384361302506" lon="3.8851691601178704"><ele>831.3333333333333</ele><time>2026-05-01T14:05:13Z</time></trkpt><trkpt lat="45.293963079457285" lon="3.8853504826832737"><ele>834.6666666666666</ele><time>2026-05-01T14:05:14Z</time></trkpt><trkpt lat="45.29406929800387" lon="3.885526153827618"><ele>838.0</ele><time>2026-05-01T14:05:15Z</time></trkpt><trkpt lat="45.29419202731119" lon="3.885703873510673"><ele>838.0</ele><time>2026-05-01T14:05:16Z</time></trkpt><trkpt lat="45.294292521416104" lon="3.885897096652209"><ele>838.0</ele><time>2026-05-01T14:05:17Z</time></trkpt><trkpt lat="45.29440084061869" lon="3.886071656592224"><ele>838.0</ele><time>2026-05-01T14:05:18Z</time></trkpt><trkpt lat="45.29451091812991" lon="3.886220652711311"><ele>838.0</ele><time>2026-05-01T14:05:19Z</time></trkpt><trkpt lat="45.294605299088666" lon="3.886387684843632"><ele>838.0</ele><time>2026-05-01T14:05:20Z</time></trkpt><trkpt lat="45.294701510577106" lon="3.886535099653801"><ele>838.0</ele><time>2026-05-01T14:05:21Z</time></trkpt><trkpt lat="45.29480119041374" lon="3.886671116979457"><ele>838.0</ele><time>2026-05-01T14:05:22Z</time></trkpt><trkpt lat="45.29488265117809" lon="3.886766188761738"><ele>840.5</ele><time>2026-05-01T14:05:23Z</time></trkpt><trkpt lat="45.294980053217365" lon="3.886828175157685"><ele>843.0</ele><time>2026-05-01T14:05:24Z</time></trkpt><trkpt lat="45.295108776722856" lon="3.8868472974573627"><ele>845.5</ele><time>2026-05-01T14:05:25Z</time></trkpt><trkpt lat="45.29522758036404" lon="3.886836146914038"><ele>848.0</ele><time>2026-05-01T14:05:26Z</time></trkpt><trkpt lat="45.29533855869941" lon="3.8868102442427745"><ele>848.0</ele><time>2026-05-01T14:05:27Z</time></trkpt><trkpt lat="45.29544208189404" lon="3.8867855939159193"><ele>848.0</ele><time>2026-05-01T14:05:28Z</time></trkpt><trkpt lat="45.29554476804396" lon="3.8867509457695877"><ele>848.0</ele><time>2026-05-01T14:05:29Z</time></trkpt><trkpt lat="45.2956510348371" lon="3.886722637435892"><ele>848.0</ele><time>2026-05-01T14:05:30Z</time></trkpt><trkpt lat="45.29575801667521" lon="3.8867042475469558"><ele>848.0</ele><time>2026-05-01T14:05:31Z</time></trkpt><trkpt lat="45.2958645987676" lon="3.8866824852260735"><ele>848.4</ele><time>2026-05-01T14:05:32Z</time></trkpt><trkpt lat="45.295971570720845" lon="3.886665398531547"><ele>848.8</ele><time>2026-05-01T14:05:33Z</time></trkpt><trkpt lat="45.29608357538503" lon="3.886646035948629"><ele>849.2</ele><time>2026-05-01T14:05:34Z</time></trkpt><trkpt lat="45.29619281854701" lon="3.886636233023707"><ele>849.6</ele><time>2026-05-01T14:05:35Z</time></trkpt><trkpt lat="45.29630405202344" lon="3.886645994709871"><ele>850.0</ele><time>2026-05-01T14:05:36Z</time></trkpt><trkpt lat="45.29642406819861" lon="3.886679364954134"><ele>850.25</ele><time>2026-05-01T14:05:37Z</time></trkpt><trkpt lat="45.2965443563746" lon="3.886730446257422"><ele>850.5</ele><time>2026-05-01T14:05:38Z</time></trkpt><trkpt lat="45.2966674557429" lon="3.886767750689643"><ele>850.75</ele><time>2026-05-01T14:05:39Z</time></trkpt><trkpt lat="45.29679792030678" lon="3.8867846038286435"><ele>851.0</ele><time>2026-05-01T14:05:40Z</time></trkpt><trkpt lat="45.29693010012059" lon="3.8867960560169954"><ele>851.25</ele><time>2026-05-01T14:05:41Z</time></trkpt><trkpt lat="45.297061832424845" lon="3.8867825570871375"><ele>851.5</ele><time>2026-05-01T14:05:42Z</time></trkpt><trkpt lat="45.29719633659424" lon="3.886762726059848"><ele>851.75</ele><time>2026-05-01T14:05:43Z</time></trkpt><trkpt lat="45.297327973910306" lon="3.8867459306001857"><ele>852.0</ele><time>2026-05-01T14:05:44Z</time></trkpt><trkpt lat="45.29745998991649" lon="3.8867418197040164"><ele>852.0</ele><time>2026-05-01T14:05:45Z</time></trkpt><trkpt lat="45.29758431854397" lon="3.8867360358170253"><ele>852.0</ele><time>2026-05-01T14:05:46Z</time></trkpt><trkpt lat="45.29768957918653" lon="3.8867241233393854"><ele>852.0</ele><time>2026-05-01T14:05:47Z</time></trkpt><trkpt lat="45.29776485008708" lon="3.8867241665114887"><ele>852.0</ele><time>2026-05-01T14:05:48Z</time></trkpt><trkpt lat="45.29783861173538" lon="3.886815280531782"><ele>852.0</ele><time>2026-05-01T14:05:50Z</time></trkpt><trkpt lat="45.29786096406618" lon="3.886911731239235"><ele>851.8333333333334</ele><time>2026-05-01T14:05:51Z</time></trkpt><trkpt lat="45.2978884061767" lon="3.8870033610123835"><ele>851.6666666666667</ele><time>2026-05-01T14:05:52Z</time></trkpt><trkpt lat="45.29793040486439" lon="3.8870905564027853"><ele>851.5</ele><time>2026-05-01T14:05:53Z</time></trkpt><trkpt lat="45.297974695699175" lon="3.8871651903298554"><ele>851.3333333333334</ele><time>2026-05-01T14:05:54Z</time></trkpt><trkpt lat="45.29811190454284" lon="3.8872072119978127"><ele>851.1666666666667</ele><time>2026-05-01T14:05:56Z</time></trkpt><trkpt lat="45.29819546695732" lon="3.8871941878111316"><ele>851.0</ele><time>2026-05-01T14:05:57Z</time></trkpt><trkpt lat="45.29827279507349" lon="3.8871909711332693"><ele>850.1999999999999</ele><time>2026-05-01T14:05:58Z</time></trkpt><trkpt lat="45.29835373472668" lon="3.887235939898845"><ele>849.4</ele><time>2026-05-01T14:05:59Z</time></trkpt><trkpt lat="45.29842769309295" lon="3.8873531356855158"><ele>848.6</ele><time>2026-05-01T14:06:00Z</time></trkpt><trkpt lat="45.29852577189243" lon="3.88743174267895"><ele>847.8</ele><time>2026-05-01T14:06:01Z</time></trkpt><trkpt lat="45.29861476259349" lon="3.8874967837982237"><ele>847.0</ele><time>2026-05-01T14:06:02Z</time></trkpt><trkpt lat="45.29871788798004" lon="3.8875098752389934"><ele>847.0</ele><time>2026-05-01T14:06:03Z</time></trkpt><trkpt lat="45.2988198256894" lon="3.8874815968895273"><ele>847.0</ele><time>2026-05-01T14:06:04Z</time></trkpt><trkpt lat="45.298914852571194" lon="3.887436967894082"><ele>847.0</ele><time>2026-05-01T14:06:05Z</time></trkpt><trkpt lat="45.29899725086811" lon="3.887386829476772"><ele>847.0</ele><time>2026-05-01T14:06:06Z</time></trkpt><trkpt lat="45.29909959588559" lon="3.88734228803328"><ele>847.0</ele><time>2026-05-01T14:06:07Z</time></trkpt><trkpt lat="45.299224288450375" lon="3.8872784025711287"><ele>845.5</ele><time>2026-05-01T14:06:08Z</time></trkpt><trkpt lat="45.299346167169766" lon="3.887220516321775"><ele>844.0</ele><time>2026-05-01T14:06:09Z</time></trkpt><trkpt lat="45.299457621492174" lon="3.8871723552062503"><ele>842.5</ele><time>2026-05-01T14:06:10Z</time></trkpt><trkpt lat="45.2995586305497" lon="3.887151768791463"><ele>841.0</ele><time>2026-05-01T14:06:11Z</time></trkpt><trkpt lat="45.29966792179117" lon="3.8871477010590354"><ele>839.5</ele><time>2026-05-01T14:06:12Z</time></trkpt><trkpt lat="45.299796755638106" lon="3.8872189185459347"><ele>838.0</ele><time>2026-05-01T14:06:13Z</time></trkpt><trkpt lat="45.29994692260094" lon="3.8872600682823126"><ele>836.5</ele><time>2026-05-01T14:06:14Z</time></trkpt><trkpt lat="45.30007261372086" lon="3.8872842957059457"><ele>835.0</ele><time>2026-05-01T14:06:15Z</time></trkpt><trkpt lat="45.300139569437576" lon="3.887252074977127"><ele>835.0</ele><time>2026-05-01T14:06:17Z</time></trkpt><trkpt lat="45.30023913534235" lon="3.887201356575562"><ele>835.0</ele><time>2026-05-01T14:06:19Z</time></trkpt><trkpt lat="45.300302156920516" lon="3.8872240704628873"><ele>835.0</ele><time>2026-05-01T14:06:21Z</time></trkpt><trkpt lat="45.300197702136366" lon="3.887208416597432"><ele>835.0</ele><time>2026-05-01T14:06:25.999Z</time></trkpt><trkpt lat="45.300076968649115" lon="3.887235450609473"><ele>835.0</ele><time>2026-05-01T14:06:26.999Z</time></trkpt><trkpt lat="45.300010494341045" lon="3.887274319497407"><ele>835.0</ele><time>2026-05-01T14:06:27.999Z</time></trkpt><trkpt lat="45.2999445627061" lon="3.8874499611729925"><ele>835.0</ele><time>2026-05-01T14:06:29.999Z</time></trkpt><trkpt lat="45.29991869561517" lon="3.8875478683673905"><ele>835.0</ele><time>2026-05-01T14:06:30.999Z</time></trkpt><trkpt lat="45.29988705269046" lon="3.8876290322263114"><ele>835.0</ele><time>2026-05-01T14:06:31.999Z</time></trkpt><trkpt lat="45.29989420796924" lon="3.8878372891349575"><ele>835.0</ele><time>2026-05-01T14:06:33.999Z</time></trkpt><trkpt lat="45.2998990033591" lon="3.887968364619136"><ele>834.8333333333333</ele><time>2026-05-01T14:06:34.999Z</time></trkpt><trkpt lat="45.29987576110656" lon="3.8880794189770493"><ele>834.6666666666666</ele><time>2026-05-01T14:06:35.999Z</time></trkpt><trkpt lat="45.29983222337537" lon="3.8881743034067617"><ele>834.5</ele><time>2026-05-01T14:06:36.999Z</time></trkpt><trkpt lat="45.29978379078317" lon="3.888269884218589"><ele>834.3333333333333</ele><time>2026-05-01T14:06:37.999Z</time></trkpt><trkpt lat="45.299740554286494" lon="3.8883680605419975"><ele>834.1666666666666</ele><time>2026-05-01T14:06:38.999Z</time></trkpt><trkpt lat="45.299707493256676" lon="3.888466208178197"><ele>834.0</ele><time>2026-05-01T14:06:39.999Z</time></trkpt><trkpt lat="45.29971085045747" lon="3.8885698486448432"><ele>833.0</ele><time>2026-05-01T14:06:40.999Z</time></trkpt><trkpt lat="45.299744508401744" lon="3.8886812929387014"><ele>832.0</ele><time>2026-05-01T14:06:41.999Z</time></trkpt><trkpt lat="45.29979579621562" lon="3.888794236864714"><ele>831.0</ele><time>2026-05-01T14:06:42.999Z</time></trkpt><trkpt lat="45.29990358505234" lon="3.8889033060576126"><ele>830.0</ele><time>2026-05-01T14:06:43.999Z</time></trkpt><trkpt lat="45.30002555355625" lon="3.889007404692618"><ele>829.2</ele><time>2026-05-01T14:06:44.999Z</time></trkpt><trkpt lat="45.300097108995985" lon="3.8890921161759446"><ele>828.4</ele><time>2026-05-01T14:06:45.999Z</time></trkpt><trkpt lat="45.300122712705154" lon="3.889270361281814"><ele>827.5999999999999</ele><time>2026-05-01T14:06:47.999Z</time></trkpt><trkpt lat="45.30013780824934" lon="3.8893881675608597"><ele>826.8</ele><time>2026-05-01T14:06:48.999Z</time></trkpt><trkpt lat="45.30017397966917" lon="3.8894938677199296"><ele>826.0</ele><time>2026-05-01T14:06:49.999Z</time></trkpt><trkpt lat="45.30024455048458" lon="3.889607102439662"><ele>825.1999999999999</ele><time>2026-05-01T14:06:50.999Z</time></trkpt><trkpt lat="45.300347852598684" lon="3.8896971224229944"><ele>824.4</ele><time>2026-05-01T14:06:51.999Z</time></trkpt><trkpt lat="45.300442882541475" lon="3.8898180434425313"><ele>823.6</ele><time>2026-05-01T14:06:52.999Z</time></trkpt><trkpt lat="45.30049935164797" lon="3.8899322827648217"><ele>822.8</ele><time>2026-05-01T14:06:53.999Z</time></trkpt><trkpt lat="45.300547849596065" lon="3.89003968978914"><ele>822.0</ele><time>2026-05-01T14:06:54.999Z</time></trkpt><trkpt lat="45.30059541541374" lon="3.890151258443948"><ele>819.6</ele><time>2026-05-01T14:06:55.999Z</time></trkpt><trkpt lat="45.30064627318103" lon="3.890249923401202"><ele>817.2</ele><time>2026-05-01T14:06:56.999Z</time></trkpt><trkpt lat="45.300685614278635" lon="3.8903454765334358"><ele>814.8</ele><time>2026-05-01T14:06:57.999Z</time></trkpt><trkpt lat="45.30070785801692" lon="3.8904438001452677"><ele>812.4</ele><time>2026-05-01T14:06:58.999Z</time></trkpt><trkpt lat="45.30074107929974" lon="3.890598703112026"><ele>810.0</ele><time>2026-05-01T14:07:00.999Z</time></trkpt><trkpt lat="45.30076931871996" lon="3.890740830137819"><ele>810.0</ele><time>2026-05-01T14:07:02.999Z</time></trkpt><trkpt lat="45.30078509302131" lon="3.8908290213946435"><ele>810.0</ele><time>2026-05-01T14:07:03.999Z</time></trkpt><trkpt lat="45.30080983423166" lon="3.890996212892542"><ele>810.0</ele><time>2026-05-01T14:07:05.999Z</time></trkpt><trkpt lat="45.30080391696425" lon="3.891095799675501"><ele>810.0</ele><time>2026-05-01T14:07:06.999Z</time></trkpt><trkpt lat="45.30078813863597" lon="3.891265039017965"><ele>810.0</ele><time>2026-05-01T14:07:08.999Z</time></trkpt><trkpt lat="45.30076165954005" lon="3.8913501678012996"><ele>810.0</ele><time>2026-05-01T14:07:09.999Z</time></trkpt><trkpt lat="45.3007198975789" lon="3.891418711618991"><ele>807.5</ele><time>2026-05-01T14:07:10.999Z</time></trkpt><trkpt lat="45.300662166492515" lon="3.8914724307122293"><ele>805.0</ele><time>2026-05-01T14:07:11.999Z</time></trkpt><trkpt lat="45.300590681465636" lon="3.8915114965401076"><ele>802.5</ele><time>2026-05-01T14:07:12.999Z</time></trkpt><trkpt lat="45.30052660329589" lon="3.891564932779466"><ele>800.0</ele><time>2026-05-01T14:07:13.999Z</time></trkpt><trkpt lat="45.30045839248142" lon="3.891616459857109"><ele>797.5</ele><time>2026-05-01T14:07:14.999Z</time></trkpt><trkpt lat="45.3003908059089" lon="3.891670848656682"><ele>795.0</ele><time>2026-05-01T14:07:15.999Z</time></trkpt><trkpt lat="45.3003200283522" lon="3.8917086056390366"><ele>794.3333333333334</ele><time>2026-05-01T14:07:16.999Z</time></trkpt><trkpt lat="45.30025718531956" lon="3.8917589546541294"><ele>793.6666666666667</ele><time>2026-05-01T14:07:18Z</time></trkpt><trkpt lat="45.30017465479957" lon="3.891824012091548"><ele>793.0</ele><time>2026-05-01T14:07:20Z</time></trkpt><trkpt lat="45.30017214860376" lon="3.891942416032691"><ele>792.3333333333334</ele><time>2026-05-01T14:07:22Z</time></trkpt><trkpt lat="45.30023645940154" lon="3.892032523969141"><ele>791.6666666666667</ele><time>2026-05-01T14:07:24Z</time></trkpt><trkpt lat="45.300298670528434" lon="3.892064797373201"><ele>791.0</ele><time>2026-05-01T14:07:29Z</time></trkpt><trkpt lat="45.30030052491634" lon="3.892165993046851"><ele>791.0</ele><time>2026-05-01T14:07:53Z</time></trkpt><trkpt lat="45.30029847649451" lon="3.892301538220508"><ele>791.0</ele><time>2026-05-01T14:07:55Z</time></trkpt><trkpt lat="45.30022105165582" lon="3.8923956364367607"><ele>791.0</ele><time>2026-05-01T14:07:57Z</time></trkpt><trkpt lat="45.30015836218073" lon="3.892425317823432"><ele>791.0</ele><time>2026-05-01T14:07:58Z</time></trkpt><trkpt lat="45.30007159375943" lon="3.8924354790821876"><ele>791.0</ele><time>2026-05-01T14:07:59Z</time></trkpt><trkpt lat="45.29999719991913" lon="3.8925806538314114"><ele>790.6666666666667</ele><time>2026-05-01T14:08:00Z</time></trkpt><trkpt lat="45.299894836630344" lon="3.892634454426704"><ele>790.3333333333334</ele><time>2026-05-01T14:08:01Z</time></trkpt><trkpt lat="45.29982292393595" lon="3.8926612497037842"><ele>790.0</ele><time>2026-05-01T14:08:02Z</time></trkpt><trkpt lat="45.29976016099162" lon="3.8927425136510476"><ele>789.6666666666667</ele><time>2026-05-01T14:08:09Z</time></trkpt><trkpt lat="45.2996850275602" lon="3.892828545609813"><ele>789.3333333333334</ele><time>2026-05-01T14:08:10Z</time></trkpt><trkpt lat="45.29964982090715" lon="3.892909547394042"><ele>789.0</ele><time>2026-05-01T14:08:11Z</time></trkpt><trkpt lat="45.299608170041445" lon="3.8930389279571673"><ele>789.0</ele><time>2026-05-01T14:08:13Z</time></trkpt><trkpt lat="45.29958647338097" lon="3.8931450574561866"><ele>789.0</ele><time>2026-05-01T14:08:15Z</time></trkpt><trkpt lat="45.29957064814141" lon="3.8932514800692704"><ele>789.0</ele><time>2026-05-01T14:08:16Z</time></trkpt><trkpt lat="45.29954754180368" lon="3.8934062992534035"><ele>789.0</ele><time>2026-05-01T14:08:17Z</time></trkpt><trkpt lat="45.299520186155384" lon="3.8936083922951696"><ele>789.0</ele><time>2026-05-01T14:08:18Z</time></trkpt><trkpt lat="45.29948307169485" lon="3.8937777324606344"><ele>789.0</ele><time>2026-05-01T14:08:19Z</time></trkpt><trkpt lat="45.299440360827724" lon="3.8939202233103614"><ele>789.0</ele><time>2026-05-01T14:08:20Z</time></trkpt><trkpt lat="45.299397809710534" lon="3.8940043429180973"><ele>789.0</ele><time>2026-05-01T14:08:21Z</time></trkpt><trkpt lat="45.299355768538476" lon="3.894109909524824"><ele>789.0</ele><time>2026-05-01T14:08:22Z</time></trkpt><trkpt lat="45.29929914122012" lon="3.8942592897944666"><ele>789.0</ele><time>2026-05-01T14:08:24Z</time></trkpt><trkpt lat="45.299065163124254" lon="3.8951807842067727"><ele>808.0</ele><time>2026-05-01T14:08:25Z</time></trkpt><trkpt lat="45.299776749165375" lon="3.8950567671270537"><ele>805.0</ele><time>2026-05-01T14:08:26Z</time></trkpt><trkpt lat="45.29983983828446" lon="3.8952142180404774"><ele>802.0</ele><time>2026-05-01T14:08:27Z</time></trkpt><trkpt lat="45.29993387291279" lon="3.8954010584583156"><ele>799.0</ele><time>2026-05-01T14:08:28Z</time></trkpt><trkpt lat="45.300053891884076" lon="3.8955847482951613"><ele>799.0</ele><time>2026-05-01T14:08:29Z</time></trkpt><trkpt lat="45.300162778986476" lon="3.8957604366226413"><ele>799.0</ele><time>2026-05-01T14:08:30Z</time></trkpt><trkpt lat="45.300253960346126" lon="3.895923573823784"><ele>799.0</ele><time>2026-05-01T14:08:31Z</time></trkpt><trkpt lat="45.30032082978676" lon="3.896101235038707"><ele>796.0</ele><time>2026-05-01T14:08:32Z</time></trkpt><trkpt lat="45.3003737215729" lon="3.896299452292176"><ele>793.0</ele><time>2026-05-01T14:08:33Z</time></trkpt><trkpt lat="45.300418268434065" lon="3.8964636766069036"><ele>790.0</ele><time>2026-05-01T14:08:34Z</time></trkpt><trkpt lat="45.30048418624332" lon="3.8965703405142595"><ele>787.0</ele><time>2026-05-01T14:08:35Z</time></trkpt><trkpt lat="45.30057945810212" lon="3.8966251252598325"><ele>793.25</ele><time>2026-05-01T14:08:36Z</time></trkpt><trkpt lat="45.30069273396078" lon="3.896649465943391"><ele>799.5</ele><time>2026-05-01T14:08:37Z</time></trkpt><trkpt lat="45.30081668144386" lon="3.89666261610897"><ele>805.75</ele><time>2026-05-01T14:08:38Z</time></trkpt><trkpt lat="45.30094583544756" lon="3.8966786068032375"><ele>812.0</ele><time>2026-05-01T14:08:38.999Z</time></trkpt><trkpt lat="45.30107040939378" lon="3.8966985035328023"><ele>812.0</ele><time>2026-05-01T14:08:39.999Z</time></trkpt><trkpt lat="45.301166770016785" lon="3.8967130755714012"><ele>812.0</ele><time>2026-05-01T14:08:40.999Z</time></trkpt><trkpt lat="45.301244068568344" lon="3.896727117472515"><ele>812.0</ele><time>2026-05-01T14:08:41.999Z</time></trkpt><trkpt lat="45.30135174615237" lon="3.8967855488893517"><ele>812.0</ele><time>2026-05-01T14:08:43.999Z</time></trkpt><trkpt lat="45.30140019616035" lon="3.8968930644597424"><ele>812.0</ele><time>2026-05-01T14:08:44.999Z</time></trkpt><trkpt lat="45.30144006777716" lon="3.8970255808472967"><ele>813.8</ele><time>2026-05-01T14:08:45.999Z</time></trkpt><trkpt lat="45.301491378198286" lon="3.897145655410741"><ele>815.6</ele><time>2026-05-01T14:08:46.999Z</time></trkpt><trkpt lat="45.301554112178415" lon="3.897229606824643"><ele>817.4</ele><time>2026-05-01T14:08:47.999Z</time></trkpt><trkpt lat="45.30163143371434" lon="3.897306122631127"><ele>819.1999999999999</ele><time>2026-05-01T14:08:48.999Z</time></trkpt><trkpt lat="45.30172613253072" lon="3.897388180796691"><ele>821.0</ele><time>2026-05-01T14:08:49.999Z</time></trkpt><trkpt lat="45.30182644547537" lon="3.897480526688075"><ele>821.0</ele><time>2026-05-01T14:08:50.999Z</time></trkpt><trkpt lat="45.3019473555659" lon="3.8975611127707186"><ele>821.0</ele><time>2026-05-01T14:08:51.999Z</time></trkpt><trkpt lat="45.302072045860875" lon="3.897652044323418"><ele>821.0</ele><time>2026-05-01T14:08:52.999Z</time></trkpt><trkpt lat="45.3021966503016" lon="3.8977689171511303"><ele>821.0</ele><time>2026-05-01T14:08:53.999Z</time></trkpt><trkpt lat="45.302305856790554" lon="3.897933230118454"><ele>822.0</ele><time>2026-05-01T14:08:54.999Z</time></trkpt><trkpt lat="45.302456661095206" lon="3.898050754876732"><ele>823.0</ele><time>2026-05-01T14:08:55.999Z</time></trkpt><trkpt lat="45.30260143541802" lon="3.8981843939421443"><ele>824.0</ele><time>2026-05-01T14:08:56.999Z</time></trkpt><trkpt lat="45.30273842469873" lon="3.898282424252593"><ele>824.0</ele><time>2026-05-01T14:08:57.999Z</time></trkpt><trkpt lat="45.30284767889156" lon="3.8983825657157074"><ele>824.0</ele><time>2026-05-01T14:08:58.999Z</time></trkpt><trkpt lat="45.30295160223535" lon="3.898463428254745"><ele>824.0</ele><time>2026-05-01T14:08:59.999Z</time></trkpt><trkpt lat="45.30306199012705" lon="3.89854509126414"><ele>824.0</ele><time>2026-05-01T14:09:00.999Z</time></trkpt><trkpt lat="45.30318883609135" lon="3.898590722092115"><ele>826.6666666666667</ele><time>2026-05-01T14:09:01.999Z</time></trkpt><trkpt lat="45.30328713423299" lon="3.8986759946520078"><ele>829.3333333333333</ele><time>2026-05-01T14:09:02.999Z</time></trkpt><trkpt lat="45.30335651553488" lon="3.898675367862255"><ele>832.0</ele><time>2026-05-01T14:09:03.999Z</time></trkpt><trkpt lat="45.30341734521119" lon="3.8990570359870267"><ele>832.0</ele><time>2026-05-01T14:09:05.999Z</time></trkpt><trkpt lat="45.30344327077779" lon="3.8992345151739474"><ele>832.0</ele><time>2026-05-01T14:09:06.999Z</time></trkpt><trkpt lat="45.30344074279943" lon="3.899456711582827"><ele>832.0</ele><time>2026-05-01T14:09:07.999Z</time></trkpt><trkpt lat="45.30341813653864" lon="3.899699633653312"><ele>832.3333333333333</ele><time>2026-05-01T14:09:08.999Z</time></trkpt><trkpt lat="45.303406183131294" lon="3.899972959037278"><ele>832.6666666666667</ele><time>2026-05-01T14:09:09.999Z</time></trkpt><trkpt lat="45.30340699664491" lon="3.900248778406733"><ele>833.0</ele><time>2026-05-01T14:09:10.999Z</time></trkpt><trkpt lat="45.30342203996122" lon="3.9004834320939397"><ele>833.0</ele><time>2026-05-01T14:09:11.999Z</time></trkpt><trkpt lat="45.30345453858432" lon="3.900707714962691"><ele>833.0</ele><time>2026-05-01T14:09:12.999Z</time></trkpt><trkpt lat="45.30350789904197" lon="3.900952590069358"><ele>833.0</ele><time>2026-05-01T14:09:13.999Z</time></trkpt><trkpt lat="45.303573775304564" lon="3.901187763625629"><ele>832.3333333333334</ele><time>2026-05-01T14:09:14.999Z</time></trkpt><trkpt lat="45.30364761628979" lon="3.9014196165509163"><ele>831.6666666666667</ele><time>2026-05-01T14:09:15.999Z</time></trkpt><trkpt lat="45.30371577200039" lon="3.9016440894806657"><ele>831.0</ele><time>2026-05-01T14:09:16.999Z</time></trkpt><trkpt lat="45.3037630377124" lon="3.901843967863536"><ele>830.5999999999999</ele><time>2026-05-01T14:09:17.999Z</time></trkpt><trkpt lat="45.30379122756381" lon="3.901989857999583"><ele>830.2</ele><time>2026-05-01T14:09:18.999Z</time></trkpt><trkpt lat="45.30381588620262" lon="3.902120132722532"><ele>829.8</ele><time>2026-05-01T14:09:19.999Z</time></trkpt><trkpt lat="45.30382938092166" lon="3.902245474889132"><ele>829.4000000000001</ele><time>2026-05-01T14:09:20.999Z</time></trkpt><trkpt lat="45.303853921640766" lon="3.902370229613882"><ele>829.0</ele><time>2026-05-01T14:09:21.999Z</time></trkpt><trkpt lat="45.30387725059315" lon="3.9025046341910783"><ele>828.8000000000001</ele><time>2026-05-01T14:09:22.999Z</time></trkpt><trkpt lat="45.303893730604315" lon="3.9026317207458163"><ele>828.6</ele><time>2026-05-01T14:09:24Z</time></trkpt><trkpt lat="45.30391916693579" lon="3.9027740953032533"><ele>828.4</ele><time>2026-05-01T14:09:25Z</time></trkpt><trkpt lat="45.30393906526542" lon="3.902945512035495"><ele>828.2</ele><time>2026-05-01T14:09:26Z</time></trkpt><trkpt lat="45.303957742553564" lon="3.903124950167051"><ele>828.0</ele><time>2026-05-01T14:09:27Z</time></trkpt><trkpt lat="45.30398393144759" lon="3.9032727637900146"><ele>827.3333333333334</ele><time>2026-05-01T14:09:28Z</time></trkpt><trkpt lat="45.30398780598243" lon="3.9033786003025015"><ele>826.6666666666667</ele><time>2026-05-01T14:09:29Z</time></trkpt><trkpt lat="45.303941204942994" lon="3.9034937636046227"><ele>826.0</ele><time>2026-05-01T14:09:31Z</time></trkpt><trkpt lat="45.30389069996518" lon="3.9035485699063"><ele>825.3333333333334</ele><time>2026-05-01T14:09:32Z</time></trkpt><trkpt lat="45.303829334495504" lon="3.9035965187772073"><ele>824.6666666666667</ele><time>2026-05-01T14:09:33Z</time></trkpt><trkpt lat="45.303761553250396" lon="3.9036711895258263"><ele>824.0</ele><time>2026-05-01T14:09:34Z</time></trkpt><trkpt lat="45.30370505109903" lon="3.9037460597445146"><ele>824.0</ele><time>2026-05-01T14:09:35Z</time></trkpt><trkpt lat="45.30366071487383" lon="3.9038286043437433"><ele>824.0</ele><time>2026-05-01T14:09:36Z</time></trkpt><trkpt lat="45.30363385094098" lon="3.9039134814667897"><ele>824.0</ele><time>2026-05-01T14:09:37Z</time></trkpt><trkpt lat="45.30363613637819" lon="3.90411201749245"><ele>824.0</ele><time>2026-05-01T14:09:39Z</time></trkpt><trkpt lat="45.30365609290621" lon="3.9042400850372223"><ele>824.0</ele><time>2026-05-01T14:09:40Z</time></trkpt><trkpt lat="45.303670436731956" lon="3.904361693685572"><ele>823.0</ele><time>2026-05-01T14:09:41Z</time></trkpt><trkpt lat="45.30368791676215" lon="3.9044760452996328"><ele>822.0</ele><time>2026-05-01T14:09:42Z</time></trkpt><trkpt lat="45.30369575077816" lon="3.904620526158711"><ele>821.0</ele><time>2026-05-01T14:09:43Z</time></trkpt><trkpt lat="45.303725804643676" lon="3.9047622211329176"><ele>820.0</ele><time>2026-05-01T14:09:44Z</time></trkpt><trkpt lat="45.303745884372944" lon="3.90488767109709"><ele>819.0</ele><time>2026-05-01T14:09:45Z</time></trkpt><trkpt lat="45.30374116741061" lon="3.9050131068792133"><ele>817.4000000000001</ele><time>2026-05-01T14:09:46Z</time></trkpt><trkpt lat="45.30373890090687" lon="3.9051641713020526"><ele>815.8</ele><time>2026-05-01T14:09:48Z</time></trkpt><trkpt lat="45.30376649209421" lon="3.9052996136151874"><ele>814.2</ele><time>2026-05-01T14:09:50Z</time></trkpt><trkpt lat="45.303809221408784" lon="3.905404074055701"><ele>812.5999999999999</ele><time>2026-05-01T14:09:52Z</time></trkpt><trkpt lat="45.30382872593456" lon="3.905497856329753"><ele>811.0</ele><time>2026-05-01T14:10:13Z</time></trkpt><trkpt lat="45.30375702810272" lon="3.9056146742623596"><ele>811.0</ele><time>2026-05-01T14:10:16Z</time></trkpt><trkpt lat="45.30371665136317" lon="3.905708419649914"><ele>811.0</ele><time>2026-05-01T14:10:19Z</time></trkpt><trkpt lat="45.30368400519076" lon="3.9058035580282295"><ele>811.0</ele><time>2026-05-01T14:10:22Z</time></trkpt><trkpt lat="45.3036455798565" lon="3.905906284165268"><ele>811.0</ele><time>2026-05-01T14:10:25Z</time></trkpt><trkpt lat="45.303611568722644" lon="3.90598607625574"><ele>811.0</ele><time>2026-05-01T14:10:27Z</time></trkpt><trkpt lat="45.303568413018866" lon="3.9060571665473236"><ele>811.0</ele><time>2026-05-01T14:10:30Z</time></trkpt><trkpt lat="45.30355124064489" lon="3.9061466698545217"><ele>811.0</ele><time>2026-05-01T14:10:33Z</time></trkpt><trkpt lat="45.30349276760385" lon="3.9061948790383743"><ele>809.6666666666666</ele><time>2026-05-01T14:10:38.999Z</time></trkpt><trkpt lat="45.30357271743682" lon="3.906178466852654"><ele>808.3333333333333</ele><time>2026-05-01T14:10:56.999Z</time></trkpt><trkpt lat="45.30365175264052" lon="3.906195213480154"><ele>807.0</ele><time>2026-05-01T14:10:57.999Z</time></trkpt><trkpt lat="45.30373683841597" lon="3.906219215931065"><ele>805.6666666666667</ele><time>2026-05-01T14:10:58.999Z</time></trkpt><trkpt lat="45.30380066845183" lon="3.906236109661847"><ele>804.3333333333334</ele><time>2026-05-01T14:10:59.999Z</time></trkpt><trkpt lat="45.30387210199484" lon="3.906245397149443"><ele>803.0</ele><time>2026-05-01T14:11:00.999Z</time></trkpt><trkpt lat="45.30394994323692" lon="3.906258646300702"><ele>803.0</ele><time>2026-05-01T14:11:01.999Z</time></trkpt><trkpt lat="45.30401255936536" lon="3.9062742146462326"><ele>803.0</ele><time>2026-05-01T14:11:02.999Z</time></trkpt><trkpt lat="45.30417164700459" lon="3.9063095322148955"><ele>803.0</ele><time>2026-05-01T14:11:04.999Z</time></trkpt><trkpt lat="45.304278866308756" lon="3.90635722409012"><ele>803.0</ele><time>2026-05-01T14:11:05.999Z</time></trkpt><trkpt lat="45.30436558246913" lon="3.9063940693533454"><ele>803.0</ele><time>2026-05-01T14:11:09.999Z</time></trkpt><trkpt lat="45.30437686626448" lon="3.9065253128947197"><ele>803.0</ele><time>2026-05-01T14:11:11.999Z</time></trkpt><trkpt lat="45.30437750108639" lon="3.9066257989791806"><ele>803.0</ele><time>2026-05-01T14:11:13.999Z</time></trkpt><trkpt lat="45.30437618332299" lon="3.907055298396441"><ele>803.0</ele><time>2026-05-01T14:11:16.999Z</time></trkpt><trkpt lat="45.30435796940824" lon="3.9071525202592796"><ele>803.0</ele><time>2026-05-01T14:11:17.999Z</time></trkpt><trkpt lat="45.30442473755832" lon="3.907323454130889"><ele>800.0</ele><time>2026-05-01T14:11:19.999Z</time></trkpt><trkpt lat="45.304460244901954" lon="3.9074092498980404"><ele>797.0</ele><time>2026-05-01T14:11:20.999Z</time></trkpt><trkpt lat="45.30451833426332" lon="3.907510679571115"><ele>794.0</ele><time>2026-05-01T14:11:21.999Z</time></trkpt><trkpt lat="45.304582734474515" lon="3.907629804136232"><ele>791.0</ele><time>2026-05-01T14:11:22.999Z</time></trkpt><trkpt lat="45.30464081834857" lon="3.9077592144369264"><ele>788.0</ele><time>2026-05-01T14:11:23.999Z</time></trkpt><trkpt lat="45.30468817505805" lon="3.9078905660561"><ele>787.5999999999999</ele><time>2026-05-01T14:11:24.999Z</time></trkpt><trkpt lat="45.304736843429765" lon="3.908022763304536"><ele>787.1999999999999</ele><time>2026-05-01T14:11:25.999Z</time></trkpt><trkpt lat="45.30480892875816" lon="3.9081305692814086"><ele>786.8</ele><time>2026-05-01T14:11:26.999Z</time></trkpt><trkpt lat="45.30486904741496" lon="3.908229924327192"><ele>786.4</ele><time>2026-05-01T14:11:27.999Z</time></trkpt><trkpt lat="45.30491184621118" lon="3.908316016774376"><ele>786.0</ele><time>2026-05-01T14:11:28.999Z</time></trkpt><trkpt lat="45.30496646722728" lon="3.9083900149092177"><ele>786.0</ele><time>2026-05-01T14:11:30Z</time></trkpt><trkpt lat="45.30502258777407" lon="3.908456088647796"><ele>786.0</ele><time>2026-05-01T14:11:31Z</time></trkpt><trkpt lat="45.30513958608768" lon="3.9085044495342816"><ele>786.0</ele><time>2026-05-01T14:11:33Z</time></trkpt><trkpt lat="45.30526257942876" lon="3.908447589971883"><ele>786.0</ele><time>2026-05-01T14:11:35Z</time></trkpt><trkpt lat="45.305328904539074" lon="3.9083876952943943"><ele>786.0</ele><time>2026-05-01T14:11:36Z</time></trkpt><trkpt lat="45.30540720413136" lon="3.908333521991351"><ele>786.0</ele><time>2026-05-01T14:11:37Z</time></trkpt><trkpt lat="45.305475121756906" lon="3.9082542600350076"><ele>786.0</ele><time>2026-05-01T14:11:38Z</time></trkpt><trkpt lat="45.30556257502408" lon="3.90814487092471"><ele>786.0</ele><time>2026-05-01T14:11:39Z</time></trkpt><trkpt lat="45.30563817858516" lon="3.9081499975846468"><ele>786.0</ele><time>2026-05-01T14:11:40Z</time></trkpt><trkpt lat="45.30572391611263" lon="3.908162743166777"><ele>786.0</ele><time>2026-05-01T14:11:41Z</time></trkpt><trkpt lat="45.305803910381144" lon="3.9081822063788962"><ele>786.0</ele><time>2026-05-01T14:11:42Z</time></trkpt><trkpt lat="45.30588219419204" lon="3.9082345879238045"><ele>782.3333333333333</ele><time>2026-05-01T14:11:43Z</time></trkpt><trkpt lat="45.305986143431156" lon="3.908304377305517"><ele>778.6666666666666</ele><time>2026-05-01T14:11:44Z</time></trkpt><trkpt lat="45.30614993040204" lon="3.9084230779348363"><ele>775.0</ele><time>2026-05-01T14:11:45Z</time></trkpt><trkpt lat="45.30630201181145" lon="3.9085389369458396"><ele>769.5</ele><time>2026-05-01T14:11:46Z</time></trkpt><trkpt lat="45.306447126055296" lon="3.9085507258936922"><ele>764.0</ele><time>2026-05-01T14:11:47Z</time></trkpt><trkpt lat="45.306551350382676" lon="3.9085841107502954"><ele>758.5</ele><time>2026-05-01T14:11:49Z</time></trkpt><trkpt lat="45.306618673309075" lon="3.9086387011847634"><ele>753.0</ele><time>2026-05-01T14:11:50Z</time></trkpt><trkpt lat="45.30685774103447" lon="3.9086992095444115"><ele>753.0</ele><time>2026-05-01T14:11:51Z</time></trkpt><trkpt lat="45.3069961035555" lon="3.9087646283130493"><ele>753.0</ele><time>2026-05-01T14:11:52Z</time></trkpt><trkpt lat="45.30716334414856" lon="3.908815667065839"><ele>753.0</ele><time>2026-05-01T14:11:53Z</time></trkpt><trkpt lat="45.30730758252972" lon="3.908862335173666"><ele>755.0</ele><time>2026-05-01T14:11:54Z</time></trkpt><trkpt lat="45.307451143248656" lon="3.9088862328272747"><ele>757.0</ele><time>2026-05-01T14:11:55Z</time></trkpt><trkpt lat="45.30758889850048" lon="3.9088970711136564"><ele>759.0</ele><time>2026-05-01T14:11:56Z</time></trkpt><trkpt lat="45.307696953868216" lon="3.908920897615595"><ele>761.0</ele><time>2026-05-01T14:11:57Z</time></trkpt><trkpt lat="45.307817023844265" lon="3.9089618580307204"><ele>761.0</ele><time>2026-05-01T14:11:58Z</time></trkpt><trkpt lat="45.30794779532194" lon="3.909011820223394"><ele>761.0</ele><time>2026-05-01T14:11:59Z</time></trkpt><trkpt lat="45.30805124553244" lon="3.9090787262464124"><ele>761.0</ele><time>2026-05-01T14:12:00Z</time></trkpt><trkpt lat="45.30812500784712" lon="3.9091408187001715"><ele>761.0</ele><time>2026-05-01T14:12:01Z</time></trkpt><trkpt lat="45.308184377483755" lon="3.90917495700983"><ele>761.0</ele><time>2026-05-01T14:12:02Z</time></trkpt><trkpt lat="45.3082960188374" lon="3.9091741164136593"><ele>758.1666666666666</ele><time>2026-05-01T14:12:04Z</time></trkpt><trkpt lat="45.30829041408474" lon="3.909268537209832"><ele>755.3333333333333</ele><time>2026-05-01T14:12:08Z</time></trkpt><trkpt lat="45.308198422635726" lon="3.909267538487154"><ele>752.5</ele><time>2026-05-01T14:12:10Z</time></trkpt><trkpt lat="45.30807978113383" lon="3.9093727938296197"><ele>749.6666666666666</ele><time>2026-05-01T14:12:12Z</time></trkpt><trkpt lat="45.308011185377076" lon="3.9093827023875423"><ele>746.8333333333334</ele><time>2026-05-01T14:12:13Z</time></trkpt><trkpt lat="45.307942635699106" lon="3.909399572014723"><ele>744.0</ele><time>2026-05-01T14:12:14Z</time></trkpt><trkpt lat="45.30781812883991" lon="3.909422586716173"><ele>743.3333333333334</ele><time>2026-05-01T14:12:15Z</time></trkpt><trkpt lat="45.3077030787475" lon="3.9094727217616776"><ele>742.6666666666666</ele><time>2026-05-01T14:12:16Z</time></trkpt><trkpt lat="45.307619426826584" lon="3.9095123813199"><ele>742.0</ele><time>2026-05-01T14:12:17Z</time></trkpt><trkpt lat="45.307543125866026" lon="3.909540448868463"><ele>741.3333333333333</ele><time>2026-05-01T14:12:18Z</time></trkpt><trkpt lat="45.307465674392596" lon="3.9095522032957892"><ele>740.6666666666666</ele><time>2026-05-01T14:12:19Z</time></trkpt><trkpt lat="45.307399540483345" lon="3.9095786135155275"><ele>740.0</ele><time>2026-05-01T14:12:20Z</time></trkpt><trkpt lat="45.30732159071515" lon="3.9096063262791914"><ele>739.5</ele><time>2026-05-01T14:12:21Z</time></trkpt><trkpt lat="45.30723002832862" lon="3.9096302632989635"><ele>739.0</ele><time>2026-05-01T14:12:22Z</time></trkpt><trkpt lat="45.30709217076683" lon="3.909655934147737"><ele>738.5</ele><time>2026-05-01T14:12:23Z</time></trkpt><trkpt lat="45.30697452706722" lon="3.9097127906442517"><ele>738.0</ele><time>2026-05-01T14:12:24Z</time></trkpt><trkpt lat="45.30686427035736" lon="3.909768970714181"><ele>738.0</ele><time>2026-05-01T14:12:25Z</time></trkpt><trkpt lat="45.306765605377706" lon="3.9098441650952593"><ele>738.0</ele><time>2026-05-01T14:12:26Z</time></trkpt><trkpt lat="45.30667410960476" lon="3.9099118549242355"><ele>738.0</ele><time>2026-05-01T14:12:27Z</time></trkpt><trkpt lat="45.30658018444714" lon="3.910009805258745"><ele>738.0</ele><time>2026-05-01T14:12:28Z</time></trkpt><trkpt lat="45.30649275040609" lon="3.9101107586035635"><ele>738.0</ele><time>2026-05-01T14:12:29Z</time></trkpt><trkpt lat="45.306407966967456" lon="3.9102491812997284"><ele>737.5</ele><time>2026-05-01T14:12:30Z</time></trkpt><trkpt lat="45.30628768136964" lon="3.9103215879108113"><ele>737.0</ele><time>2026-05-01T14:12:31Z</time></trkpt><trkpt lat="45.3061762357258" lon="3.9103983090868186"><ele>736.5</ele><time>2026-05-01T14:12:32Z</time></trkpt><trkpt lat="45.3060342632593" lon="3.9104462428847775"><ele>736.0</ele><time>2026-05-01T14:12:33Z</time></trkpt><trkpt lat="45.30589577319332" lon="3.910441485887308"><ele>736.0</ele><time>2026-05-01T14:12:34Z</time></trkpt><trkpt lat="45.30579525032872" lon="3.9104605491447453"><ele>736.0</ele><time>2026-05-01T14:12:35Z</time></trkpt><trkpt lat="45.30568937191529" lon="3.9104442677673874"><ele>736.0</ele><time>2026-05-01T14:12:36Z</time></trkpt><trkpt lat="45.30561544182322" lon="3.910497542949879"><ele>736.0</ele><time>2026-05-01T14:12:37Z</time></trkpt><trkpt lat="45.305566065496734" lon="3.910573571062905"><ele>736.0</ele><time>2026-05-01T14:12:38Z</time></trkpt><trkpt lat="45.305544959640656" lon="3.9106746632271454"><ele>736.0</ele><time>2026-05-01T14:12:39Z</time></trkpt><trkpt lat="45.3055826145414" lon="3.9108068267804077"><ele>737.0</ele><time>2026-05-01T14:12:40Z</time></trkpt><trkpt lat="45.30561744636965" lon="3.9109143110478484"><ele>738.0</ele><time>2026-05-01T14:12:40.999Z</time></trkpt><trkpt lat="45.305655472681885" lon="3.9110184995670356"><ele>739.0</ele><time>2026-05-01T14:12:41.999Z</time></trkpt><trkpt lat="45.305668590528384" lon="3.911119414478824"><ele>740.0</ele><time>2026-05-01T14:12:42.999Z</time></trkpt><trkpt lat="45.305649958884814" lon="3.9112241285639175"><ele>741.0</ele><time>2026-05-01T14:12:43.999Z</time></trkpt><trkpt lat="45.305558840406576" lon="3.911322270054958"><ele>742.0</ele><time>2026-05-01T14:12:44.999Z</time></trkpt><trkpt lat="45.305434891627826" lon="3.9114296184107373"><ele>742.75</ele><time>2026-05-01T14:12:45.999Z</time></trkpt><trkpt lat="45.305293490080615" lon="3.911521186667246"><ele>743.5</ele><time>2026-05-01T14:12:46.999Z</time></trkpt><trkpt lat="45.30518106905118" lon="3.9116076036583616"><ele>744.25</ele><time>2026-05-01T14:12:47.999Z</time></trkpt><trkpt lat="45.30508891904334" lon="3.9116970240130358"><ele>745.0</ele><time>2026-05-01T14:12:48.999Z</time></trkpt><trkpt lat="45.30499288322094" lon="3.911773819040723"><ele>749.0</ele><time>2026-05-01T14:12:49.999Z</time></trkpt><trkpt lat="45.30488991290038" lon="3.9118238212202106"><ele>753.0</ele><time>2026-05-01T14:12:50.999Z</time></trkpt><trkpt lat="45.30478531429349" lon="3.911884841042579"><ele>757.0</ele><time>2026-05-01T14:12:51.999Z</time></trkpt><trkpt lat="45.30467586447318" lon="3.9119463453514363"><ele>761.0</ele><time>2026-05-01T14:12:52.999Z</time></trkpt><trkpt lat="45.30456273150606" lon="3.912011659149228"><ele>761.75</ele><time>2026-05-01T14:12:53.999Z</time></trkpt><trkpt lat="45.3044521240202" lon="3.9120763122497277"><ele>762.5</ele><time>2026-05-01T14:12:54.999Z</time></trkpt><trkpt lat="45.30435537562256" lon="3.912164475882356"><ele>763.25</ele><time>2026-05-01T14:12:55.999Z</time></trkpt><trkpt lat="45.30425300716033" lon="3.9122418684296574"><ele>764.0</ele><time>2026-05-01T14:12:56.999Z</time></trkpt><trkpt lat="45.304159847312214" lon="3.912297800937605"><ele>764.0</ele><time>2026-05-01T14:12:57.999Z</time></trkpt><trkpt lat="45.3040895625299" lon="3.912355495020974"><ele>764.0</ele><time>2026-05-01T14:12:58.999Z</time></trkpt><trkpt lat="45.304042655936556" lon="3.912426363981458"><ele>764.0</ele><time>2026-05-01T14:12:59.999Z</time></trkpt><trkpt lat="45.3040011806841" lon="3.912550769563736"><ele>764.0</ele><time>2026-05-01T14:13:01.999Z</time></trkpt><trkpt lat="45.304038115397816" lon="3.912652050656026"><ele>764.0</ele><time>2026-05-01T14:13:02.999Z</time></trkpt><trkpt lat="45.30411613881034" lon="3.912714029124515"><ele>764.0</ele><time>2026-05-01T14:13:03.999Z</time></trkpt><trkpt lat="45.30420100488517" lon="3.9127567036825424"><ele>765.1666666666666</ele><time>2026-05-01T14:13:04.999Z</time></trkpt><trkpt lat="45.304272709918905" lon="3.9127993086779784"><ele>766.3333333333333</ele><time>2026-05-01T14:13:05.999Z</time></trkpt><trkpt lat="45.30431481325927" lon="3.9128857831909216"><ele>767.5</ele><time>2026-05-01T14:13:06.999Z</time></trkpt><trkpt lat="45.304320776871116" lon="3.91302291456991"><ele>768.6666666666666</ele><time>2026-05-01T14:13:07.999Z</time></trkpt><trkpt lat="45.30435471699772" lon="3.9131081612926764"><ele>769.8333333333334</ele><time>2026-05-01T14:13:08.999Z</time></trkpt><trkpt lat="45.30437395476804" lon="3.913212174410019"><ele>771.0</ele><time>2026-05-01T14:13:10.999Z</time></trkpt><trkpt lat="45.30447805865248" lon="3.9133120380926134"><ele>769.5</ele><time>2026-05-01T14:13:12.999Z</time></trkpt><trkpt lat="45.304464345641286" lon="3.9134088180291844"><ele>768.0</ele><time>2026-05-01T14:13:14.999Z</time></trkpt><trkpt lat="45.304394960304776" lon="3.9134273914067763"><ele>766.5</ele><time>2026-05-01T14:13:15.999Z</time></trkpt><trkpt lat="45.30429383239576" lon="3.9134438592129914"><ele>765.0</ele><time>2026-05-01T14:13:16.999Z</time></trkpt><trkpt lat="45.30420570578061" lon="3.9134739690381823"><ele>763.5</ele><time>2026-05-01T14:13:17.999Z</time></trkpt><trkpt lat="45.30414241586474" lon="3.9135302754600088"><ele>762.0</ele><time>2026-05-01T14:13:18.999Z</time></trkpt><trkpt lat="45.30407949434847" lon="3.913590063803946"><ele>762.0</ele><time>2026-05-01T14:13:19.999Z</time></trkpt><trkpt lat="45.30400628250746" lon="3.9136633556236724"><ele>762.0</ele><time>2026-05-01T14:13:20.999Z</time></trkpt><trkpt lat="45.303943448076204" lon="3.9137400970737017"><ele>762.0</ele><time>2026-05-01T14:13:21.999Z</time></trkpt><trkpt lat="45.30388262004179" lon="3.9138192643114604"><ele>762.0</ele><time>2026-05-01T14:13:22.999Z</time></trkpt><trkpt lat="45.30382917084475" lon="3.9138912459948934"><ele>762.0</ele><time>2026-05-01T14:13:23.999Z</time></trkpt><trkpt lat="45.30377360445141" lon="3.913966852682674"><ele>762.0</ele><time>2026-05-01T14:13:24.999Z</time></trkpt><trkpt lat="45.30373269691648" lon="3.9140787220156796"><ele>763.75</ele><time>2026-05-01T14:13:25.999Z</time></trkpt><trkpt lat="45.30373173477718" lon="3.9142617778755833"><ele>765.5</ele><time>2026-05-01T14:13:26.999Z</time></trkpt><trkpt lat="45.303810638755074" lon="3.914421003467024"><ele>767.25</ele><time>2026-05-01T14:13:27.999Z</time></trkpt><trkpt lat="45.303874434647796" lon="3.914523173223469"><ele>769.0</ele><time>2026-05-01T14:13:28.999Z</time></trkpt><trkpt lat="45.30394975844594" lon="3.914632014882838"><ele>769.0</ele><time>2026-05-01T14:13:29.999Z</time></trkpt><trkpt lat="45.30402625204359" lon="3.914724472813455"><ele>769.0</ele><time>2026-05-01T14:13:30.999Z</time></trkpt><trkpt lat="45.30412072713936" lon="3.91477544767323"><ele>769.0</ele><time>2026-05-01T14:13:31.999Z</time></trkpt><trkpt lat="45.30421352401215" lon="3.9148596894899397"><ele>769.0</ele><time>2026-05-01T14:13:32.999Z</time></trkpt><trkpt lat="45.30433875950128" lon="3.914949822930917"><ele>769.0</ele><time>2026-05-01T14:13:33.999Z</time></trkpt><trkpt lat="45.30446179719513" lon="3.9150326937094757"><ele>769.0</ele><time>2026-05-01T14:13:34.999Z</time></trkpt><trkpt lat="45.304573261257296" lon="3.9151155693789588"><ele>769.0</ele><time>2026-05-01T14:13:36Z</time></trkpt><trkpt lat="45.304676511730285" lon="3.9151889086240224"><ele>769.0</ele><time>2026-05-01T14:13:37Z</time></trkpt><trkpt lat="45.304774107621114" lon="3.9152593083611835"><ele>765.3333333333333</ele><time>2026-05-01T14:13:38Z</time></trkpt><trkpt lat="45.30486496424657" lon="3.9153082735180993"><ele>761.6666666666666</ele><time>2026-05-01T14:13:39Z</time></trkpt><trkpt lat="45.304941727742175" lon="3.9153520547386287"><ele>758.0</ele><time>2026-05-01T14:13:40Z</time></trkpt><trkpt lat="45.304999496527" lon="3.9154036484570027"><ele>754.3333333333333</ele><time>2026-05-01T14:13:41Z</time></trkpt><trkpt lat="45.305037884135615" lon="3.915485289703981"><ele>750.6666666666666</ele><time>2026-05-01T14:13:42Z</time></trkpt><trkpt lat="45.30505778866972" lon="3.9156027069052484"><ele>747.0</ele><time>2026-05-01T14:13:43Z</time></trkpt><trkpt lat="45.30504104286432" lon="3.915778127552727"><ele>746.6</ele><time>2026-05-01T14:13:44Z</time></trkpt><trkpt lat="45.305047423932045" lon="3.9159495413192755"><ele>746.2</ele><time>2026-05-01T14:13:45Z</time></trkpt><trkpt lat="45.305053486324454" lon="3.916091615350258"><ele>745.8</ele><time>2026-05-01T14:13:46Z</time></trkpt><trkpt lat="45.30506178003688" lon="3.916193064623626"><ele>745.4</ele><time>2026-05-01T14:13:48Z</time></trkpt><trkpt lat="45.30504855210041" lon="3.916366751176409"><ele>745.0</ele><time>2026-05-01T14:13:51Z</time></trkpt><trkpt lat="45.305053519019" lon="3.9165278072294694"><ele>745.0</ele><time>2026-05-01T14:13:53Z</time></trkpt><trkpt lat="45.30506394025948" lon="3.9167276965376985"><ele>745.0</ele><time>2026-05-01T14:13:55Z</time></trkpt><trkpt lat="45.304719639094536" lon="3.916894606260766"><ele>752.0</ele><time>2026-05-01T14:13:56Z</time></trkpt><trkpt lat="45.30465670529706" lon="3.9170325487352495"><ele>759.0</ele><time>2026-05-01T14:13:57Z</time></trkpt><trkpt lat="45.304585369025105" lon="3.917181972909383"><ele>766.0</ele><time>2026-05-01T14:13:58Z</time></trkpt><trkpt lat="45.30453935077458" lon="3.917294969503819"><ele>773.0</ele><time>2026-05-01T14:13:59Z</time></trkpt><trkpt lat="45.30448727097111" lon="3.917377538092085"><ele>780.0</ele><time>2026-05-01T14:14:00Z</time></trkpt><trkpt lat="45.3044539380819" lon="3.9174627315168697"><ele>780.6</ele><time>2026-05-01T14:14:01Z</time></trkpt><trkpt lat="45.304412649686896" lon="3.91761523921222"><ele>781.2</ele><time>2026-05-01T14:14:03Z</time></trkpt><trkpt lat="45.30437966029861" lon="3.9176954516785933"><ele>781.8</ele><time>2026-05-01T14:14:04Z</time></trkpt><trkpt lat="45.304381686210476" lon="3.917857036860815"><ele>782.4</ele><time>2026-05-01T14:14:06Z</time></trkpt><trkpt lat="45.30435259046135" lon="3.918047590792806"><ele>783.0</ele><time>2026-05-01T14:14:08Z</time></trkpt><trkpt lat="45.30433950527024" lon="3.9181471680677746"><ele>783.0</ele><time>2026-05-01T14:14:09Z</time></trkpt><trkpt lat="45.304322923026746" lon="3.918245027603776"><ele>783.0</ele><time>2026-05-01T14:14:10Z</time></trkpt><trkpt lat="45.30428861746428" lon="3.918330077013505"><ele>783.0</ele><time>2026-05-01T14:14:11Z</time></trkpt><trkpt lat="45.304260556204376" lon="3.918436508620657"><ele>783.0</ele><time>2026-05-01T14:14:13Z</time></trkpt><trkpt lat="45.30424054935378" lon="3.9185549450554937"><ele>783.0</ele><time>2026-05-01T14:14:18Z</time></trkpt><trkpt lat="45.30420007647008" lon="3.9186266966672254"><ele>783.0</ele><time>2026-05-01T14:14:23Z</time></trkpt><trkpt lat="45.30418343859961" lon="3.918722832259275"><ele>783.0</ele><time>2026-05-01T14:14:29Z</time></trkpt><trkpt lat="45.304164023954016" lon="3.9189217641459084"><ele>784.8333333333334</ele><time>2026-05-01T14:14:31Z</time></trkpt><trkpt lat="45.304153393332584" lon="3.919013276893256"><ele>786.6666666666667</ele><time>2026-05-01T14:14:32Z</time></trkpt><trkpt lat="45.30414221041301" lon="3.919158516921649"><ele>788.5</ele><time>2026-05-01T14:14:34Z</time></trkpt><trkpt lat="45.30411320205294" lon="3.9192661261533925"><ele>790.3333333333334</ele><time>2026-05-01T14:14:35Z</time></trkpt><trkpt lat="45.30408954257011" lon="3.9193901148851418"><ele>792.1666666666667</ele><time>2026-05-01T14:14:36Z</time></trkpt><trkpt lat="45.304077809967566" lon="3.919483282458474"><ele>794.0</ele><time>2026-05-01T14:14:37Z</time></trkpt><trkpt lat="45.30406345322012" lon="3.9196846083001637"><ele>795.6666666666667</ele><time>2026-05-01T14:14:39Z</time></trkpt><trkpt lat="45.30407072445587" lon="3.919790228781537"><ele>797.3333333333334</ele><time>2026-05-01T14:14:40Z</time></trkpt><trkpt lat="45.30404731021578" lon="3.919932333931954"><ele>799.0</ele><time>2026-05-01T14:14:42Z</time></trkpt><trkpt lat="45.30402960967608" lon="3.9200782193084684"><ele>800.6666666666667</ele><time>2026-05-01T14:14:44Z</time></trkpt><trkpt lat="45.30399485109078" lon="3.9201725388127153"><ele>802.3333333333334</ele><time>2026-05-01T14:14:46Z</time></trkpt><trkpt lat="45.30393242341289" lon="3.920133088694066"><ele>804.0</ele><time>2026-05-01T14:16:19Z</time></trkpt><trkpt lat="45.30386945002744" lon="3.9201041180868934"><ele>806.25</ele><time>2026-05-01T14:16:24Z</time></trkpt><trkpt lat="45.30390478001723" lon="3.920179627081463"><ele>808.5</ele><time>2026-05-01T14:17:04.999Z</time></trkpt><trkpt lat="45.30391818858935" lon="3.9204095730438984"><ele>810.75</ele><time>2026-05-01T14:17:06.999Z</time></trkpt><trkpt lat="45.30393450884266" lon="3.9205734919504267"><ele>813.0</ele><time>2026-05-01T14:17:07.999Z</time></trkpt><trkpt lat="45.30397584862224" lon="3.920769114839372"><ele>817.0</ele><time>2026-05-01T14:17:08.999Z</time></trkpt><trkpt lat="45.30403941921178" lon="3.9209610694684787"><ele>821.0</ele><time>2026-05-01T14:17:09.999Z</time></trkpt><trkpt lat="45.304100672766346" lon="3.9211641486789635"><ele>825.0</ele><time>2026-05-01T14:17:10.999Z</time></trkpt><trkpt lat="45.30417800596156" lon="3.9213655455697323"><ele>825.0</ele><time>2026-05-01T14:17:11.999Z</time></trkpt><trkpt lat="45.304258834861805" lon="3.921535023995175"><ele>825.0</ele><time>2026-05-01T14:17:12.999Z</time></trkpt><trkpt lat="45.30433198970027" lon="3.9216868012817203"><ele>825.0</ele><time>2026-05-01T14:17:13.999Z</time></trkpt><trkpt lat="45.3044032585875" lon="3.921834808834364"><ele>825.0</ele><time>2026-05-01T14:17:14.999Z</time></trkpt><trkpt lat="45.30443459887223" lon="3.9219632504435062"><ele>827.4</ele><time>2026-05-01T14:17:15.999Z</time></trkpt><trkpt lat="45.30446017414388" lon="3.922099815943767"><ele>829.8</ele><time>2026-05-01T14:17:16.999Z</time></trkpt><trkpt lat="45.30449205682566" lon="3.9222160693215824"><ele>832.2</ele><time>2026-05-01T14:17:17.999Z</time></trkpt><trkpt lat="45.30454609517893" lon="3.922320619114025"><ele>834.6</ele><time>2026-05-01T14:17:18.999Z</time></trkpt><trkpt lat="45.30460476228008" lon="3.92242434610952"><ele>837.0</ele><time>2026-05-01T14:17:19.999Z</time></trkpt><trkpt lat="45.30467675775796" lon="3.922508795838225"><ele>834.0</ele><time>2026-05-01T14:17:20.999Z</time></trkpt><trkpt lat="45.30474627410796" lon="3.922583346413224"><ele>831.0</ele><time>2026-05-01T14:17:21.999Z</time></trkpt><trkpt lat="45.30481714775402" lon="3.9226595531423936"><ele>828.0</ele><time>2026-05-01T14:17:22.999Z</time></trkpt><trkpt lat="45.30490904218075" lon="3.9227541025026693"><ele>825.0</ele><time>2026-05-01T14:17:23.999Z</time></trkpt><trkpt lat="45.30499970862715" lon="3.9228495459467503"><ele>822.0</ele><time>2026-05-01T14:17:24.999Z</time></trkpt><trkpt lat="45.305083003218975" lon="3.9229602519541786"><ele>822.0</ele><time>2026-05-01T14:17:25.999Z</time></trkpt><trkpt lat="45.305153531915" lon="3.9230966496720847"><ele>822.0</ele><time>2026-05-01T14:17:26.999Z</time></trkpt><trkpt lat="45.30522292042373" lon="3.923206550079245"><ele>822.0</ele><time>2026-05-01T14:17:27.999Z</time></trkpt><trkpt lat="45.3052889239693" lon="3.923315393458649"><ele>822.0</ele><time>2026-05-01T14:17:28.999Z</time></trkpt><trkpt lat="45.30536365463532" lon="3.9234161926270694"><ele>822.0</ele><time>2026-05-01T14:17:29.999Z</time></trkpt><trkpt lat="45.30542939048387" lon="3.92353756578263"><ele>823.2</ele><time>2026-05-01T14:17:30.999Z</time></trkpt><trkpt lat="45.305486463324" lon="3.9236659352691365"><ele>824.4000000000001</ele><time>2026-05-01T14:17:31.999Z</time></trkpt><trkpt lat="45.30554309461281" lon="3.9238090499985616"><ele>825.5999999999999</ele><time>2026-05-01T14:17:32.999Z</time></trkpt><trkpt lat="45.30558937298964" lon="3.9239510614590905"><ele>826.8</ele><time>2026-05-01T14:17:33.999Z</time></trkpt><trkpt lat="45.30562186928834" lon="3.9240950373064405"><ele>828.0</ele><time>2026-05-01T14:17:34.999Z</time></trkpt><trkpt lat="45.30564519162767" lon="3.9242456746234695"><ele>822.5</ele><time>2026-05-01T14:17:35.999Z</time></trkpt><trkpt lat="45.30565838201095" lon="3.9244086106103055"><ele>817.0</ele><time>2026-05-01T14:17:36.999Z</time></trkpt><trkpt lat="45.305677929021115" lon="3.9245851388773287"><ele>811.5</ele><time>2026-05-01T14:17:37.999Z</time></trkpt><trkpt lat="45.30570844044343" lon="3.9247592896564476"><ele>806.0</ele><time>2026-05-01T14:17:38.999Z</time></trkpt><trkpt lat="45.30574629392102" lon="3.9249225019231093"><ele>806.0</ele><time>2026-05-01T14:17:39.999Z</time></trkpt><trkpt lat="45.3057975601152" lon="3.925057913588217"><ele>806.0</ele><time>2026-05-01T14:17:40.999Z</time></trkpt><trkpt lat="45.30585640984114" lon="3.925167951401071"><ele>806.0</ele><time>2026-05-01T14:17:41.999Z</time></trkpt><trkpt lat="45.305910294489394" lon="3.9252672821562253"><ele>806.0</ele><time>2026-05-01T14:17:42.999Z</time></trkpt><trkpt lat="45.305950392980805" lon="3.925364209799692"><ele>806.0</ele><time>2026-05-01T14:17:43.999Z</time></trkpt><trkpt lat="45.305982593937735" lon="3.9254659707211386"><ele>806.5000000000001</ele><time>2026-05-01T14:17:44.999Z</time></trkpt><trkpt lat="45.30600010438476" lon="3.9255775473783716"><ele>807.0</ele><time>2026-05-01T14:17:45.999Z</time></trkpt><trkpt lat="45.3060129601083" lon="3.9256917417944135"><ele>807.5</ele><time>2026-05-01T14:17:46.999Z</time></trkpt><trkpt lat="45.30601722177333" lon="3.925806894093186"><ele>808.0</ele><time>2026-05-01T14:17:48Z</time></trkpt><trkpt lat="45.306019658405" lon="3.9259270457297135"><ele>808.5000000000001</ele><time>2026-05-01T14:17:49Z</time></trkpt><trkpt lat="45.30601578368486" lon="3.9260335254129246"><ele>809.0</ele><time>2026-05-01T14:17:50Z</time></trkpt><trkpt lat="45.306014959234545" lon="3.9261325317200884"><ele>809.0</ele><time>2026-05-01T14:17:51Z</time></trkpt><trkpt lat="45.30599687510872" lon="3.9262484347650357"><ele>809.0</ele><time>2026-05-01T14:17:52Z</time></trkpt><trkpt lat="45.30598104162709" lon="3.9263502623637083"><ele>809.0</ele><time>2026-05-01T14:17:53Z</time></trkpt><trkpt lat="45.30597178276952" lon="3.926440862456828"><ele>809.0</ele><time>2026-05-01T14:17:54Z</time></trkpt><trkpt lat="45.3059829488334" lon="3.926538959260114"><ele>809.0</ele><time>2026-05-01T14:17:55Z</time></trkpt><trkpt lat="45.305986965988005" lon="3.9266292313993727"><ele>809.0</ele><time>2026-05-01T14:17:56Z</time></trkpt><trkpt lat="45.30599923057698" lon="3.926739333066385"><ele>809.0</ele><time>2026-05-01T14:17:57Z</time></trkpt><trkpt lat="45.3060182117629" lon="3.92687541324408"><ele>808.0</ele><time>2026-05-01T14:17:58Z</time></trkpt><trkpt lat="45.30603012705046" lon="3.9270358440401094"><ele>807.0</ele><time>2026-05-01T14:17:59Z</time></trkpt><trkpt lat="45.30601968493398" lon="3.9271768139697016"><ele>806.0</ele><time>2026-05-01T14:18:00Z</time></trkpt><trkpt lat="45.30598892159021" lon="3.9272926023100316"><ele>805.0</ele><time>2026-05-01T14:18:01Z</time></trkpt><trkpt lat="45.305942250497004" lon="3.927388350007217"><ele>804.0</ele><time>2026-05-01T14:18:02Z</time></trkpt><trkpt lat="45.305891675842055" lon="3.9274741962184105"><ele>804.0</ele><time>2026-05-01T14:18:03Z</time></trkpt><trkpt lat="45.305840925183595" lon="3.927547708432408"><ele>804.0</ele><time>2026-05-01T14:18:04Z</time></trkpt><trkpt lat="45.305749627151734" lon="3.9276479768545633"><ele>804.0</ele><time>2026-05-01T14:18:06Z</time></trkpt><trkpt lat="45.30569376883438" lon="3.9277574542014735"><ele>804.0</ele><time>2026-05-01T14:18:08Z</time></trkpt><trkpt lat="45.305630931478866" lon="3.9278974842434864"><ele>804.0</ele><time>2026-05-01T14:18:10Z</time></trkpt><trkpt lat="45.3055764714304" lon="3.9280038231439067"><ele>805.0</ele><time>2026-05-01T14:18:11Z</time></trkpt><trkpt lat="45.30551687202605" lon="3.928136178211254"><ele>806.0</ele><time>2026-05-01T14:18:12Z</time></trkpt><trkpt lat="45.30545803076659" lon="3.9282618519397756"><ele>807.0</ele><time>2026-05-01T14:18:13Z</time></trkpt><trkpt lat="45.3053864611543" lon="3.9283617508543434"><ele>808.0</ele><time>2026-05-01T14:18:14Z</time></trkpt><trkpt lat="45.305284372424694" lon="3.9284770319534"><ele>809.0</ele><time>2026-05-01T14:18:15Z</time></trkpt><trkpt lat="45.30516153682737" lon="3.9285513783825303"><ele>805.3333333333334</ele><time>2026-05-01T14:18:16Z</time></trkpt><trkpt lat="45.304987866476296" lon="3.9286769765126026"><ele>801.6666666666667</ele><time>2026-05-01T14:18:17Z</time></trkpt><trkpt lat="45.304851078167395" lon="3.9288254892624885"><ele>798.0</ele><time>2026-05-01T14:18:18Z</time></trkpt><trkpt lat="45.30477119219571" lon="3.929002068339554"><ele>804.6666666666667</ele><time>2026-05-01T14:18:19Z</time></trkpt><trkpt lat="45.304703185849895" lon="3.9291877514118836"><ele>811.3333333333334</ele><time>2026-05-01T14:18:20Z</time></trkpt><trkpt lat="45.30464251873282" lon="3.929418466949457"><ele>818.0</ele><time>2026-05-01T14:18:21Z</time></trkpt><trkpt lat="45.30455250881164" lon="3.9296652459311123"><ele>818.0</ele><time>2026-05-01T14:18:22Z</time></trkpt><trkpt lat="45.30446302623916" lon="3.9299467013052705"><ele>818.0</ele><time>2026-05-01T14:18:23Z</time></trkpt><trkpt lat="45.304402569578734" lon="3.930223772060579"><ele>818.0</ele><time>2026-05-01T14:18:24Z</time></trkpt><trkpt lat="45.30431805599695" lon="3.9304929299392133"><ele>814.6666666666667</ele><time>2026-05-01T14:18:25Z</time></trkpt><trkpt lat="45.304288404561014" lon="3.9307679343890647"><ele>811.3333333333333</ele><time>2026-05-01T14:18:26Z</time></trkpt><trkpt lat="45.30425833754776" lon="3.930999687686854"><ele>808.0</ele><time>2026-05-01T14:18:27Z</time></trkpt><trkpt lat="45.304226345899735" lon="3.93121640347468"><ele>805.75</ele><time>2026-05-01T14:18:28Z</time></trkpt><trkpt lat="45.30419830469852" lon="3.9314174139161686"><ele>803.5</ele><time>2026-05-01T14:18:29Z</time></trkpt><trkpt lat="45.30417384943588" lon="3.931612533733092"><ele>801.25</ele><time>2026-05-01T14:18:30Z</time></trkpt><trkpt lat="45.30414759283498" lon="3.931797457242729"><ele>799.0</ele><time>2026-05-01T14:18:31Z</time></trkpt><trkpt lat="45.30413250036235" lon="3.931963985640923"><ele>798.1666666666666</ele><time>2026-05-01T14:18:32Z</time></trkpt><trkpt lat="45.30411509368209" lon="3.9321132460626904"><ele>797.3333333333333</ele><time>2026-05-01T14:18:33Z</time></trkpt><trkpt lat="45.30410647297529" lon="3.9322445366593466"><ele>796.5</ele><time>2026-05-01T14:18:34Z</time></trkpt><trkpt lat="45.304107758081614" lon="3.932362498090656"><ele>795.6666666666667</ele><time>2026-05-01T14:18:35Z</time></trkpt><trkpt lat="45.30412039646056" lon="3.9324745890783297"><ele>794.8333333333334</ele><time>2026-05-01T14:18:36Z</time></trkpt><trkpt lat="45.30412569117361" lon="3.932570281054751"><ele>794.0</ele><time>2026-05-01T14:18:37Z</time></trkpt><trkpt lat="45.304134294381676" lon="3.9327088959594083"><ele>792.5000000000001</ele><time>2026-05-01T14:18:39Z</time></trkpt><trkpt lat="45.30415525613201" lon="3.9328135903532706"><ele>791.0</ele><time>2026-05-01T14:18:42Z</time></trkpt><trkpt lat="45.304221445061074" lon="3.9327894538734127"><ele>789.5</ele><time>2026-05-01T14:18:54Z</time></trkpt><trkpt lat="45.304302972173204" lon="3.9327427035882168"><ele>788.0</ele><time>2026-05-01T14:18:57Z</time></trkpt><trkpt lat="45.30437464657964" lon="3.932726348142206"><ele>786.5000000000001</ele><time>2026-05-01T14:18:59Z</time></trkpt><trkpt lat="45.30445459981623" lon="3.9327192886232205"><ele>785.0</ele><time>2026-05-01T14:20:08Z</time></trkpt><trkpt lat="45.304514428737505" lon="3.932669430955553"><ele>785.0</ele><time>2026-05-01T14:20:45Z</time></trkpt><trkpt lat="45.30458610364735" lon="3.9326419423483734"><ele>785.0</ele><time>2026-05-01T14:20:54Z</time></trkpt><trkpt lat="45.30466217950443" lon="3.932645730061006"><ele>785.0</ele><time>2026-05-01T14:21:03Z</time></trkpt><trkpt lat="45.3046581040282" lon="3.9325449182084076"><ele>785.0</ele><time>2026-05-01T14:21:46.999Z</time></trkpt><trkpt lat="45.30465301806802" lon="3.932635575370594"><ele>785.0</ele><time>2026-05-01T14:23:17.999Z</time></trkpt><trkpt lat="45.304664030377495" lon="3.9327303134597034"><ele>785.0</ele><time>2026-05-01T14:23:26.999Z</time></trkpt><trkpt lat="45.30472086089076" lon="3.932794750349889"><ele>785.0</ele><time>2026-05-01T14:23:43.999Z</time></trkpt><trkpt lat="45.30478486170122" lon="3.9328345777262026"><ele>779.0</ele><time>2026-05-01T14:23:52.999Z</time></trkpt><trkpt lat="45.30481063173758" lon="3.932750342666064"><ele>779.0</ele><time>2026-05-01T14:24:12Z</time></trkpt></trkseg></trk></gpx>